<?xml version="1.0" encoding="UTF-8" standalone="no" ?>
<gpx xmlns="http://www.topografix.com/GPX/1/1" xmlns:xsi="http://www.w3.org/2001/XMLSchema-instance" xsi:schemaLocation="http://www.topografix.com/GPX/1/1 http://www.topografix.com/GPX/1/1/gpx.xsd" version="1.1" creator="VisuGPX - https://www.visugpx.com">
  <metadata>
    <name>Rando cyclo-camping 3 jours dans l'Aude</name>
    <desc><![CDATA[Une virée de 3 jours en autonomie pour découvrir les Corbières et la haute vallée de l'Aude. Une terre d'Abbayes et de châteaux moyenâgeux, rendue mythique par l'histoire du catharisme.
[img]https://vr7qlw.am.files.1drv.com/y4mekqlXUBwxKXAfBTY5ZOEoK6MNzj3hoNTwA_5MsuG7L9rpP-dCYBzvxp2iWEBehn4aWu3jUdAz5wUC1BnKMdoOXicRYBWs6DqN7YH9WfXaVpboLnusUH7DchT6_ezJo75Y0k-2vQRrbU5S9XT_ob0MpuWyW-g5Xk2wmIvcBU41wm68nXeqaeEFpbhE4PjDHAwBk3w3U3NjJn-fcK9lSh31w?width=256&height=171&cropmode=none[/img]
Pour une lecture du récit de ces 3 jours rendez-vous sur mon blog [url=https://monexperiencevelo.blogspot.com/2018/05/3-jours-en-cyclo-camping-dans-laude.html]ici[/url].]]></desc>
  </metadata>
  <wpt lat="43.0968" lon="2.40182">
    <ele>281.5</ele>
    <name><![CDATA[Abbaye de Rieunette]]></name>
  </wpt>
  <wpt lat="43.10468" lon="2.4537">
    <ele>493.2</ele>
    <name><![CDATA[Départ / Bivouac 1]]></name>
  </wpt>
  <wpt lat="42.98211" lon="2.37672">
    <ele>663.1</ele>
    <name><![CDATA[Arrivée / Bivouac Mairie Valmigère]]></name>
  </wpt>
  <wpt lat="43.18735" lon="2.97575">
    <ele>20.8</ele>
    <name><![CDATA[Départ/Arrivée Parking]]></name>
  </wpt>
  <trk>
    <name><![CDATA[Aude J3]]></name>
    <extensions>
      <line xmlns="http://www.topografix.com/GPX/gpx_style/0/2">
        <color>ff00d4</color>
        <width>4</width>
      </line>
    </extensions>
    <trkseg>
      <trkpt lat="42.98188" lon="2.37682">
        <ele>700</ele>
        <time>2018-05-21T06:21:17Z</time>
      </trkpt>
      <trkpt lat="42.98171" lon="2.37661">
        <ele>670</ele>
        <time>2018-05-21T06:22:28Z</time>
      </trkpt>
      <trkpt lat="42.98148" lon="2.37655">
        <ele>667</ele>
        <time>2018-05-21T06:22:41Z</time>
      </trkpt>
      <trkpt lat="42.9813" lon="2.37636">
        <ele>667</ele>
        <time>2018-05-21T06:22:53Z</time>
      </trkpt>
      <trkpt lat="42.98107" lon="2.37641">
        <ele>668</ele>
        <time>2018-05-21T06:23:05Z</time>
      </trkpt>
      <trkpt lat="42.98091" lon="2.37664">
        <ele>669</ele>
        <time>2018-05-21T06:23:17Z</time>
      </trkpt>
      <trkpt lat="42.98073" lon="2.37686">
        <ele>669</ele>
        <time>2018-05-21T06:23:28Z</time>
      </trkpt>
      <trkpt lat="42.98035" lon="2.37766">
        <ele>668</ele>
        <time>2018-05-21T06:24:08Z</time>
      </trkpt>
      <trkpt lat="42.97986" lon="2.37834">
        <ele>673</ele>
        <time>2018-05-21T06:24:49Z</time>
      </trkpt>
      <trkpt lat="42.97958" lon="2.3792">
        <ele>679</ele>
        <time>2018-05-21T06:25:35Z</time>
      </trkpt>
      <trkpt lat="42.97941" lon="2.37941">
        <ele>684</ele>
        <time>2018-05-21T06:25:48Z</time>
      </trkpt>
      <trkpt lat="42.97902" lon="2.37975">
        <ele>688</ele>
        <time>2018-05-21T06:26:20Z</time>
      </trkpt>
      <trkpt lat="42.97861" lon="2.38006">
        <ele>690</ele>
        <time>2018-05-21T06:26:51Z</time>
      </trkpt>
      <trkpt lat="42.97839" lon="2.38016">
        <ele>691</ele>
        <time>2018-05-21T06:27:04Z</time>
      </trkpt>
      <trkpt lat="42.97769" lon="2.38012">
        <ele>694</ele>
        <time>2018-05-21T06:27:47Z</time>
      </trkpt>
      <trkpt lat="42.97745" lon="2.38007">
        <ele>697</ele>
        <time>2018-05-21T06:28:00Z</time>
      </trkpt>
      <trkpt lat="42.97731" lon="2.37982">
        <ele>699</ele>
        <time>2018-05-21T06:28:13Z</time>
      </trkpt>
      <trkpt lat="42.97716" lon="2.37959">
        <ele>699</ele>
        <time>2018-05-21T06:28:27Z</time>
      </trkpt>
      <trkpt lat="42.97692" lon="2.37954">
        <ele>700</ele>
        <time>2018-05-21T06:28:40Z</time>
      </trkpt>
      <trkpt lat="42.97623" lon="2.3797">
        <ele>706</ele>
        <time>2018-05-21T06:29:22Z</time>
      </trkpt>
      <trkpt lat="42.97577" lon="2.37969">
        <ele>710</ele>
        <time>2018-05-21T06:29:44Z</time>
      </trkpt>
      <trkpt lat="42.97582" lon="2.37937">
        <ele>707</ele>
        <time>2018-05-21T06:33:39Z</time>
      </trkpt>
      <trkpt lat="42.97594" lon="2.3791">
        <ele>707</ele>
        <time>2018-05-21T06:33:52Z</time>
      </trkpt>
      <trkpt lat="42.97607" lon="2.37883">
        <ele>705</ele>
        <time>2018-05-21T06:35:02Z</time>
      </trkpt>
      <trkpt lat="42.97617" lon="2.37855">
        <ele>707</ele>
        <time>2018-05-21T06:35:12Z</time>
      </trkpt>
      <trkpt lat="42.97622" lon="2.37825">
        <ele>709</ele>
        <time>2018-05-21T06:35:24Z</time>
      </trkpt>
      <trkpt lat="42.97611" lon="2.37855">
        <ele>714</ele>
        <time>2018-05-21T06:39:58Z</time>
      </trkpt>
      <trkpt lat="42.97601" lon="2.37887">
        <ele>714</ele>
        <time>2018-05-21T06:40:06Z</time>
      </trkpt>
      <trkpt lat="42.97579" lon="2.37943">
        <ele>710</ele>
        <time>2018-05-21T06:40:26Z</time>
      </trkpt>
      <trkpt lat="42.97555" lon="2.37957">
        <ele>710</ele>
        <time>2018-05-21T06:41:12Z</time>
      </trkpt>
      <trkpt lat="42.97533" lon="2.3796">
        <ele>706</ele>
        <time>2018-05-21T06:42:16Z</time>
      </trkpt>
      <trkpt lat="42.97511" lon="2.37983">
        <ele>708</ele>
        <time>2018-05-21T06:42:21Z</time>
      </trkpt>
      <trkpt lat="42.97467" lon="2.38015">
        <ele>707</ele>
        <time>2018-05-21T06:42:29Z</time>
      </trkpt>
      <trkpt lat="42.97444" lon="2.38026">
        <ele>706</ele>
        <time>2018-05-21T06:42:34Z</time>
      </trkpt>
      <trkpt lat="42.97421" lon="2.38035">
        <ele>688</ele>
        <time>2018-05-21T06:43:35Z</time>
      </trkpt>
      <trkpt lat="42.974" lon="2.38047">
        <ele>691</ele>
        <time>2018-05-21T06:43:47Z</time>
      </trkpt>
      <trkpt lat="42.97379" lon="2.38068">
        <ele>683</ele>
        <time>2018-05-21T06:45:16Z</time>
      </trkpt>
      <trkpt lat="42.97223" lon="2.38382">
        <ele>671</ele>
        <time>2018-05-21T06:45:47Z</time>
      </trkpt>
      <trkpt lat="42.9722" lon="2.38416">
        <ele>670</ele>
        <time>2018-05-21T06:45:50Z</time>
      </trkpt>
      <trkpt lat="42.9724" lon="2.38483">
        <ele>669</ele>
        <time>2018-05-21T06:45:56Z</time>
      </trkpt>
      <trkpt lat="42.97229" lon="2.38523">
        <ele>668</ele>
        <time>2018-05-21T06:45:59Z</time>
      </trkpt>
      <trkpt lat="42.97214" lon="2.38556">
        <ele>668</ele>
        <time>2018-05-21T06:46:02Z</time>
      </trkpt>
      <trkpt lat="42.97194" lon="2.38578">
        <ele>667</ele>
        <time>2018-05-21T06:46:05Z</time>
      </trkpt>
      <trkpt lat="42.97171" lon="2.38591">
        <ele>666</ele>
        <time>2018-05-21T06:46:08Z</time>
      </trkpt>
      <trkpt lat="42.97163" lon="2.38624">
        <ele>665</ele>
        <time>2018-05-21T06:46:13Z</time>
      </trkpt>
      <trkpt lat="42.9718" lon="2.38651">
        <ele>663</ele>
        <time>2018-05-21T06:46:17Z</time>
      </trkpt>
      <trkpt lat="42.97195" lon="2.38676">
        <ele>662</ele>
        <time>2018-05-21T06:46:20Z</time>
      </trkpt>
      <trkpt lat="42.97209" lon="2.38709">
        <ele>661</ele>
        <time>2018-05-21T06:46:23Z</time>
      </trkpt>
      <trkpt lat="42.97172" lon="2.3876">
        <ele>660</ele>
        <time>2018-05-21T06:46:29Z</time>
      </trkpt>
      <trkpt lat="42.97153" lon="2.38791">
        <ele>659</ele>
        <time>2018-05-21T06:46:32Z</time>
      </trkpt>
      <trkpt lat="42.97124" lon="2.38942">
        <ele>652</ele>
        <time>2018-05-21T06:46:44Z</time>
      </trkpt>
      <trkpt lat="42.97113" lon="2.39131">
        <ele>643</ele>
        <time>2018-05-21T06:46:59Z</time>
      </trkpt>
      <trkpt lat="42.97124" lon="2.3916">
        <ele>640</ele>
        <time>2018-05-21T06:47:03Z</time>
      </trkpt>
      <trkpt lat="42.97145" lon="2.39174">
        <ele>636</ele>
        <time>2018-05-21T06:47:07Z</time>
      </trkpt>
      <trkpt lat="42.97147" lon="2.39209">
        <ele>632</ele>
        <time>2018-05-21T06:47:12Z</time>
      </trkpt>
      <trkpt lat="42.97127" lon="2.39225">
        <ele>629</ele>
        <time>2018-05-21T06:47:16Z</time>
      </trkpt>
      <trkpt lat="42.97121" lon="2.39257">
        <ele>628</ele>
        <time>2018-05-21T06:47:21Z</time>
      </trkpt>
      <trkpt lat="42.97125" lon="2.39289">
        <ele>626</ele>
        <time>2018-05-21T06:47:28Z</time>
      </trkpt>
      <trkpt lat="42.97136" lon="2.39317">
        <ele>626</ele>
        <time>2018-05-21T06:47:35Z</time>
      </trkpt>
      <trkpt lat="42.97186" lon="2.39384">
        <ele>624</ele>
        <time>2018-05-21T06:48:15Z</time>
      </trkpt>
      <trkpt lat="42.9719" lon="2.39416">
        <ele>625</ele>
        <time>2018-05-21T06:48:27Z</time>
      </trkpt>
      <trkpt lat="42.97182" lon="2.39446">
        <ele>626</ele>
        <time>2018-05-21T06:48:40Z</time>
      </trkpt>
      <trkpt lat="42.9716" lon="2.3946">
        <ele>626</ele>
        <time>2018-05-21T06:48:52Z</time>
      </trkpt>
      <trkpt lat="42.97143" lon="2.39479">
        <ele>627</ele>
        <time>2018-05-21T06:49:04Z</time>
      </trkpt>
      <trkpt lat="42.97141" lon="2.39575">
        <ele>631</ele>
        <time>2018-05-21T06:49:37Z</time>
      </trkpt>
      <trkpt lat="42.97169" lon="2.39661">
        <ele>633</ele>
        <time>2018-05-21T06:50:11Z</time>
      </trkpt>
      <trkpt lat="42.97194" lon="2.39717">
        <ele>635</ele>
        <time>2018-05-21T06:50:33Z</time>
      </trkpt>
      <trkpt lat="42.9721" lon="2.39742">
        <ele>635</ele>
        <time>2018-05-21T06:50:43Z</time>
      </trkpt>
      <trkpt lat="42.97229" lon="2.3976">
        <ele>636</ele>
        <time>2018-05-21T06:50:56Z</time>
      </trkpt>
      <trkpt lat="42.97254" lon="2.39758">
        <ele>637</ele>
        <time>2018-05-21T06:51:08Z</time>
      </trkpt>
      <trkpt lat="42.97279" lon="2.39765">
        <ele>640</ele>
        <time>2018-05-21T06:51:21Z</time>
      </trkpt>
      <trkpt lat="42.97288" lon="2.39827">
        <ele>643</ele>
        <time>2018-05-21T06:51:45Z</time>
      </trkpt>
      <trkpt lat="42.9729" lon="2.39859">
        <ele>643</ele>
        <time>2018-05-21T06:51:56Z</time>
      </trkpt>
      <trkpt lat="42.97305" lon="2.39882">
        <ele>643</ele>
        <time>2018-05-21T06:52:07Z</time>
      </trkpt>
      <trkpt lat="42.97328" lon="2.39876">
        <ele>644</ele>
        <time>2018-05-21T06:52:18Z</time>
      </trkpt>
      <trkpt lat="42.9735" lon="2.3987">
        <ele>645</ele>
        <time>2018-05-21T06:52:32Z</time>
      </trkpt>
      <trkpt lat="42.97373" lon="2.3988">
        <ele>647</ele>
        <time>2018-05-21T06:52:43Z</time>
      </trkpt>
      <trkpt lat="42.97391" lon="2.39899">
        <ele>650</ele>
        <time>2018-05-21T06:53:03Z</time>
      </trkpt>
      <trkpt lat="42.97381" lon="2.3993">
        <ele>652</ele>
        <time>2018-05-21T06:53:11Z</time>
      </trkpt>
      <trkpt lat="42.97372" lon="2.40026">
        <ele>654</ele>
        <time>2018-05-21T06:53:42Z</time>
      </trkpt>
      <trkpt lat="42.9737" lon="2.4009">
        <ele>654</ele>
        <time>2018-05-21T06:54:02Z</time>
      </trkpt>
      <trkpt lat="42.97355" lon="2.40116">
        <ele>664</ele>
        <time>2018-05-21T06:57:11Z</time>
      </trkpt>
      <trkpt lat="42.9735" lon="2.40148">
        <ele>659</ele>
        <time>2018-05-21T06:57:21Z</time>
      </trkpt>
      <trkpt lat="42.97349" lon="2.40181">
        <ele>661</ele>
        <time>2018-05-21T06:57:34Z</time>
      </trkpt>
      <trkpt lat="42.97369" lon="2.40199">
        <ele>659</ele>
        <time>2018-05-21T06:57:48Z</time>
      </trkpt>
      <trkpt lat="42.97393" lon="2.402">
        <ele>658</ele>
        <time>2018-05-21T06:57:58Z</time>
      </trkpt>
      <trkpt lat="42.97416" lon="2.4021">
        <ele>658</ele>
        <time>2018-05-21T06:58:08Z</time>
      </trkpt>
      <trkpt lat="42.97452" lon="2.40248">
        <ele>658</ele>
        <time>2018-05-21T06:58:29Z</time>
      </trkpt>
      <trkpt lat="42.97474" lon="2.4024">
        <ele>657</ele>
        <time>2018-05-21T06:58:40Z</time>
      </trkpt>
      <trkpt lat="42.97492" lon="2.4022">
        <ele>654</ele>
        <time>2018-05-21T06:58:52Z</time>
      </trkpt>
      <trkpt lat="42.97506" lon="2.40246">
        <ele>654</ele>
        <time>2018-05-21T06:59:06Z</time>
      </trkpt>
      <trkpt lat="42.97498" lon="2.40276">
        <ele>654</ele>
        <time>2018-05-21T06:59:17Z</time>
      </trkpt>
      <trkpt lat="42.9745" lon="2.40349">
        <ele>657</ele>
        <time>2018-05-21T06:59:50Z</time>
      </trkpt>
      <trkpt lat="42.9743" lon="2.40407">
        <ele>657</ele>
        <time>2018-05-21T07:00:24Z</time>
      </trkpt>
      <trkpt lat="42.97419" lon="2.40434">
        <ele>659</ele>
        <time>2018-05-21T07:00:41Z</time>
      </trkpt>
      <trkpt lat="42.97427" lon="2.40464">
        <ele>662</ele>
        <time>2018-05-21T07:00:54Z</time>
      </trkpt>
      <trkpt lat="42.97452" lon="2.4047">
        <ele>673</ele>
        <time>2018-05-21T07:02:26Z</time>
      </trkpt>
      <trkpt lat="42.97475" lon="2.40461">
        <ele>680</ele>
        <time>2018-05-21T07:07:24Z</time>
      </trkpt>
      <trkpt lat="42.97521" lon="2.40451">
        <ele>681</ele>
        <time>2018-05-21T07:07:44Z</time>
      </trkpt>
      <trkpt lat="42.97544" lon="2.40463">
        <ele>679</ele>
        <time>2018-05-21T07:07:56Z</time>
      </trkpt>
      <trkpt lat="42.97546" lon="2.40494">
        <ele>679</ele>
        <time>2018-05-21T07:08:35Z</time>
      </trkpt>
      <trkpt lat="42.97549" lon="2.40525">
        <ele>679</ele>
        <time>2018-05-21T07:09:13Z</time>
      </trkpt>
      <trkpt lat="42.9757" lon="2.4054">
        <ele>680</ele>
        <time>2018-05-21T07:09:29Z</time>
      </trkpt>
      <trkpt lat="42.97586" lon="2.40565">
        <ele>680</ele>
        <time>2018-05-21T07:09:43Z</time>
      </trkpt>
      <trkpt lat="42.97582" lon="2.40629">
        <ele>684</ele>
        <time>2018-05-21T07:10:06Z</time>
      </trkpt>
      <trkpt lat="42.97588" lon="2.40661">
        <ele>685</ele>
        <time>2018-05-21T07:10:16Z</time>
      </trkpt>
      <trkpt lat="42.97605" lon="2.40684">
        <ele>686</ele>
        <time>2018-05-21T07:10:27Z</time>
      </trkpt>
      <trkpt lat="42.97627" lon="2.40698">
        <ele>687</ele>
        <time>2018-05-21T07:10:38Z</time>
      </trkpt>
      <trkpt lat="42.97651" lon="2.40704">
        <ele>687</ele>
        <time>2018-05-21T07:10:48Z</time>
      </trkpt>
      <trkpt lat="42.97694" lon="2.4068">
        <ele>689</ele>
        <time>2018-05-21T07:11:11Z</time>
      </trkpt>
      <trkpt lat="42.97711" lon="2.40659">
        <ele>689</ele>
        <time>2018-05-21T07:11:21Z</time>
      </trkpt>
      <trkpt lat="42.97748" lon="2.40573">
        <ele>692</ele>
        <time>2018-05-21T07:11:52Z</time>
      </trkpt>
      <trkpt lat="42.97771" lon="2.40448">
        <ele>693</ele>
        <time>2018-05-21T07:12:29Z</time>
      </trkpt>
      <trkpt lat="42.97778" lon="2.40418">
        <ele>694</ele>
        <time>2018-05-21T07:12:43Z</time>
      </trkpt>
      <trkpt lat="42.97793" lon="2.40393">
        <ele>696</ele>
        <time>2018-05-21T07:12:52Z</time>
      </trkpt>
      <trkpt lat="42.97816" lon="2.40382">
        <ele>697</ele>
        <time>2018-05-21T07:13:01Z</time>
      </trkpt>
      <trkpt lat="42.9786" lon="2.40408">
        <ele>698</ele>
        <time>2018-05-21T07:13:19Z</time>
      </trkpt>
      <trkpt lat="42.97872" lon="2.40434">
        <ele>700</ele>
        <time>2018-05-21T07:13:25Z</time>
      </trkpt>
      <trkpt lat="42.97875" lon="2.40467">
        <ele>701</ele>
        <time>2018-05-21T07:13:32Z</time>
      </trkpt>
      <trkpt lat="42.97871" lon="2.40497">
        <ele>703</ele>
        <time>2018-05-21T07:13:38Z</time>
      </trkpt>
      <trkpt lat="42.9786" lon="2.40526">
        <ele>706</ele>
        <time>2018-05-21T07:13:45Z</time>
      </trkpt>
      <trkpt lat="42.97882" lon="2.40585">
        <ele>706</ele>
        <time>2018-05-21T07:14:01Z</time>
      </trkpt>
      <trkpt lat="42.97901" lon="2.40606">
        <ele>706</ele>
        <time>2018-05-21T07:14:07Z</time>
      </trkpt>
      <trkpt lat="42.97924" lon="2.40616">
        <ele>706</ele>
        <time>2018-05-21T07:14:13Z</time>
      </trkpt>
      <trkpt lat="42.97945" lon="2.40628">
        <ele>707</ele>
        <time>2018-05-21T07:14:20Z</time>
      </trkpt>
      <trkpt lat="42.97951" lon="2.40658">
        <ele>708</ele>
        <time>2018-05-21T07:14:27Z</time>
      </trkpt>
      <trkpt lat="42.9794" lon="2.40686">
        <ele>709</ele>
        <time>2018-05-21T07:14:32Z</time>
      </trkpt>
      <trkpt lat="42.97938" lon="2.40749">
        <ele>710</ele>
        <time>2018-05-21T07:14:44Z</time>
      </trkpt>
      <trkpt lat="42.97936" lon="2.40781">
        <ele>710</ele>
        <time>2018-05-21T07:14:50Z</time>
      </trkpt>
      <trkpt lat="42.97916" lon="2.40799">
        <ele>711</ele>
        <time>2018-05-21T07:14:56Z</time>
      </trkpt>
      <trkpt lat="42.97894" lon="2.40783">
        <ele>712</ele>
        <time>2018-05-21T07:15:01Z</time>
      </trkpt>
      <trkpt lat="42.97871" lon="2.40783">
        <ele>713</ele>
        <time>2018-05-21T07:15:07Z</time>
      </trkpt>
      <trkpt lat="42.9785" lon="2.40796">
        <ele>713</ele>
        <time>2018-05-21T07:15:13Z</time>
      </trkpt>
      <trkpt lat="42.97835" lon="2.4082">
        <ele>714</ele>
        <time>2018-05-21T07:15:19Z</time>
      </trkpt>
      <trkpt lat="42.97822" lon="2.40849">
        <ele>715</ele>
        <time>2018-05-21T07:15:26Z</time>
      </trkpt>
      <trkpt lat="42.97818" lon="2.40884">
        <ele>716</ele>
        <time>2018-05-21T07:15:33Z</time>
      </trkpt>
      <trkpt lat="42.97822" lon="2.40916">
        <ele>717</ele>
        <time>2018-05-21T07:15:39Z</time>
      </trkpt>
      <trkpt lat="42.97837" lon="2.40945">
        <ele>718</ele>
        <time>2018-05-21T07:15:46Z</time>
      </trkpt>
      <trkpt lat="42.97857" lon="2.40959">
        <ele>718</ele>
        <time>2018-05-21T07:15:53Z</time>
      </trkpt>
      <trkpt lat="42.97882" lon="2.40949">
        <ele>717</ele>
        <time>2018-05-21T07:16:00Z</time>
      </trkpt>
      <trkpt lat="42.97905" lon="2.40957">
        <ele>717</ele>
        <time>2018-05-21T07:16:07Z</time>
      </trkpt>
      <trkpt lat="42.97931" lon="2.40961">
        <ele>717</ele>
        <time>2018-05-21T07:16:15Z</time>
      </trkpt>
      <trkpt lat="42.98021" lon="2.40918">
        <ele>718</ele>
        <time>2018-05-21T07:16:45Z</time>
      </trkpt>
      <trkpt lat="42.98043" lon="2.40919">
        <ele>718</ele>
        <time>2018-05-21T07:16:52Z</time>
      </trkpt>
      <trkpt lat="42.98066" lon="2.40932">
        <ele>718</ele>
        <time>2018-05-21T07:16:59Z</time>
      </trkpt>
      <trkpt lat="42.98077" lon="2.4096">
        <ele>719</ele>
        <time>2018-05-21T07:17:05Z</time>
      </trkpt>
      <trkpt lat="42.98071" lon="2.40994">
        <ele>719</ele>
        <time>2018-05-21T07:17:11Z</time>
      </trkpt>
      <trkpt lat="42.9804" lon="2.41041">
        <ele>719</ele>
        <time>2018-05-21T07:17:22Z</time>
      </trkpt>
      <trkpt lat="42.9796" lon="2.41122">
        <ele>722</ele>
        <time>2018-05-21T07:17:49Z</time>
      </trkpt>
      <trkpt lat="42.97942" lon="2.41141">
        <ele>726</ele>
        <time>2018-05-21T07:18:52Z</time>
      </trkpt>
      <trkpt lat="42.9793" lon="2.41171">
        <ele>726</ele>
        <time>2018-05-21T07:18:59Z</time>
      </trkpt>
      <trkpt lat="42.97925" lon="2.41203">
        <ele>726</ele>
        <time>2018-05-21T07:19:05Z</time>
      </trkpt>
      <trkpt lat="42.97933" lon="2.41237">
        <ele>726</ele>
        <time>2018-05-21T07:19:12Z</time>
      </trkpt>
      <trkpt lat="42.97954" lon="2.41252">
        <ele>725</ele>
        <time>2018-05-21T07:19:18Z</time>
      </trkpt>
      <trkpt lat="42.98032" lon="2.41234">
        <ele>724</ele>
        <time>2018-05-21T07:19:31Z</time>
      </trkpt>
      <trkpt lat="42.98098" lon="2.4118">
        <ele>721</ele>
        <time>2018-05-21T07:19:42Z</time>
      </trkpt>
      <trkpt lat="42.98117" lon="2.41163">
        <ele>717</ele>
        <time>2018-05-21T07:19:46Z</time>
      </trkpt>
      <trkpt lat="42.98139" lon="2.4116">
        <ele>716</ele>
        <time>2018-05-21T07:19:50Z</time>
      </trkpt>
      <trkpt lat="42.98162" lon="2.41171">
        <ele>716</ele>
        <time>2018-05-21T07:19:55Z</time>
      </trkpt>
      <trkpt lat="42.9816" lon="2.41268">
        <ele>715</ele>
        <time>2018-05-21T07:20:25Z</time>
      </trkpt>
      <trkpt lat="42.98154" lon="2.41299">
        <ele>715</ele>
        <time>2018-05-21T07:20:36Z</time>
      </trkpt>
      <trkpt lat="42.98149" lon="2.41331">
        <ele>715</ele>
        <time>2018-05-21T07:20:48Z</time>
      </trkpt>
      <trkpt lat="42.98159" lon="2.41395">
        <ele>718</ele>
        <time>2018-05-21T07:21:11Z</time>
      </trkpt>
      <trkpt lat="42.98156" lon="2.41427">
        <ele>720</ele>
        <time>2018-05-21T07:21:22Z</time>
      </trkpt>
      <trkpt lat="42.98147" lon="2.41456">
        <ele>721</ele>
        <time>2018-05-21T07:21:33Z</time>
      </trkpt>
      <trkpt lat="42.98151" lon="2.41488">
        <ele>723</ele>
        <time>2018-05-21T07:21:43Z</time>
      </trkpt>
      <trkpt lat="42.98175" lon="2.4149">
        <ele>725</ele>
        <time>2018-05-21T07:21:55Z</time>
      </trkpt>
      <trkpt lat="42.98207" lon="2.41435">
        <ele>729</ele>
        <time>2018-05-21T07:22:30Z</time>
      </trkpt>
      <trkpt lat="42.98232" lon="2.41421">
        <ele>730</ele>
        <time>2018-05-21T07:22:36Z</time>
      </trkpt>
      <trkpt lat="42.98279" lon="2.41424">
        <ele>731</ele>
        <time>2018-05-21T07:22:43Z</time>
      </trkpt>
      <trkpt lat="42.98303" lon="2.41428">
        <ele>731</ele>
        <time>2018-05-21T07:22:47Z</time>
      </trkpt>
      <trkpt lat="42.98324" lon="2.41446">
        <ele>730</ele>
        <time>2018-05-21T07:22:51Z</time>
      </trkpt>
      <trkpt lat="42.98341" lon="2.41477">
        <ele>730</ele>
        <time>2018-05-21T07:22:55Z</time>
      </trkpt>
      <trkpt lat="42.98342" lon="2.41514">
        <ele>729</ele>
        <time>2018-05-21T07:22:59Z</time>
      </trkpt>
      <trkpt lat="42.98302" lon="2.41606">
        <ele>726</ele>
        <time>2018-05-21T07:23:10Z</time>
      </trkpt>
      <trkpt lat="42.98285" lon="2.41637">
        <ele>725</ele>
        <time>2018-05-21T07:23:14Z</time>
      </trkpt>
      <trkpt lat="42.98266" lon="2.41668">
        <ele>724</ele>
        <time>2018-05-21T07:23:18Z</time>
      </trkpt>
      <trkpt lat="42.98255" lon="2.41743">
        <ele>721</ele>
        <time>2018-05-21T07:23:26Z</time>
      </trkpt>
      <trkpt lat="42.98287" lon="2.41951">
        <ele>713</ele>
        <time>2018-05-21T07:23:49Z</time>
      </trkpt>
      <trkpt lat="42.98311" lon="2.41973">
        <ele>712</ele>
        <time>2018-05-21T07:23:53Z</time>
      </trkpt>
      <trkpt lat="42.98331" lon="2.41956">
        <ele>711</ele>
        <time>2018-05-21T07:23:56Z</time>
      </trkpt>
      <trkpt lat="42.98347" lon="2.41922">
        <ele>710</ele>
        <time>2018-05-21T07:24:00Z</time>
      </trkpt>
      <trkpt lat="42.98357" lon="2.41889">
        <ele>710</ele>
        <time>2018-05-21T07:24:04Z</time>
      </trkpt>
      <trkpt lat="42.98368" lon="2.41857">
        <ele>709</ele>
        <time>2018-05-21T07:24:08Z</time>
      </trkpt>
      <trkpt lat="42.98392" lon="2.41834">
        <ele>707</ele>
        <time>2018-05-21T07:24:12Z</time>
      </trkpt>
      <trkpt lat="42.98445" lon="2.41844">
        <ele>705</ele>
        <time>2018-05-21T07:24:20Z</time>
      </trkpt>
      <trkpt lat="42.98472" lon="2.41836">
        <ele>704</ele>
        <time>2018-05-21T07:24:24Z</time>
      </trkpt>
      <trkpt lat="42.98496" lon="2.41838">
        <ele>703</ele>
        <time>2018-05-21T07:24:27Z</time>
      </trkpt>
      <trkpt lat="42.98514" lon="2.41859">
        <ele>702</ele>
        <time>2018-05-21T07:24:30Z</time>
      </trkpt>
      <trkpt lat="42.98522" lon="2.41888">
        <ele>701</ele>
        <time>2018-05-21T07:24:33Z</time>
      </trkpt>
      <trkpt lat="42.98514" lon="2.41994">
        <ele>699</ele>
        <time>2018-05-21T07:24:44Z</time>
      </trkpt>
      <trkpt lat="42.98572" lon="2.42068">
        <ele>698</ele>
        <time>2018-05-21T07:24:55Z</time>
      </trkpt>
      <trkpt lat="42.98582" lon="2.42096">
        <ele>697</ele>
        <time>2018-05-21T07:24:58Z</time>
      </trkpt>
      <trkpt lat="42.98568" lon="2.42157">
        <ele>696</ele>
        <time>2018-05-21T07:25:04Z</time>
      </trkpt>
      <trkpt lat="42.98574" lon="2.42192">
        <ele>695</ele>
        <time>2018-05-21T07:25:08Z</time>
      </trkpt>
      <trkpt lat="42.98594" lon="2.42223">
        <ele>694</ele>
        <time>2018-05-21T07:25:12Z</time>
      </trkpt>
      <trkpt lat="42.98604" lon="2.42261">
        <ele>692</ele>
        <time>2018-05-21T07:25:16Z</time>
      </trkpt>
      <trkpt lat="42.98595" lon="2.42292">
        <ele>691</ele>
        <time>2018-05-21T07:25:20Z</time>
      </trkpt>
      <trkpt lat="42.98572" lon="2.42299">
        <ele>690</ele>
        <time>2018-05-21T07:25:28Z</time>
      </trkpt>
      <trkpt lat="42.98559" lon="2.42326">
        <ele>688</ele>
        <time>2018-05-21T07:25:38Z</time>
      </trkpt>
      <trkpt lat="42.98555" lon="2.42422">
        <ele>685</ele>
        <time>2018-05-21T07:26:15Z</time>
      </trkpt>
      <trkpt lat="42.98555" lon="2.42455">
        <ele>685</ele>
        <time>2018-05-21T07:26:27Z</time>
      </trkpt>
      <trkpt lat="42.98559" lon="2.42487">
        <ele>685</ele>
        <time>2018-05-21T07:26:39Z</time>
      </trkpt>
      <trkpt lat="42.98551" lon="2.42517">
        <ele>686</ele>
        <time>2018-05-21T07:26:52Z</time>
      </trkpt>
      <trkpt lat="42.98551" lon="2.42548">
        <ele>687</ele>
        <time>2018-05-21T07:27:06Z</time>
      </trkpt>
      <trkpt lat="42.98532" lon="2.42639">
        <ele>691</ele>
        <time>2018-05-21T07:27:43Z</time>
      </trkpt>
      <trkpt lat="42.98527" lon="2.42702">
        <ele>694</ele>
        <time>2018-05-21T07:28:08Z</time>
      </trkpt>
      <trkpt lat="42.98545" lon="2.42796">
        <ele>700</ele>
        <time>2018-05-21T07:28:42Z</time>
      </trkpt>
      <trkpt lat="42.98542" lon="2.42861">
        <ele>703</ele>
        <time>2018-05-21T07:29:08Z</time>
      </trkpt>
      <trkpt lat="42.98549" lon="2.42891">
        <ele>706</ele>
        <time>2018-05-21T07:29:20Z</time>
      </trkpt>
      <trkpt lat="42.98565" lon="2.42912">
        <ele>708</ele>
        <time>2018-05-21T07:29:33Z</time>
      </trkpt>
      <trkpt lat="42.98588" lon="2.4291">
        <ele>710</ele>
        <time>2018-05-21T07:31:48Z</time>
      </trkpt>
      <trkpt lat="42.9861" lon="2.42921">
        <ele>712</ele>
        <time>2018-05-21T07:31:55Z</time>
      </trkpt>
      <trkpt lat="42.98629" lon="2.42943">
        <ele>712</ele>
        <time>2018-05-21T07:32:01Z</time>
      </trkpt>
      <trkpt lat="42.98635" lon="2.42977">
        <ele>712</ele>
        <time>2018-05-21T07:32:05Z</time>
      </trkpt>
      <trkpt lat="42.98629" lon="2.43009">
        <ele>712</ele>
        <time>2018-05-21T07:32:09Z</time>
      </trkpt>
      <trkpt lat="42.9862" lon="2.43038">
        <ele>712</ele>
        <time>2018-05-21T07:32:13Z</time>
      </trkpt>
      <trkpt lat="42.98613" lon="2.43071">
        <ele>711</ele>
        <time>2018-05-21T07:32:17Z</time>
      </trkpt>
      <trkpt lat="42.98618" lon="2.43104">
        <ele>711</ele>
        <time>2018-05-21T07:32:21Z</time>
      </trkpt>
      <trkpt lat="42.98636" lon="2.43128">
        <ele>710</ele>
        <time>2018-05-21T07:32:25Z</time>
      </trkpt>
      <trkpt lat="42.9865" lon="2.43159">
        <ele>709</ele>
        <time>2018-05-21T07:32:29Z</time>
      </trkpt>
      <trkpt lat="42.98645" lon="2.43253">
        <ele>706</ele>
        <time>2018-05-21T07:32:38Z</time>
      </trkpt>
      <trkpt lat="42.98652" lon="2.43289">
        <ele>705</ele>
        <time>2018-05-21T07:32:42Z</time>
      </trkpt>
      <trkpt lat="42.98633" lon="2.43304">
        <ele>704</ele>
        <time>2018-05-21T07:32:46Z</time>
      </trkpt>
      <trkpt lat="42.98619" lon="2.43273">
        <ele>703</ele>
        <time>2018-05-21T07:32:49Z</time>
      </trkpt>
      <trkpt lat="42.98615" lon="2.43239">
        <ele>700</ele>
        <time>2018-05-21T07:32:53Z</time>
      </trkpt>
      <trkpt lat="42.98613" lon="2.43206">
        <ele>699</ele>
        <time>2018-05-21T07:32:57Z</time>
      </trkpt>
      <trkpt lat="42.98592" lon="2.43221">
        <ele>698</ele>
        <time>2018-05-21T07:32:58Z</time>
      </trkpt>
      <trkpt lat="42.98569" lon="2.4323">
        <ele>698</ele>
        <time>2018-05-21T07:33:03Z</time>
      </trkpt>
      <trkpt lat="42.98494" lon="2.43312">
        <ele>696</ele>
        <time>2018-05-21T07:33:42Z</time>
      </trkpt>
      <trkpt lat="42.98481" lon="2.43338">
        <ele>695</ele>
        <time>2018-05-21T07:33:53Z</time>
      </trkpt>
      <trkpt lat="42.98498" lon="2.43315">
        <ele>698</ele>
        <time>2018-05-21T07:38:21Z</time>
      </trkpt>
      <trkpt lat="42.98516" lon="2.43293">
        <ele>694</ele>
        <time>2018-05-21T07:38:26Z</time>
      </trkpt>
      <trkpt lat="42.98575" lon="2.4323">
        <ele>692</ele>
        <time>2018-05-21T07:38:38Z</time>
      </trkpt>
      <trkpt lat="42.98597" lon="2.43217">
        <ele>692</ele>
        <time>2018-05-21T07:38:43Z</time>
      </trkpt>
      <trkpt lat="42.98573" lon="2.43213">
        <ele>692</ele>
        <time>2018-05-21T07:38:48Z</time>
      </trkpt>
      <trkpt lat="42.98483" lon="2.43278">
        <ele>690</ele>
        <time>2018-05-21T07:39:04Z</time>
      </trkpt>
      <trkpt lat="42.98463" lon="2.43299">
        <ele>689</ele>
        <time>2018-05-21T07:39:07Z</time>
      </trkpt>
      <trkpt lat="42.98444" lon="2.43328">
        <ele>688</ele>
        <time>2018-05-21T07:39:11Z</time>
      </trkpt>
      <trkpt lat="42.98432" lon="2.43356">
        <ele>687</ele>
        <time>2018-05-21T07:39:14Z</time>
      </trkpt>
      <trkpt lat="42.98428" lon="2.43392">
        <ele>686</ele>
        <time>2018-05-21T07:39:17Z</time>
      </trkpt>
      <trkpt lat="42.98418" lon="2.43425">
        <ele>685</ele>
        <time>2018-05-21T07:39:20Z</time>
      </trkpt>
      <trkpt lat="42.98391" lon="2.43421">
        <ele>684</ele>
        <time>2018-05-21T07:39:23Z</time>
      </trkpt>
      <trkpt lat="42.98341" lon="2.434">
        <ele>679</ele>
        <time>2018-05-21T07:39:29Z</time>
      </trkpt>
      <trkpt lat="42.98287" lon="2.43399">
        <ele>673</ele>
        <time>2018-05-21T07:39:36Z</time>
      </trkpt>
      <trkpt lat="42.98262" lon="2.43401">
        <ele>661</ele>
        <time>2018-05-21T07:42:25Z</time>
      </trkpt>
      <trkpt lat="42.98236" lon="2.4341">
        <ele>656</ele>
        <time>2018-05-21T07:42:32Z</time>
      </trkpt>
      <trkpt lat="42.98171" lon="2.43461">
        <ele>654</ele>
        <time>2018-05-21T07:42:43Z</time>
      </trkpt>
      <trkpt lat="42.98155" lon="2.43496">
        <ele>654</ele>
        <time>2018-05-21T07:42:47Z</time>
      </trkpt>
      <trkpt lat="42.98142" lon="2.43567">
        <ele>653</ele>
        <time>2018-05-21T07:42:54Z</time>
      </trkpt>
      <trkpt lat="42.98113" lon="2.43565">
        <ele>652</ele>
        <time>2018-05-21T07:42:59Z</time>
      </trkpt>
      <trkpt lat="42.98069" lon="2.43538">
        <ele>650</ele>
        <time>2018-05-21T07:43:06Z</time>
      </trkpt>
      <trkpt lat="42.98015" lon="2.43541">
        <ele>647</ele>
        <time>2018-05-21T07:43:13Z</time>
      </trkpt>
      <trkpt lat="42.97968" lon="2.43579">
        <ele>645</ele>
        <time>2018-05-21T07:43:19Z</time>
      </trkpt>
      <trkpt lat="42.97951" lon="2.43608">
        <ele>644</ele>
        <time>2018-05-21T07:43:22Z</time>
      </trkpt>
      <trkpt lat="42.97952" lon="2.43645">
        <ele>644</ele>
        <time>2018-05-21T07:43:25Z</time>
      </trkpt>
      <trkpt lat="42.97939" lon="2.43676">
        <ele>643</ele>
        <time>2018-05-21T07:43:29Z</time>
      </trkpt>
      <trkpt lat="42.97918" lon="2.43651">
        <ele>642</ele>
        <time>2018-05-21T07:43:33Z</time>
      </trkpt>
      <trkpt lat="42.97864" lon="2.43524">
        <ele>638</ele>
        <time>2018-05-21T07:43:45Z</time>
      </trkpt>
      <trkpt lat="42.97811" lon="2.43486">
        <ele>636</ele>
        <time>2018-05-21T07:43:51Z</time>
      </trkpt>
      <trkpt lat="42.97785" lon="2.43487">
        <ele>635</ele>
        <time>2018-05-21T07:43:54Z</time>
      </trkpt>
      <trkpt lat="42.97732" lon="2.4351">
        <ele>631</ele>
        <time>2018-05-21T07:44:00Z</time>
      </trkpt>
      <trkpt lat="42.97653" lon="2.43562">
        <ele>625</ele>
        <time>2018-05-21T07:44:09Z</time>
      </trkpt>
      <trkpt lat="42.97633" lon="2.43587">
        <ele>623</ele>
        <time>2018-05-21T07:44:12Z</time>
      </trkpt>
      <trkpt lat="42.97634" lon="2.43629">
        <ele>623</ele>
        <time>2018-05-21T07:44:15Z</time>
      </trkpt>
      <trkpt lat="42.97649" lon="2.43743">
        <ele>621</ele>
        <time>2018-05-21T07:44:24Z</time>
      </trkpt>
      <trkpt lat="42.97639" lon="2.43775">
        <ele>620</ele>
        <time>2018-05-21T07:44:28Z</time>
      </trkpt>
      <trkpt lat="42.97545" lon="2.43667">
        <ele>616</ele>
        <time>2018-05-21T07:44:42Z</time>
      </trkpt>
      <trkpt lat="42.97522" lon="2.43652">
        <ele>614</ele>
        <time>2018-05-21T07:44:45Z</time>
      </trkpt>
      <trkpt lat="42.97496" lon="2.43651">
        <ele>612</ele>
        <time>2018-05-21T07:44:48Z</time>
      </trkpt>
      <trkpt lat="42.97446" lon="2.43676">
        <ele>608</ele>
        <time>2018-05-21T07:44:54Z</time>
      </trkpt>
      <trkpt lat="42.97248" lon="2.43855">
        <ele>588</ele>
        <time>2018-05-21T07:45:21Z</time>
      </trkpt>
      <trkpt lat="42.97169" lon="2.43994">
        <ele>584</ele>
        <time>2018-05-21T07:45:36Z</time>
      </trkpt>
      <trkpt lat="42.97172" lon="2.44032">
        <ele>584</ele>
        <time>2018-05-21T07:45:39Z</time>
      </trkpt>
      <trkpt lat="42.97167" lon="2.44065">
        <ele>584</ele>
        <time>2018-05-21T07:45:42Z</time>
      </trkpt>
      <trkpt lat="42.97138" lon="2.44115">
        <ele>583</ele>
        <time>2018-05-21T07:45:48Z</time>
      </trkpt>
      <trkpt lat="42.97114" lon="2.44114">
        <ele>582</ele>
        <time>2018-05-21T07:45:52Z</time>
      </trkpt>
      <trkpt lat="42.97096" lon="2.44009">
        <ele>579</ele>
        <time>2018-05-21T07:46:02Z</time>
      </trkpt>
      <trkpt lat="42.97083" lon="2.4397">
        <ele>577</ele>
        <time>2018-05-21T07:46:06Z</time>
      </trkpt>
      <trkpt lat="42.96991" lon="2.43888">
        <ele>569</ele>
        <time>2018-05-21T07:46:18Z</time>
      </trkpt>
      <trkpt lat="42.96965" lon="2.43883">
        <ele>567</ele>
        <time>2018-05-21T07:46:21Z</time>
      </trkpt>
      <trkpt lat="42.96909" lon="2.43905">
        <ele>562</ele>
        <time>2018-05-21T07:46:27Z</time>
      </trkpt>
      <trkpt lat="42.96835" lon="2.43957">
        <ele>555</ele>
        <time>2018-05-21T07:46:36Z</time>
      </trkpt>
      <trkpt lat="42.96789" lon="2.44001">
        <ele>552</ele>
        <time>2018-05-21T07:46:42Z</time>
      </trkpt>
      <trkpt lat="42.96672" lon="2.44166">
        <ele>542</ele>
        <time>2018-05-21T07:47:00Z</time>
      </trkpt>
      <trkpt lat="42.96667" lon="2.44202">
        <ele>540</ele>
        <time>2018-05-21T07:47:03Z</time>
      </trkpt>
      <trkpt lat="42.96677" lon="2.44237">
        <ele>538</ele>
        <time>2018-05-21T07:47:06Z</time>
      </trkpt>
      <trkpt lat="42.96673" lon="2.44269">
        <ele>537</ele>
        <time>2018-05-21T07:47:10Z</time>
      </trkpt>
      <trkpt lat="42.96464" lon="2.44521">
        <ele>525</ele>
        <time>2018-05-21T07:47:41Z</time>
      </trkpt>
      <trkpt lat="42.96447" lon="2.44549">
        <ele>523</ele>
        <time>2018-05-21T07:47:44Z</time>
      </trkpt>
      <trkpt lat="42.96388" lon="2.44774">
        <ele>517</ele>
        <time>2018-05-21T07:48:06Z</time>
      </trkpt>
      <trkpt lat="42.9639" lon="2.44886">
        <ele>517</ele>
        <time>2018-05-21T07:48:17Z</time>
      </trkpt>
      <trkpt lat="42.96373" lon="2.44962">
        <ele>515</ele>
        <time>2018-05-21T07:48:25Z</time>
      </trkpt>
      <trkpt lat="42.96365" lon="2.44996">
        <ele>514</ele>
        <time>2018-05-21T07:48:29Z</time>
      </trkpt>
      <trkpt lat="42.96367" lon="2.45069">
        <ele>510</ele>
        <time>2018-05-21T07:48:37Z</time>
      </trkpt>
      <trkpt lat="42.96359" lon="2.45104">
        <ele>509</ele>
        <time>2018-05-21T07:48:42Z</time>
      </trkpt>
      <trkpt lat="42.96325" lon="2.4515">
        <ele>506</ele>
        <time>2018-05-21T07:48:50Z</time>
      </trkpt>
      <trkpt lat="42.96287" lon="2.45243">
        <ele>503</ele>
        <time>2018-05-21T07:49:01Z</time>
      </trkpt>
      <trkpt lat="42.96298" lon="2.45277">
        <ele>502</ele>
        <time>2018-05-21T07:49:06Z</time>
      </trkpt>
      <trkpt lat="42.96276" lon="2.4556">
        <ele>497</ele>
        <time>2018-05-21T07:49:37Z</time>
      </trkpt>
      <trkpt lat="42.96282" lon="2.4563">
        <ele>496</ele>
        <time>2018-05-21T07:49:45Z</time>
      </trkpt>
      <trkpt lat="42.96293" lon="2.45663">
        <ele>495</ele>
        <time>2018-05-21T07:49:49Z</time>
      </trkpt>
      <trkpt lat="42.96309" lon="2.45689">
        <ele>493</ele>
        <time>2018-05-21T07:49:53Z</time>
      </trkpt>
      <trkpt lat="42.96396" lon="2.4574">
        <ele>487</ele>
        <time>2018-05-21T07:50:09Z</time>
      </trkpt>
      <trkpt lat="42.96417" lon="2.45757">
        <ele>486</ele>
        <time>2018-05-21T07:50:13Z</time>
      </trkpt>
      <trkpt lat="42.96432" lon="2.45785">
        <ele>485</ele>
        <time>2018-05-21T07:50:17Z</time>
      </trkpt>
      <trkpt lat="42.96418" lon="2.45922">
        <ele>483</ele>
        <time>2018-05-21T07:50:31Z</time>
      </trkpt>
      <trkpt lat="42.96456" lon="2.46011">
        <ele>479</ele>
        <time>2018-05-21T07:50:42Z</time>
      </trkpt>
      <trkpt lat="42.96459" lon="2.46043">
        <ele>478</ele>
        <time>2018-05-21T07:50:45Z</time>
      </trkpt>
      <trkpt lat="42.9645" lon="2.46104">
        <ele>475</ele>
        <time>2018-05-21T07:50:51Z</time>
      </trkpt>
      <trkpt lat="42.96433" lon="2.4613">
        <ele>474</ele>
        <time>2018-05-21T07:50:54Z</time>
      </trkpt>
      <trkpt lat="42.96377" lon="2.46141">
        <ele>472</ele>
        <time>2018-05-21T07:51:00Z</time>
      </trkpt>
      <trkpt lat="42.96352" lon="2.46235">
        <ele>468</ele>
        <time>2018-05-21T07:51:11Z</time>
      </trkpt>
      <trkpt lat="42.96344" lon="2.46375">
        <ele>463</ele>
        <time>2018-05-21T07:51:25Z</time>
      </trkpt>
      <trkpt lat="42.9633" lon="2.46439">
        <ele>461</ele>
        <time>2018-05-21T07:51:32Z</time>
      </trkpt>
      <trkpt lat="42.96318" lon="2.46473">
        <ele>461</ele>
        <time>2018-05-21T07:51:35Z</time>
      </trkpt>
      <trkpt lat="42.96327" lon="2.46502">
        <ele>462</ele>
        <time>2018-05-21T07:51:38Z</time>
      </trkpt>
      <trkpt lat="42.9632" lon="2.46537">
        <ele>462</ele>
        <time>2018-05-21T07:51:42Z</time>
      </trkpt>
      <trkpt lat="42.96287" lon="2.46605">
        <ele>461</ele>
        <time>2018-05-21T07:51:50Z</time>
      </trkpt>
      <trkpt lat="42.96267" lon="2.46675">
        <ele>459</ele>
        <time>2018-05-21T07:51:58Z</time>
      </trkpt>
      <trkpt lat="42.96219" lon="2.46744">
        <ele>457</ele>
        <time>2018-05-21T07:52:07Z</time>
      </trkpt>
      <trkpt lat="42.96172" lon="2.46913">
        <ele>452</ele>
        <time>2018-05-21T07:52:25Z</time>
      </trkpt>
      <trkpt lat="42.96162" lon="2.4699">
        <ele>450</ele>
        <time>2018-05-21T07:52:33Z</time>
      </trkpt>
      <trkpt lat="42.96132" lon="2.4708">
        <ele>448</ele>
        <time>2018-05-21T07:52:42Z</time>
      </trkpt>
      <trkpt lat="42.96127" lon="2.47114">
        <ele>447</ele>
        <time>2018-05-21T07:52:45Z</time>
      </trkpt>
      <trkpt lat="42.96085" lon="2.47193">
        <ele>443</ele>
        <time>2018-05-21T07:52:54Z</time>
      </trkpt>
      <trkpt lat="42.96068" lon="2.47215">
        <ele>440</ele>
        <time>2018-05-21T07:52:57Z</time>
      </trkpt>
      <trkpt lat="42.96043" lon="2.47229">
        <ele>437</ele>
        <time>2018-05-21T07:53:01Z</time>
      </trkpt>
      <trkpt lat="42.96019" lon="2.47224">
        <ele>434</ele>
        <time>2018-05-21T07:53:04Z</time>
      </trkpt>
      <trkpt lat="42.95998" lon="2.47212">
        <ele>433</ele>
        <time>2018-05-21T07:53:07Z</time>
      </trkpt>
      <trkpt lat="42.95978" lon="2.47233">
        <ele>432</ele>
        <time>2018-05-21T07:53:12Z</time>
      </trkpt>
      <trkpt lat="42.95985" lon="2.47269">
        <ele>430</ele>
        <time>2018-05-21T07:53:16Z</time>
      </trkpt>
      <trkpt lat="42.95979" lon="2.47308">
        <ele>429</ele>
        <time>2018-05-21T07:53:20Z</time>
      </trkpt>
      <trkpt lat="42.95881" lon="2.4743">
        <ele>425</ele>
        <time>2018-05-21T07:53:37Z</time>
      </trkpt>
      <trkpt lat="42.95867" lon="2.47464">
        <ele>424</ele>
        <time>2018-05-21T07:53:41Z</time>
      </trkpt>
      <trkpt lat="42.95844" lon="2.47528">
        <ele>423</ele>
        <time>2018-05-21T07:53:48Z</time>
      </trkpt>
      <trkpt lat="42.95826" lon="2.47549">
        <ele>421</ele>
        <time>2018-05-21T07:55:10Z</time>
      </trkpt>
      <trkpt lat="42.95817" lon="2.47583">
        <ele>423</ele>
        <time>2018-05-21T07:55:15Z</time>
      </trkpt>
      <trkpt lat="42.95813" lon="2.47614">
        <ele>423</ele>
        <time>2018-05-21T07:55:19Z</time>
      </trkpt>
      <trkpt lat="42.95798" lon="2.47643">
        <ele>422</ele>
        <time>2018-05-21T07:55:23Z</time>
      </trkpt>
      <trkpt lat="42.95791" lon="2.47674">
        <ele>421</ele>
        <time>2018-05-21T07:55:26Z</time>
      </trkpt>
      <trkpt lat="42.95737" lon="2.47755">
        <ele>422</ele>
        <time>2018-05-21T07:55:37Z</time>
      </trkpt>
      <trkpt lat="42.95699" lon="2.47952">
        <ele>412</ele>
        <time>2018-05-21T07:55:56Z</time>
      </trkpt>
      <trkpt lat="42.95689" lon="2.48018">
        <ele>408</ele>
        <time>2018-05-21T07:56:02Z</time>
      </trkpt>
      <trkpt lat="42.95652" lon="2.48151">
        <ele>404</ele>
        <time>2018-05-21T07:56:15Z</time>
      </trkpt>
      <trkpt lat="42.9562" lon="2.4822">
        <ele>402</ele>
        <time>2018-05-21T07:56:21Z</time>
      </trkpt>
      <trkpt lat="42.95629" lon="2.4829">
        <ele>398</ele>
        <time>2018-05-21T07:56:27Z</time>
      </trkpt>
      <trkpt lat="42.95619" lon="2.48331">
        <ele>396</ele>
        <time>2018-05-21T07:56:31Z</time>
      </trkpt>
      <trkpt lat="42.95608" lon="2.484">
        <ele>392</ele>
        <time>2018-05-21T07:56:37Z</time>
      </trkpt>
      <trkpt lat="42.95548" lon="2.48464">
        <ele>387</ele>
        <time>2018-05-21T07:56:48Z</time>
      </trkpt>
      <trkpt lat="42.95528" lon="2.48524">
        <ele>386</ele>
        <time>2018-05-21T08:00:17Z</time>
      </trkpt>
      <trkpt lat="42.95528" lon="2.4859">
        <ele>389</ele>
        <time>2018-05-21T08:00:27Z</time>
      </trkpt>
      <trkpt lat="42.95528" lon="2.48732">
        <ele>384</ele>
        <time>2018-05-21T08:00:47Z</time>
      </trkpt>
      <trkpt lat="42.95512" lon="2.48805">
        <ele>382</ele>
        <time>2018-05-21T08:00:55Z</time>
      </trkpt>
      <trkpt lat="42.95495" lon="2.48865">
        <ele>382</ele>
        <time>2018-05-21T08:01:01Z</time>
      </trkpt>
      <trkpt lat="42.9549" lon="2.49027">
        <ele>377</ele>
        <time>2018-05-21T08:01:16Z</time>
      </trkpt>
      <trkpt lat="42.95505" lon="2.49198">
        <ele>370</ele>
        <time>2018-05-21T08:01:31Z</time>
      </trkpt>
      <trkpt lat="42.95515" lon="2.49226">
        <ele>370</ele>
        <time>2018-05-21T08:01:34Z</time>
      </trkpt>
      <trkpt lat="42.95578" lon="2.49325">
        <ele>368</ele>
        <time>2018-05-21T08:01:46Z</time>
      </trkpt>
      <trkpt lat="42.95595" lon="2.49394">
        <ele>368</ele>
        <time>2018-05-21T08:01:52Z</time>
      </trkpt>
      <trkpt lat="42.95592" lon="2.49431">
        <ele>368</ele>
        <time>2018-05-21T08:01:56Z</time>
      </trkpt>
      <trkpt lat="42.95567" lon="2.49446">
        <ele>368</ele>
        <time>2018-05-21T08:01:59Z</time>
      </trkpt>
      <trkpt lat="42.95538" lon="2.49454">
        <ele>367</ele>
        <time>2018-05-21T08:02:02Z</time>
      </trkpt>
      <trkpt lat="42.95541" lon="2.49523">
        <ele>366</ele>
        <time>2018-05-21T08:02:10Z</time>
      </trkpt>
      <trkpt lat="42.95558" lon="2.49545">
        <ele>365</ele>
        <time>2018-05-21T08:02:15Z</time>
      </trkpt>
      <trkpt lat="42.95632" lon="2.4952">
        <ele>365</ele>
        <time>2018-05-21T08:02:31Z</time>
      </trkpt>
      <trkpt lat="42.95654" lon="2.4954">
        <ele>365</ele>
        <time>2018-05-21T08:02:35Z</time>
      </trkpt>
      <trkpt lat="42.95679" lon="2.49545">
        <ele>365</ele>
        <time>2018-05-21T08:02:39Z</time>
      </trkpt>
      <trkpt lat="42.95704" lon="2.49534">
        <ele>365</ele>
        <time>2018-05-21T08:02:44Z</time>
      </trkpt>
      <trkpt lat="42.95755" lon="2.49496">
        <ele>365</ele>
        <time>2018-05-21T08:02:52Z</time>
      </trkpt>
      <trkpt lat="42.95781" lon="2.49487">
        <ele>364</ele>
        <time>2018-05-21T08:02:56Z</time>
      </trkpt>
      <trkpt lat="42.95804" lon="2.49497">
        <ele>363</ele>
        <time>2018-05-21T08:03:00Z</time>
      </trkpt>
      <trkpt lat="42.95829" lon="2.49481">
        <ele>359</ele>
        <time>2018-05-21T08:03:05Z</time>
      </trkpt>
      <trkpt lat="42.95828" lon="2.49446">
        <ele>357</ele>
        <time>2018-05-21T08:03:10Z</time>
      </trkpt>
      <trkpt lat="42.95821" lon="2.49415">
        <ele>356</ele>
        <time>2018-05-21T08:03:14Z</time>
      </trkpt>
      <trkpt lat="42.95835" lon="2.4939">
        <ele>355</ele>
        <time>2018-05-21T08:03:19Z</time>
      </trkpt>
      <trkpt lat="42.95846" lon="2.49363">
        <ele>353</ele>
        <time>2018-05-21T08:03:24Z</time>
      </trkpt>
      <trkpt lat="42.95911" lon="2.49312">
        <ele>350</ele>
        <time>2018-05-21T08:03:40Z</time>
      </trkpt>
      <trkpt lat="42.9596" lon="2.49296">
        <ele>351</ele>
        <time>2018-05-21T08:03:52Z</time>
      </trkpt>
      <trkpt lat="42.95985" lon="2.49292">
        <ele>351</ele>
        <time>2018-05-21T08:03:58Z</time>
      </trkpt>
      <trkpt lat="42.96058" lon="2.49299">
        <ele>353</ele>
        <time>2018-05-21T08:04:14Z</time>
      </trkpt>
      <trkpt lat="42.96101" lon="2.49318">
        <ele>355</ele>
        <time>2018-05-21T08:04:25Z</time>
      </trkpt>
      <trkpt lat="42.96198" lon="2.49355">
        <ele>355</ele>
        <time>2018-05-21T08:04:49Z</time>
      </trkpt>
      <trkpt lat="42.96234" lon="2.49411">
        <ele>355</ele>
        <time>2018-05-21T08:04:58Z</time>
      </trkpt>
      <trkpt lat="42.96292" lon="2.49518">
        <ele>353</ele>
        <time>2018-05-21T08:05:17Z</time>
      </trkpt>
      <trkpt lat="42.96308" lon="2.49542">
        <ele>353</ele>
        <time>2018-05-21T08:05:22Z</time>
      </trkpt>
      <trkpt lat="42.96332" lon="2.49537">
        <ele>353</ele>
        <time>2018-05-21T08:05:29Z</time>
      </trkpt>
      <trkpt lat="42.96341" lon="2.49508">
        <ele>353</ele>
        <time>2018-05-21T08:05:36Z</time>
      </trkpt>
      <trkpt lat="42.96339" lon="2.49473">
        <ele>351</ele>
        <time>2018-05-21T08:05:40Z</time>
      </trkpt>
      <trkpt lat="42.96352" lon="2.49444">
        <ele>350</ele>
        <time>2018-05-21T08:05:44Z</time>
      </trkpt>
      <trkpt lat="42.96373" lon="2.49425">
        <ele>349</ele>
        <time>2018-05-21T08:05:48Z</time>
      </trkpt>
      <trkpt lat="42.96389" lon="2.49402">
        <ele>349</ele>
        <time>2018-05-21T08:05:52Z</time>
      </trkpt>
      <trkpt lat="42.96408" lon="2.49382">
        <ele>347</ele>
        <time>2018-05-21T08:06:08Z</time>
      </trkpt>
      <trkpt lat="42.9642" lon="2.49355">
        <ele>345</ele>
        <time>2018-05-21T08:06:13Z</time>
      </trkpt>
      <trkpt lat="42.96424" lon="2.49285">
        <ele>343</ele>
        <time>2018-05-21T08:06:21Z</time>
      </trkpt>
      <trkpt lat="42.96399" lon="2.49227">
        <ele>342</ele>
        <time>2018-05-21T08:06:30Z</time>
      </trkpt>
      <trkpt lat="42.96427" lon="2.49066">
        <ele>341</ele>
        <time>2018-05-21T08:06:52Z</time>
      </trkpt>
      <trkpt lat="42.96459" lon="2.49012">
        <ele>340</ele>
        <time>2018-05-21T08:07:02Z</time>
      </trkpt>
      <trkpt lat="42.96501" lon="2.48842">
        <ele>338</ele>
        <time>2018-05-21T08:07:28Z</time>
      </trkpt>
      <trkpt lat="42.96506" lon="2.4881">
        <ele>335</ele>
        <time>2018-05-21T08:07:34Z</time>
      </trkpt>
      <trkpt lat="42.96505" lon="2.48777">
        <ele>334</ele>
        <time>2018-05-21T08:08:58Z</time>
      </trkpt>
      <trkpt lat="42.96505" lon="2.48745">
        <ele>334</ele>
        <time>2018-05-21T08:09:04Z</time>
      </trkpt>
      <trkpt lat="42.96503" lon="2.48711">
        <ele>332</ele>
        <time>2018-05-21T08:09:08Z</time>
      </trkpt>
      <trkpt lat="42.96501" lon="2.48679">
        <ele>333</ele>
        <time>2018-05-21T08:09:13Z</time>
      </trkpt>
      <trkpt lat="42.96494" lon="2.48645">
        <ele>335</ele>
        <time>2018-05-21T08:09:18Z</time>
      </trkpt>
      <trkpt lat="42.96482" lon="2.48614">
        <ele>334</ele>
        <time>2018-05-21T08:09:23Z</time>
      </trkpt>
      <trkpt lat="42.9647" lon="2.4858">
        <ele>334</ele>
        <time>2018-05-21T08:09:28Z</time>
      </trkpt>
      <trkpt lat="42.96472" lon="2.48545">
        <ele>334</ele>
        <time>2018-05-21T08:09:32Z</time>
      </trkpt>
      <trkpt lat="42.96623" lon="2.48429">
        <ele>326</ele>
        <time>2018-05-21T08:10:03Z</time>
      </trkpt>
      <trkpt lat="42.96646" lon="2.48417">
        <ele>325</ele>
        <time>2018-05-21T08:10:07Z</time>
      </trkpt>
      <trkpt lat="42.96689" lon="2.48393">
        <ele>327</ele>
        <time>2018-05-21T08:10:15Z</time>
      </trkpt>
      <trkpt lat="42.96775" lon="2.48321">
        <ele>330</ele>
        <time>2018-05-21T08:10:31Z</time>
      </trkpt>
      <trkpt lat="42.968" lon="2.48305">
        <ele>330</ele>
        <time>2018-05-21T08:10:36Z</time>
      </trkpt>
      <trkpt lat="42.96863" lon="2.48254">
        <ele>333</ele>
        <time>2018-05-21T08:10:47Z</time>
      </trkpt>
      <trkpt lat="42.96885" lon="2.48242">
        <ele>333</ele>
        <time>2018-05-21T08:10:51Z</time>
      </trkpt>
      <trkpt lat="42.96981" lon="2.48228">
        <ele>334</ele>
        <time>2018-05-21T08:11:08Z</time>
      </trkpt>
      <trkpt lat="42.97005" lon="2.4825">
        <ele>334</ele>
        <time>2018-05-21T08:11:12Z</time>
      </trkpt>
      <trkpt lat="42.97051" lon="2.48249">
        <ele>333</ele>
        <time>2018-05-21T08:11:21Z</time>
      </trkpt>
      <trkpt lat="42.97076" lon="2.48241">
        <ele>332</ele>
        <time>2018-05-21T08:11:24Z</time>
      </trkpt>
      <trkpt lat="42.97101" lon="2.48242">
        <ele>332</ele>
        <time>2018-05-21T08:11:28Z</time>
      </trkpt>
      <trkpt lat="42.97124" lon="2.4823">
        <ele>331</ele>
        <time>2018-05-21T08:11:32Z</time>
      </trkpt>
      <trkpt lat="42.97143" lon="2.4821">
        <ele>332</ele>
        <time>2018-05-21T08:11:36Z</time>
      </trkpt>
      <trkpt lat="42.97139" lon="2.48176">
        <ele>332</ele>
        <time>2018-05-21T08:11:42Z</time>
      </trkpt>
      <trkpt lat="42.97133" lon="2.48143">
        <ele>332</ele>
        <time>2018-05-21T08:11:46Z</time>
      </trkpt>
      <trkpt lat="42.97141" lon="2.48112">
        <ele>332</ele>
        <time>2018-05-21T08:11:50Z</time>
      </trkpt>
      <trkpt lat="42.97157" lon="2.48049">
        <ele>331</ele>
        <time>2018-05-21T08:11:59Z</time>
      </trkpt>
      <trkpt lat="42.97188" lon="2.47991">
        <ele>330</ele>
        <time>2018-05-21T08:12:09Z</time>
      </trkpt>
      <trkpt lat="42.97211" lon="2.47975">
        <ele>330</ele>
        <time>2018-05-21T08:12:14Z</time>
      </trkpt>
      <trkpt lat="42.97258" lon="2.47989">
        <ele>328</ele>
        <time>2018-05-21T08:12:23Z</time>
      </trkpt>
      <trkpt lat="42.97298" lon="2.48082">
        <ele>325</ele>
        <time>2018-05-21T08:12:38Z</time>
      </trkpt>
      <trkpt lat="42.97322" lon="2.48081">
        <ele>324</ele>
        <time>2018-05-21T08:12:42Z</time>
      </trkpt>
      <trkpt lat="42.97342" lon="2.48059">
        <ele>324</ele>
        <time>2018-05-21T08:12:47Z</time>
      </trkpt>
      <trkpt lat="42.97341" lon="2.48028">
        <ele>323</ele>
        <time>2018-05-21T08:12:51Z</time>
      </trkpt>
      <trkpt lat="42.9734" lon="2.47994">
        <ele>323</ele>
        <time>2018-05-21T08:12:56Z</time>
      </trkpt>
      <trkpt lat="42.97315" lon="2.47899">
        <ele>327</ele>
        <time>2018-05-21T08:13:10Z</time>
      </trkpt>
      <trkpt lat="42.97317" lon="2.47867">
        <ele>328</ele>
        <time>2018-05-21T08:13:15Z</time>
      </trkpt>
      <trkpt lat="42.97342" lon="2.47768">
        <ele>330</ele>
        <time>2018-05-21T08:13:29Z</time>
      </trkpt>
      <trkpt lat="42.97394" lon="2.47645">
        <ele>332</ele>
        <time>2018-05-21T08:13:49Z</time>
      </trkpt>
      <trkpt lat="42.97409" lon="2.4762">
        <ele>331</ele>
        <time>2018-05-21T08:13:53Z</time>
      </trkpt>
      <trkpt lat="42.97433" lon="2.47601">
        <ele>330</ele>
        <time>2018-05-21T08:13:58Z</time>
      </trkpt>
      <trkpt lat="42.97505" lon="2.47606">
        <ele>328</ele>
        <time>2018-05-21T08:14:12Z</time>
      </trkpt>
      <trkpt lat="42.97527" lon="2.47621">
        <ele>328</ele>
        <time>2018-05-21T08:14:16Z</time>
      </trkpt>
      <trkpt lat="42.97539" lon="2.47652">
        <ele>327</ele>
        <time>2018-05-21T08:14:21Z</time>
      </trkpt>
      <trkpt lat="42.97559" lon="2.4767">
        <ele>327</ele>
        <time>2018-05-21T08:14:26Z</time>
      </trkpt>
      <trkpt lat="42.97575" lon="2.47701">
        <ele>327</ele>
        <time>2018-05-21T08:14:31Z</time>
      </trkpt>
      <trkpt lat="42.97595" lon="2.47719">
        <ele>326</ele>
        <time>2018-05-21T08:14:35Z</time>
      </trkpt>
      <trkpt lat="42.9762" lon="2.4772">
        <ele>326</ele>
        <time>2018-05-21T08:14:40Z</time>
      </trkpt>
      <trkpt lat="42.9763" lon="2.47687">
        <ele>325</ele>
        <time>2018-05-21T08:14:45Z</time>
      </trkpt>
      <trkpt lat="42.97615" lon="2.47656">
        <ele>324</ele>
        <time>2018-05-21T08:14:51Z</time>
      </trkpt>
      <trkpt lat="42.97617" lon="2.47622">
        <ele>324</ele>
        <time>2018-05-21T08:14:56Z</time>
      </trkpt>
      <trkpt lat="42.97629" lon="2.47588">
        <ele>324</ele>
        <time>2018-05-21T08:15:01Z</time>
      </trkpt>
      <trkpt lat="42.9765" lon="2.4757">
        <ele>324</ele>
        <time>2018-05-21T08:15:06Z</time>
      </trkpt>
      <trkpt lat="42.97675" lon="2.47568">
        <ele>325</ele>
        <time>2018-05-21T08:15:11Z</time>
      </trkpt>
      <trkpt lat="42.97698" lon="2.47555">
        <ele>326</ele>
        <time>2018-05-21T08:15:16Z</time>
      </trkpt>
      <trkpt lat="42.97721" lon="2.4755">
        <ele>326</ele>
        <time>2018-05-21T08:15:21Z</time>
      </trkpt>
      <trkpt lat="42.97745" lon="2.47553">
        <ele>326</ele>
        <time>2018-05-21T08:15:26Z</time>
      </trkpt>
      <trkpt lat="42.97765" lon="2.47569">
        <ele>326</ele>
        <time>2018-05-21T08:15:31Z</time>
      </trkpt>
      <trkpt lat="42.97788" lon="2.47583">
        <ele>327</ele>
        <time>2018-05-21T08:15:37Z</time>
      </trkpt>
      <trkpt lat="42.97866" lon="2.47561">
        <ele>327</ele>
        <time>2018-05-21T08:15:51Z</time>
      </trkpt>
      <trkpt lat="42.97904" lon="2.4752">
        <ele>327</ele>
        <time>2018-05-21T08:16:00Z</time>
      </trkpt>
      <trkpt lat="42.97927" lon="2.47513">
        <ele>326</ele>
        <time>2018-05-21T08:16:06Z</time>
      </trkpt>
      <trkpt lat="42.9795" lon="2.4751">
        <ele>325</ele>
        <time>2018-05-21T08:16:12Z</time>
      </trkpt>
      <trkpt lat="42.98065" lon="2.47568">
        <ele>321</ele>
        <time>2018-05-21T08:16:44Z</time>
      </trkpt>
      <trkpt lat="42.98114" lon="2.47583">
        <ele>320</ele>
        <time>2018-05-21T08:16:56Z</time>
      </trkpt>
      <trkpt lat="42.98142" lon="2.47587">
        <ele>320</ele>
        <time>2018-05-21T08:17:03Z</time>
      </trkpt>
      <trkpt lat="42.98154" lon="2.47558">
        <ele>320</ele>
        <time>2018-05-21T08:17:09Z</time>
      </trkpt>
      <trkpt lat="42.98134" lon="2.4746">
        <ele>319</ele>
        <time>2018-05-21T08:17:23Z</time>
      </trkpt>
      <trkpt lat="42.98131" lon="2.47429">
        <ele>319</ele>
        <time>2018-05-21T08:17:27Z</time>
      </trkpt>
      <trkpt lat="42.98132" lon="2.47394">
        <ele>320</ele>
        <time>2018-05-21T08:17:32Z</time>
      </trkpt>
      <trkpt lat="42.98149" lon="2.47368">
        <ele>320</ele>
        <time>2018-05-21T08:17:37Z</time>
      </trkpt>
      <trkpt lat="42.98173" lon="2.47365">
        <ele>320</ele>
        <time>2018-05-21T08:17:41Z</time>
      </trkpt>
      <trkpt lat="42.98241" lon="2.47323">
        <ele>318</ele>
        <time>2018-05-21T08:18:00Z</time>
      </trkpt>
      <trkpt lat="42.98259" lon="2.473">
        <ele>316</ele>
        <time>2018-05-21T08:18:08Z</time>
      </trkpt>
      <trkpt lat="42.98281" lon="2.47284">
        <ele>314</ele>
        <time>2018-05-21T08:18:12Z</time>
      </trkpt>
      <trkpt lat="42.98396" lon="2.47331">
        <ele>313</ele>
        <time>2018-05-21T08:18:44Z</time>
      </trkpt>
      <trkpt lat="42.98464" lon="2.473">
        <ele>314</ele>
        <time>2018-05-21T08:19:03Z</time>
      </trkpt>
      <trkpt lat="42.98487" lon="2.4731">
        <ele>314</ele>
        <time>2018-05-21T08:19:09Z</time>
      </trkpt>
      <trkpt lat="42.98484" lon="2.47343">
        <ele>314</ele>
        <time>2018-05-21T08:19:16Z</time>
      </trkpt>
      <trkpt lat="42.98489" lon="2.47373">
        <ele>314</ele>
        <time>2018-05-21T08:19:23Z</time>
      </trkpt>
      <trkpt lat="42.98504" lon="2.47399">
        <ele>315</ele>
        <time>2018-05-21T08:19:30Z</time>
      </trkpt>
      <trkpt lat="42.98527" lon="2.47413">
        <ele>316</ele>
        <time>2018-05-21T08:19:39Z</time>
      </trkpt>
      <trkpt lat="42.98542" lon="2.4744">
        <ele>317</ele>
        <time>2018-05-21T08:19:46Z</time>
      </trkpt>
      <trkpt lat="42.98561" lon="2.47458">
        <ele>318</ele>
        <time>2018-05-21T08:19:52Z</time>
      </trkpt>
      <trkpt lat="42.98583" lon="2.47471">
        <ele>319</ele>
        <time>2018-05-21T08:19:59Z</time>
      </trkpt>
      <trkpt lat="42.98606" lon="2.47478">
        <ele>321</ele>
        <time>2018-05-21T08:20:08Z</time>
      </trkpt>
      <trkpt lat="42.98727" lon="2.47491">
        <ele>320</ele>
        <time>2018-05-21T08:20:45Z</time>
      </trkpt>
      <trkpt lat="42.98751" lon="2.47489">
        <ele>321</ele>
        <time>2018-05-21T08:20:54Z</time>
      </trkpt>
      <trkpt lat="42.98819" lon="2.47483">
        <ele>317</ele>
        <time>2018-05-21T08:21:14Z</time>
      </trkpt>
      <trkpt lat="42.98851" lon="2.47435">
        <ele>316</ele>
        <time>2018-05-21T08:21:27Z</time>
      </trkpt>
      <trkpt lat="42.98874" lon="2.4742">
        <ele>317</ele>
        <time>2018-05-21T08:21:35Z</time>
      </trkpt>
      <trkpt lat="42.98898" lon="2.47425">
        <ele>318</ele>
        <time>2018-05-21T08:21:42Z</time>
      </trkpt>
      <trkpt lat="42.98911" lon="2.47451">
        <ele>319</ele>
        <time>2018-05-21T08:21:50Z</time>
      </trkpt>
      <trkpt lat="42.98903" lon="2.47587">
        <ele>322</ele>
        <time>2018-05-21T08:22:22Z</time>
      </trkpt>
      <trkpt lat="42.98907" lon="2.47619">
        <ele>325</ele>
        <time>2018-05-21T08:22:30Z</time>
      </trkpt>
      <trkpt lat="42.9892" lon="2.47644">
        <ele>328</ele>
        <time>2018-05-21T08:22:39Z</time>
      </trkpt>
      <trkpt lat="42.98941" lon="2.47658">
        <ele>330</ele>
        <time>2018-05-21T08:22:46Z</time>
      </trkpt>
      <trkpt lat="42.98992" lon="2.47684">
        <ele>329</ele>
        <time>2018-05-21T08:22:59Z</time>
      </trkpt>
      <trkpt lat="42.99026" lon="2.47732">
        <ele>329</ele>
        <time>2018-05-21T08:23:10Z</time>
      </trkpt>
      <trkpt lat="42.9909" lon="2.47791">
        <ele>331</ele>
        <time>2018-05-21T08:23:25Z</time>
      </trkpt>
      <trkpt lat="42.99111" lon="2.4782">
        <ele>331</ele>
        <time>2018-05-21T08:23:30Z</time>
      </trkpt>
      <trkpt lat="42.99133" lon="2.4788">
        <ele>331</ele>
        <time>2018-05-21T08:23:40Z</time>
      </trkpt>
      <trkpt lat="42.99151" lon="2.47906">
        <ele>331</ele>
        <time>2018-05-21T08:23:45Z</time>
      </trkpt>
      <trkpt lat="42.99195" lon="2.47941">
        <ele>328</ele>
        <time>2018-05-21T08:23:55Z</time>
      </trkpt>
      <trkpt lat="42.99205" lon="2.47971">
        <ele>326</ele>
        <time>2018-05-21T08:24:00Z</time>
      </trkpt>
      <trkpt lat="42.9921" lon="2.48075">
        <ele>324</ele>
        <time>2018-05-21T08:24:16Z</time>
      </trkpt>
      <trkpt lat="42.99214" lon="2.48109">
        <ele>325</ele>
        <time>2018-05-21T08:24:20Z</time>
      </trkpt>
      <trkpt lat="42.99256" lon="2.482">
        <ele>328</ele>
        <time>2018-05-21T08:24:35Z</time>
      </trkpt>
      <trkpt lat="42.99298" lon="2.48282">
        <ele>327</ele>
        <time>2018-05-21T08:28:55Z</time>
      </trkpt>
      <trkpt lat="42.99316" lon="2.48305">
        <ele>333</ele>
        <time>2018-05-21T08:29:02Z</time>
      </trkpt>
      <trkpt lat="42.99338" lon="2.48293">
        <ele>334</ele>
        <time>2018-05-21T08:29:06Z</time>
      </trkpt>
      <trkpt lat="42.99362" lon="2.48283">
        <ele>333</ele>
        <time>2018-05-21T08:29:11Z</time>
      </trkpt>
      <trkpt lat="42.99391" lon="2.48282">
        <ele>333</ele>
        <time>2018-05-21T08:29:16Z</time>
      </trkpt>
      <trkpt lat="42.99473" lon="2.4831">
        <ele>332</ele>
        <time>2018-05-21T08:29:29Z</time>
      </trkpt>
      <trkpt lat="42.99549" lon="2.48404">
        <ele>329</ele>
        <time>2018-05-21T08:29:41Z</time>
      </trkpt>
      <trkpt lat="42.99591" lon="2.48435">
        <ele>325</ele>
        <time>2018-05-21T08:29:47Z</time>
      </trkpt>
      <trkpt lat="42.99651" lon="2.48506">
        <ele>320</ele>
        <time>2018-05-21T08:29:58Z</time>
      </trkpt>
      <trkpt lat="42.99677" lon="2.48517">
        <ele>318</ele>
        <time>2018-05-21T08:30:02Z</time>
      </trkpt>
      <trkpt lat="42.99699" lon="2.48506">
        <ele>317</ele>
        <time>2018-05-21T08:30:05Z</time>
      </trkpt>
      <trkpt lat="42.99728" lon="2.48497">
        <ele>316</ele>
        <time>2018-05-21T08:30:09Z</time>
      </trkpt>
      <trkpt lat="42.99754" lon="2.4851">
        <ele>315</ele>
        <time>2018-05-21T08:30:12Z</time>
      </trkpt>
      <trkpt lat="42.99809" lon="2.48595">
        <ele>312</ele>
        <time>2018-05-21T08:30:21Z</time>
      </trkpt>
      <trkpt lat="42.99832" lon="2.48615">
        <ele>311</ele>
        <time>2018-05-21T08:30:25Z</time>
      </trkpt>
      <trkpt lat="42.99858" lon="2.48621">
        <ele>311</ele>
        <time>2018-05-21T08:30:28Z</time>
      </trkpt>
      <trkpt lat="42.99887" lon="2.48623">
        <ele>311</ele>
        <time>2018-05-21T08:30:32Z</time>
      </trkpt>
      <trkpt lat="42.99917" lon="2.48624">
        <ele>309</ele>
        <time>2018-05-21T08:30:36Z</time>
      </trkpt>
      <trkpt lat="42.99933" lon="2.48649">
        <ele>308</ele>
        <time>2018-05-21T08:30:39Z</time>
      </trkpt>
      <trkpt lat="42.99982" lon="2.4865">
        <ele>305</ele>
        <time>2018-05-21T08:30:45Z</time>
      </trkpt>
      <trkpt lat="43.00011" lon="2.48655">
        <ele>304</ele>
        <time>2018-05-21T08:30:49Z</time>
      </trkpt>
      <trkpt lat="43.00081" lon="2.48747">
        <ele>296</ele>
        <time>2018-05-21T08:31:02Z</time>
      </trkpt>
      <trkpt lat="43.00102" lon="2.48763">
        <ele>287</ele>
        <time>2018-05-21T08:33:34Z</time>
      </trkpt>
      <trkpt lat="43.00109" lon="2.48797">
        <ele>290</ele>
        <time>2018-05-21T08:33:38Z</time>
      </trkpt>
      <trkpt lat="43.00109" lon="2.48832">
        <ele>291</ele>
        <time>2018-05-21T08:33:42Z</time>
      </trkpt>
      <trkpt lat="43.00119" lon="2.48908">
        <ele>289</ele>
        <time>2018-05-21T08:33:52Z</time>
      </trkpt>
      <trkpt lat="43.00171" lon="2.48982">
        <ele>283</ele>
        <time>2018-05-21T08:34:04Z</time>
      </trkpt>
      <trkpt lat="43.00225" lon="2.49002">
        <ele>280</ele>
        <time>2018-05-21T08:34:12Z</time>
      </trkpt>
      <trkpt lat="43.00293" lon="2.49117">
        <ele>273</ele>
        <time>2018-05-21T08:34:28Z</time>
      </trkpt>
      <trkpt lat="43.00305" lon="2.49149">
        <ele>272</ele>
        <time>2018-05-21T08:34:33Z</time>
      </trkpt>
      <trkpt lat="43.00341" lon="2.4927">
        <ele>270</ele>
        <time>2018-05-21T08:34:59Z</time>
      </trkpt>
      <trkpt lat="43.00364" lon="2.49326">
        <ele>272</ele>
        <time>2018-05-21T08:35:17Z</time>
      </trkpt>
      <trkpt lat="43.00378" lon="2.49354">
        <ele>274</ele>
        <time>2018-05-21T08:35:23Z</time>
      </trkpt>
      <trkpt lat="43.00398" lon="2.49378">
        <ele>275</ele>
        <time>2018-05-21T08:35:29Z</time>
      </trkpt>
      <trkpt lat="43.00496" lon="2.49405">
        <ele>277</ele>
        <time>2018-05-21T08:35:49Z</time>
      </trkpt>
      <trkpt lat="43.00543" lon="2.49444">
        <ele>276</ele>
        <time>2018-05-21T08:35:59Z</time>
      </trkpt>
      <trkpt lat="43.00575" lon="2.49499">
        <ele>275</ele>
        <time>2018-05-21T08:36:09Z</time>
      </trkpt>
      <trkpt lat="43.00588" lon="2.49525">
        <ele>275</ele>
        <time>2018-05-21T08:36:13Z</time>
      </trkpt>
      <trkpt lat="43.00647" lon="2.49589">
        <ele>274</ele>
        <time>2018-05-21T08:36:25Z</time>
      </trkpt>
      <trkpt lat="43.00814" lon="2.49859">
        <ele>263</ele>
        <time>2018-05-21T08:36:56Z</time>
      </trkpt>
      <trkpt lat="43.0083" lon="2.49883">
        <ele>262</ele>
        <time>2018-05-21T08:36:59Z</time>
      </trkpt>
      <trkpt lat="43.00846" lon="2.49946">
        <ele>258</ele>
        <time>2018-05-21T08:37:06Z</time>
      </trkpt>
      <trkpt lat="43.00842" lon="2.50059">
        <ele>254</ele>
        <time>2018-05-21T08:37:20Z</time>
      </trkpt>
      <trkpt lat="43.00872" lon="2.50226">
        <ele>250</ele>
        <time>2018-05-21T08:37:44Z</time>
      </trkpt>
      <trkpt lat="43.00867" lon="2.50257">
        <ele>250</ele>
        <time>2018-05-21T08:37:49Z</time>
      </trkpt>
      <trkpt lat="43.0085" lon="2.50279">
        <ele>249</ele>
        <time>2018-05-21T08:37:53Z</time>
      </trkpt>
      <trkpt lat="43.00839" lon="2.50309">
        <ele>249</ele>
        <time>2018-05-21T08:37:57Z</time>
      </trkpt>
      <trkpt lat="43.00849" lon="2.50512">
        <ele>246</ele>
        <time>2018-05-21T08:38:21Z</time>
      </trkpt>
      <trkpt lat="43.00819" lon="2.50649">
        <ele>247</ele>
        <time>2018-05-21T08:38:39Z</time>
      </trkpt>
      <trkpt lat="43.00832" lon="2.50682">
        <ele>248</ele>
        <time>2018-05-21T08:38:44Z</time>
      </trkpt>
      <trkpt lat="43.00799" lon="2.50913">
        <ele>246</ele>
        <time>2018-05-21T08:39:16Z</time>
      </trkpt>
      <trkpt lat="43.00768" lon="2.51152">
        <ele>244</ele>
        <time>2018-05-21T08:39:50Z</time>
      </trkpt>
      <trkpt lat="43.00764" lon="2.51182">
        <ele>244</ele>
        <time>2018-05-21T08:39:55Z</time>
      </trkpt>
      <trkpt lat="43.00754" lon="2.51214">
        <ele>244</ele>
        <time>2018-05-21T08:40:01Z</time>
      </trkpt>
      <trkpt lat="43.00721" lon="2.51407">
        <ele>244</ele>
        <time>2018-05-21T08:40:32Z</time>
      </trkpt>
      <trkpt lat="43.00688" lon="2.51528">
        <ele>244</ele>
        <time>2018-05-21T08:40:52Z</time>
      </trkpt>
      <trkpt lat="43.00666" lon="2.5159">
        <ele>243</ele>
        <time>2018-05-21T08:41:01Z</time>
      </trkpt>
      <trkpt lat="43.00659" lon="2.51625">
        <ele>242</ele>
        <time>2018-05-21T08:41:05Z</time>
      </trkpt>
      <trkpt lat="43.00646" lon="2.51689">
        <ele>242</ele>
        <time>2018-05-21T08:41:13Z</time>
      </trkpt>
      <trkpt lat="43.00635" lon="2.51723">
        <ele>242</ele>
        <time>2018-05-21T08:41:18Z</time>
      </trkpt>
      <trkpt lat="43.00599" lon="2.51762">
        <ele>242</ele>
        <time>2018-05-21T08:41:29Z</time>
      </trkpt>
      <trkpt lat="43.00581" lon="2.51828">
        <ele>241</ele>
        <time>2018-05-21T08:41:37Z</time>
      </trkpt>
      <trkpt lat="43.00537" lon="2.52008">
        <ele>240</ele>
        <time>2018-05-21T08:42:01Z</time>
      </trkpt>
      <trkpt lat="43.0053" lon="2.52041">
        <ele>239</ele>
        <time>2018-05-21T08:42:06Z</time>
      </trkpt>
      <trkpt lat="43.00523" lon="2.52072">
        <ele>238</ele>
        <time>2018-05-21T08:42:11Z</time>
      </trkpt>
      <trkpt lat="43.00527" lon="2.52106">
        <ele>237</ele>
        <time>2018-05-21T08:42:17Z</time>
      </trkpt>
      <trkpt lat="43.00543" lon="2.52132">
        <ele>237</ele>
        <time>2018-05-21T08:42:24Z</time>
      </trkpt>
      <trkpt lat="43.00597" lon="2.522">
        <ele>240</ele>
        <time>2018-05-21T08:42:41Z</time>
      </trkpt>
      <trkpt lat="43.00601" lon="2.52301">
        <ele>240</ele>
        <time>2018-05-21T08:42:56Z</time>
      </trkpt>
      <trkpt lat="43.00597" lon="2.52333">
        <ele>240</ele>
        <time>2018-05-21T08:43:02Z</time>
      </trkpt>
      <trkpt lat="43.00596" lon="2.52365">
        <ele>240</ele>
        <time>2018-05-21T08:43:09Z</time>
      </trkpt>
      <trkpt lat="43.00665" lon="2.52468">
        <ele>242</ele>
        <time>2018-05-21T08:43:38Z</time>
      </trkpt>
      <trkpt lat="43.00706" lon="2.52507">
        <ele>241</ele>
        <time>2018-05-21T08:43:50Z</time>
      </trkpt>
      <trkpt lat="43.00756" lon="2.52522">
        <ele>242</ele>
        <time>2018-05-21T08:44:02Z</time>
      </trkpt>
      <trkpt lat="43.00781" lon="2.52532">
        <ele>241</ele>
        <time>2018-05-21T08:44:08Z</time>
      </trkpt>
      <trkpt lat="43.00852" lon="2.52585">
        <ele>235</ele>
        <time>2018-05-21T08:44:26Z</time>
      </trkpt>
      <trkpt lat="43.00882" lon="2.52633">
        <ele>235</ele>
        <time>2018-05-21T08:44:37Z</time>
      </trkpt>
      <trkpt lat="43.00932" lon="2.52657">
        <ele>238</ele>
        <time>2018-05-21T08:44:49Z</time>
      </trkpt>
      <trkpt lat="43.01029" lon="2.52666">
        <ele>238</ele>
        <time>2018-05-21T08:45:08Z</time>
      </trkpt>
      <trkpt lat="43.01054" lon="2.52672">
        <ele>238</ele>
        <time>2018-05-21T08:45:13Z</time>
      </trkpt>
      <trkpt lat="43.01082" lon="2.52726">
        <ele>238</ele>
        <time>2018-05-21T08:45:24Z</time>
      </trkpt>
      <trkpt lat="43.01094" lon="2.52754">
        <ele>239</ele>
        <time>2018-05-21T08:45:30Z</time>
      </trkpt>
      <trkpt lat="43.01134" lon="2.52792">
        <ele>241</ele>
        <time>2018-05-21T08:45:41Z</time>
      </trkpt>
      <trkpt lat="43.01204" lon="2.52842">
        <ele>243</ele>
        <time>2018-05-21T08:45:56Z</time>
      </trkpt>
      <trkpt lat="43.01241" lon="2.52888">
        <ele>243</ele>
        <time>2018-05-21T08:46:06Z</time>
      </trkpt>
      <trkpt lat="43.01263" lon="2.52952">
        <ele>242</ele>
        <time>2018-05-21T08:46:16Z</time>
      </trkpt>
      <trkpt lat="43.01268" lon="2.52985">
        <ele>241</ele>
        <time>2018-05-21T08:46:22Z</time>
      </trkpt>
      <trkpt lat="43.01266" lon="2.53022">
        <ele>240</ele>
        <time>2018-05-21T08:46:27Z</time>
      </trkpt>
      <trkpt lat="43.01266" lon="2.5309">
        <ele>238</ele>
        <time>2018-05-21T08:46:38Z</time>
      </trkpt>
      <trkpt lat="43.01274" lon="2.53119">
        <ele>238</ele>
        <time>2018-05-21T08:46:43Z</time>
      </trkpt>
      <trkpt lat="43.0122" lon="2.53268">
        <ele>240</ele>
        <time>2018-05-21T08:47:10Z</time>
      </trkpt>
      <trkpt lat="43.01218" lon="2.53302">
        <ele>240</ele>
        <time>2018-05-21T08:47:17Z</time>
      </trkpt>
      <trkpt lat="43.01206" lon="2.53334">
        <ele>241</ele>
        <time>2018-05-21T08:47:24Z</time>
      </trkpt>
      <trkpt lat="43.01228" lon="2.5343">
        <ele>240</ele>
        <time>2018-05-21T08:47:41Z</time>
      </trkpt>
      <trkpt lat="43.01237" lon="2.53459">
        <ele>240</ele>
        <time>2018-05-21T08:47:47Z</time>
      </trkpt>
      <trkpt lat="43.01263" lon="2.53467">
        <ele>241</ele>
        <time>2018-05-21T08:47:52Z</time>
      </trkpt>
      <trkpt lat="43.01293" lon="2.53521">
        <ele>241</ele>
        <time>2018-05-21T08:48:03Z</time>
      </trkpt>
      <trkpt lat="43.01295" lon="2.53553">
        <ele>241</ele>
        <time>2018-05-21T08:48:07Z</time>
      </trkpt>
      <trkpt lat="43.01229" lon="2.53612">
        <ele>242</ele>
        <time>2018-05-21T08:48:23Z</time>
      </trkpt>
      <trkpt lat="43.01217" lon="2.53641">
        <ele>242</ele>
        <time>2018-05-21T08:48:27Z</time>
      </trkpt>
      <trkpt lat="43.0121" lon="2.5371">
        <ele>243</ele>
        <time>2018-05-21T08:48:37Z</time>
      </trkpt>
      <trkpt lat="43.01225" lon="2.5384">
        <ele>240</ele>
        <time>2018-05-21T08:48:58Z</time>
      </trkpt>
      <trkpt lat="43.01241" lon="2.53904">
        <ele>239</ele>
        <time>2018-05-21T08:49:08Z</time>
      </trkpt>
      <trkpt lat="43.01264" lon="2.53912">
        <ele>238</ele>
        <time>2018-05-21T08:49:12Z</time>
      </trkpt>
      <trkpt lat="43.01288" lon="2.53894">
        <ele>236</ele>
        <time>2018-05-21T08:49:17Z</time>
      </trkpt>
      <trkpt lat="43.01312" lon="2.539">
        <ele>235</ele>
        <time>2018-05-21T08:49:21Z</time>
      </trkpt>
      <trkpt lat="43.01336" lon="2.53921">
        <ele>233</ele>
        <time>2018-05-21T08:49:25Z</time>
      </trkpt>
      <trkpt lat="43.01361" lon="2.53925">
        <ele>230</ele>
        <time>2018-05-21T08:49:29Z</time>
      </trkpt>
      <trkpt lat="43.01417" lon="2.53903">
        <ele>226</ele>
        <time>2018-05-21T08:49:37Z</time>
      </trkpt>
      <trkpt lat="43.01444" lon="2.53914">
        <ele>223</ele>
        <time>2018-05-21T08:49:40Z</time>
      </trkpt>
      <trkpt lat="43.01472" lon="2.53909">
        <ele>220</ele>
        <time>2018-05-21T08:49:44Z</time>
      </trkpt>
      <trkpt lat="43.01497" lon="2.53895">
        <ele>216</ele>
        <time>2018-05-21T08:49:48Z</time>
      </trkpt>
      <trkpt lat="43.01519" lon="2.53883">
        <ele>215</ele>
        <time>2018-05-21T08:49:52Z</time>
      </trkpt>
      <trkpt lat="43.01543" lon="2.53885">
        <ele>215</ele>
        <time>2018-05-21T08:49:58Z</time>
      </trkpt>
      <trkpt lat="43.01588" lon="2.53896">
        <ele>218</ele>
        <time>2018-05-21T08:50:15Z</time>
      </trkpt>
      <trkpt lat="43.01602" lon="2.53922">
        <ele>221</ele>
        <time>2018-05-21T08:50:28Z</time>
      </trkpt>
      <trkpt lat="43.01586" lon="2.54047">
        <ele>228</ele>
        <time>2018-05-21T08:51:07Z</time>
      </trkpt>
      <trkpt lat="43.01557" lon="2.54173">
        <ele>230</ele>
        <time>2018-05-21T08:51:45Z</time>
      </trkpt>
      <trkpt lat="43.01545" lon="2.54271">
        <ele>234</ele>
        <time>2018-05-21T08:52:08Z</time>
      </trkpt>
      <trkpt lat="43.01551" lon="2.54337">
        <ele>236</ele>
        <time>2018-05-21T08:52:25Z</time>
      </trkpt>
      <trkpt lat="43.01548" lon="2.54368">
        <ele>238</ele>
        <time>2018-05-21T08:52:34Z</time>
      </trkpt>
      <trkpt lat="43.01508" lon="2.54402">
        <ele>239</ele>
        <time>2018-05-21T08:52:53Z</time>
      </trkpt>
      <trkpt lat="43.01465" lon="2.54425">
        <ele>241</ele>
        <time>2018-05-21T08:53:14Z</time>
      </trkpt>
      <trkpt lat="43.01448" lon="2.54447">
        <ele>243</ele>
        <time>2018-05-21T08:53:23Z</time>
      </trkpt>
      <trkpt lat="43.01375" lon="2.54474">
        <ele>247</ele>
        <time>2018-05-21T08:53:42Z</time>
      </trkpt>
      <trkpt lat="43.0135" lon="2.54482">
        <ele>246</ele>
        <time>2018-05-21T08:53:48Z</time>
      </trkpt>
      <trkpt lat="43.01312" lon="2.5444">
        <ele>246</ele>
        <time>2018-05-21T08:53:59Z</time>
      </trkpt>
      <trkpt lat="43.01287" lon="2.54425">
        <ele>245</ele>
        <time>2018-05-21T08:54:04Z</time>
      </trkpt>
      <trkpt lat="43.01264" lon="2.54428">
        <ele>245</ele>
        <time>2018-05-21T08:54:08Z</time>
      </trkpt>
      <trkpt lat="43.01238" lon="2.54434">
        <ele>245</ele>
        <time>2018-05-21T08:54:13Z</time>
      </trkpt>
      <trkpt lat="43.01196" lon="2.54466">
        <ele>248</ele>
        <time>2018-05-21T08:54:22Z</time>
      </trkpt>
      <trkpt lat="43.01179" lon="2.54525">
        <ele>247</ele>
        <time>2018-05-21T08:54:37Z</time>
      </trkpt>
      <trkpt lat="43.01129" lon="2.54552">
        <ele>246</ele>
        <time>2018-05-21T08:54:50Z</time>
      </trkpt>
      <trkpt lat="43.01084" lon="2.54585">
        <ele>245</ele>
        <time>2018-05-21T08:54:58Z</time>
      </trkpt>
      <trkpt lat="43.01044" lon="2.54547">
        <ele>244</ele>
        <time>2018-05-21T08:55:05Z</time>
      </trkpt>
      <trkpt lat="43.01027" lon="2.54527">
        <ele>243</ele>
        <time>2018-05-21T08:55:09Z</time>
      </trkpt>
      <trkpt lat="43.00972" lon="2.54511">
        <ele>242</ele>
        <time>2018-05-21T08:55:17Z</time>
      </trkpt>
      <trkpt lat="43.00952" lon="2.54532">
        <ele>242</ele>
        <time>2018-05-21T08:55:20Z</time>
      </trkpt>
      <trkpt lat="43.00938" lon="2.54599">
        <ele>240</ele>
        <time>2018-05-21T08:55:28Z</time>
      </trkpt>
      <trkpt lat="43.00934" lon="2.54632">
        <ele>239</ele>
        <time>2018-05-21T08:55:32Z</time>
      </trkpt>
      <trkpt lat="43.00934" lon="2.54665">
        <ele>238</ele>
        <time>2018-05-21T08:55:36Z</time>
      </trkpt>
      <trkpt lat="43.00976" lon="2.54788">
        <ele>238</ele>
        <time>2018-05-21T08:55:54Z</time>
      </trkpt>
      <trkpt lat="43.00979" lon="2.54821">
        <ele>238</ele>
        <time>2018-05-21T08:55:59Z</time>
      </trkpt>
      <trkpt lat="43.00961" lon="2.54844">
        <ele>238</ele>
        <time>2018-05-21T08:56:05Z</time>
      </trkpt>
      <trkpt lat="43.00926" lon="2.54893">
        <ele>237</ele>
        <time>2018-05-21T08:56:19Z</time>
      </trkpt>
      <trkpt lat="43.00916" lon="2.54922">
        <ele>237</ele>
        <time>2018-05-21T08:56:26Z</time>
      </trkpt>
      <trkpt lat="43.00898" lon="2.54945">
        <ele>238</ele>
        <time>2018-05-21T08:56:34Z</time>
      </trkpt>
      <trkpt lat="43.0088" lon="2.54964">
        <ele>240</ele>
        <time>2018-05-21T08:56:41Z</time>
      </trkpt>
      <trkpt lat="43.00848" lon="2.55017">
        <ele>242</ele>
        <time>2018-05-21T08:57:00Z</time>
      </trkpt>
      <trkpt lat="43.00829" lon="2.55076">
        <ele>247</ele>
        <time>2018-05-21T08:57:18Z</time>
      </trkpt>
      <trkpt lat="43.00823" lon="2.55106">
        <ele>248</ele>
        <time>2018-05-21T08:57:30Z</time>
      </trkpt>
      <trkpt lat="43.00799" lon="2.55113">
        <ele>248</ele>
        <time>2018-05-21T08:57:42Z</time>
      </trkpt>
      <trkpt lat="43.00753" lon="2.55116">
        <ele>246</ele>
        <time>2018-05-21T08:58:06Z</time>
      </trkpt>
      <trkpt lat="43.00714" lon="2.55079">
        <ele>244</ele>
        <time>2018-05-21T08:58:40Z</time>
      </trkpt>
      <trkpt lat="43.0069" lon="2.55081">
        <ele>243</ele>
        <time>2018-05-21T08:58:50Z</time>
      </trkpt>
      <trkpt lat="43.00643" lon="2.5509">
        <ele>244</ele>
        <time>2018-05-21T08:59:11Z</time>
      </trkpt>
      <trkpt lat="43.00597" lon="2.55104">
        <ele>247</ele>
        <time>2018-05-21T08:59:39Z</time>
      </trkpt>
      <trkpt lat="43.00572" lon="2.55104">
        <ele>248</ele>
        <time>2018-05-21T08:59:50Z</time>
      </trkpt>
      <trkpt lat="43.00552" lon="2.5509">
        <ele>249</ele>
        <time>2018-05-21T09:00:01Z</time>
      </trkpt>
      <trkpt lat="43.0053" lon="2.55073">
        <ele>250</ele>
        <time>2018-05-21T09:00:12Z</time>
      </trkpt>
      <trkpt lat="43.00509" lon="2.55083">
        <ele>252</ele>
        <time>2018-05-21T09:00:21Z</time>
      </trkpt>
      <trkpt lat="43.00505" lon="2.55114">
        <ele>254</ele>
        <time>2018-05-21T09:00:35Z</time>
      </trkpt>
      <trkpt lat="43.00441" lon="2.55156">
        <ele>262</ele>
        <time>2018-05-21T09:01:12Z</time>
      </trkpt>
      <trkpt lat="43.00424" lon="2.55179">
        <ele>265</ele>
        <time>2018-05-21T09:01:26Z</time>
      </trkpt>
      <trkpt lat="43.00399" lon="2.55233">
        <ele>272</ele>
        <time>2018-05-21T09:01:51Z</time>
      </trkpt>
      <trkpt lat="43.00375" lon="2.55242">
        <ele>273</ele>
        <time>2018-05-21T09:02:03Z</time>
      </trkpt>
      <trkpt lat="43.00351" lon="2.55244">
        <ele>274</ele>
        <time>2018-05-21T09:02:15Z</time>
      </trkpt>
      <trkpt lat="43.00336" lon="2.55271">
        <ele>274</ele>
        <time>2018-05-21T09:02:26Z</time>
      </trkpt>
      <trkpt lat="43.00332" lon="2.55302">
        <ele>275</ele>
        <time>2018-05-21T09:02:37Z</time>
      </trkpt>
      <trkpt lat="43.00349" lon="2.55325">
        <ele>276</ele>
        <time>2018-05-21T09:02:49Z</time>
      </trkpt>
      <trkpt lat="43.0037" lon="2.55335">
        <ele>279</ele>
        <time>2018-05-21T09:03:00Z</time>
      </trkpt>
      <trkpt lat="43.00394" lon="2.55347">
        <ele>277</ele>
        <time>2018-05-21T09:03:09Z</time>
      </trkpt>
      <trkpt lat="43.00418" lon="2.55345">
        <ele>277</ele>
        <time>2018-05-21T09:03:20Z</time>
      </trkpt>
      <trkpt lat="43.00433" lon="2.55321">
        <ele>277</ele>
        <time>2018-05-21T09:03:28Z</time>
      </trkpt>
      <trkpt lat="43.00449" lon="2.55299">
        <ele>281</ele>
        <time>2018-05-21T09:03:39Z</time>
      </trkpt>
      <trkpt lat="43.00472" lon="2.55287">
        <ele>283</ele>
        <time>2018-05-21T09:03:51Z</time>
      </trkpt>
      <trkpt lat="43.0049" lon="2.55306">
        <ele>285</ele>
        <time>2018-05-21T09:04:02Z</time>
      </trkpt>
      <trkpt lat="43.00474" lon="2.5533">
        <ele>287</ele>
        <time>2018-05-21T09:04:12Z</time>
      </trkpt>
      <trkpt lat="43.00455" lon="2.55346">
        <ele>287</ele>
        <time>2018-05-21T09:04:24Z</time>
      </trkpt>
      <trkpt lat="43.00454" lon="2.55379">
        <ele>288</ele>
        <time>2018-05-21T09:04:34Z</time>
      </trkpt>
      <trkpt lat="43.00496" lon="2.55454">
        <ele>294</ele>
        <time>2018-05-21T09:05:11Z</time>
      </trkpt>
      <trkpt lat="43.00512" lon="2.55475">
        <ele>297</ele>
        <time>2018-05-21T09:05:22Z</time>
      </trkpt>
      <trkpt lat="43.00522" lon="2.55503">
        <ele>297</ele>
        <time>2018-05-21T09:05:46Z</time>
      </trkpt>
      <trkpt lat="43.00471" lon="2.5563">
        <ele>304</ele>
        <time>2018-05-21T09:12:52Z</time>
      </trkpt>
      <trkpt lat="43.00438" lon="2.55674">
        <ele>314</ele>
        <time>2018-05-21T09:17:47Z</time>
      </trkpt>
      <trkpt lat="43.00435" lon="2.55687">
        <ele>311</ele>
        <time>2018-05-21T09:17:51Z</time>
      </trkpt>
      <trkpt lat="43.00436" lon="2.55718">
        <ele>314</ele>
        <time>2018-05-21T09:18:05Z</time>
      </trkpt>
      <trkpt lat="43.00427" lon="2.55812">
        <ele>318</ele>
        <time>2018-05-21T09:18:42Z</time>
      </trkpt>
      <trkpt lat="43.00433" lon="2.55842">
        <ele>319</ele>
        <time>2018-05-21T09:18:56Z</time>
      </trkpt>
      <trkpt lat="43.00453" lon="2.55861">
        <ele>321</ele>
        <time>2018-05-21T09:19:08Z</time>
      </trkpt>
      <trkpt lat="43.00499" lon="2.55863">
        <ele>325</ele>
        <time>2018-05-21T09:19:34Z</time>
      </trkpt>
      <trkpt lat="43.00512" lon="2.55889">
        <ele>327</ele>
        <time>2018-05-21T09:19:48Z</time>
      </trkpt>
      <trkpt lat="43.00503" lon="2.55952">
        <ele>328</ele>
        <time>2018-05-21T09:20:15Z</time>
      </trkpt>
      <trkpt lat="43.00484" lon="2.56012">
        <ele>328</ele>
        <time>2018-05-21T09:20:32Z</time>
      </trkpt>
      <trkpt lat="43.00475" lon="2.56145">
        <ele>330</ele>
        <time>2018-05-21T09:21:06Z</time>
      </trkpt>
      <trkpt lat="43.00473" lon="2.56176">
        <ele>331</ele>
        <time>2018-05-21T09:21:13Z</time>
      </trkpt>
      <trkpt lat="43.00464" lon="2.56205">
        <ele>330</ele>
        <time>2018-05-21T09:21:19Z</time>
      </trkpt>
      <trkpt lat="43.00437" lon="2.56208">
        <ele>329</ele>
        <time>2018-05-21T09:21:25Z</time>
      </trkpt>
      <trkpt lat="43.00389" lon="2.5619">
        <ele>329</ele>
        <time>2018-05-21T09:21:36Z</time>
      </trkpt>
      <trkpt lat="43.00367" lon="2.56171">
        <ele>329</ele>
        <time>2018-05-21T09:21:43Z</time>
      </trkpt>
      <trkpt lat="43.00354" lon="2.56146">
        <ele>330</ele>
        <time>2018-05-21T09:21:51Z</time>
      </trkpt>
      <trkpt lat="43.00361" lon="2.56116">
        <ele>330</ele>
        <time>2018-05-21T09:22:43Z</time>
      </trkpt>
      <trkpt lat="43.00366" lon="2.56082">
        <ele>330</ele>
        <time>2018-05-21T09:22:50Z</time>
      </trkpt>
      <trkpt lat="43.00365" lon="2.56013">
        <ele>331</ele>
        <time>2018-05-21T09:23:06Z</time>
      </trkpt>
      <trkpt lat="43.00358" lon="2.55979">
        <ele>331</ele>
        <time>2018-05-21T09:23:13Z</time>
      </trkpt>
      <trkpt lat="43.00346" lon="2.55948">
        <ele>332</ele>
        <time>2018-05-21T09:23:20Z</time>
      </trkpt>
      <trkpt lat="43.00313" lon="2.55902">
        <ele>334</ele>
        <time>2018-05-21T09:23:33Z</time>
      </trkpt>
      <trkpt lat="43.00247" lon="2.55879">
        <ele>333</ele>
        <time>2018-05-21T09:23:58Z</time>
      </trkpt>
      <trkpt lat="43.00179" lon="2.559">
        <ele>336</ele>
        <time>2018-05-21T09:24:27Z</time>
      </trkpt>
      <trkpt lat="43.00156" lon="2.55893">
        <ele>339</ele>
        <time>2018-05-21T09:24:36Z</time>
      </trkpt>
      <trkpt lat="43.00134" lon="2.5589">
        <ele>342</ele>
        <time>2018-05-21T09:24:46Z</time>
      </trkpt>
      <trkpt lat="43.00115" lon="2.55912">
        <ele>343</ele>
        <time>2018-05-21T09:24:53Z</time>
      </trkpt>
      <trkpt lat="43.00093" lon="2.55972">
        <ele>343</ele>
        <time>2018-05-21T09:25:07Z</time>
      </trkpt>
      <trkpt lat="43.00103" lon="2.56039">
        <ele>342</ele>
        <time>2018-05-21T09:25:20Z</time>
      </trkpt>
      <trkpt lat="43.00103" lon="2.56072">
        <ele>342</ele>
        <time>2018-05-21T09:25:26Z</time>
      </trkpt>
      <trkpt lat="43.00089" lon="2.56099">
        <ele>341</ele>
        <time>2018-05-21T09:25:55Z</time>
      </trkpt>
      <trkpt lat="43.00033" lon="2.5616">
        <ele>342</ele>
        <time>2018-05-21T09:26:25Z</time>
      </trkpt>
      <trkpt lat="43.00033" lon="2.56192">
        <ele>352</ele>
        <time>2018-05-21T09:28:12Z</time>
      </trkpt>
      <trkpt lat="43.00041" lon="2.56222">
        <ele>349</ele>
        <time>2018-05-21T09:28:30Z</time>
      </trkpt>
      <trkpt lat="43.00039" lon="2.56253">
        <ele>347</ele>
        <time>2018-05-21T09:28:45Z</time>
      </trkpt>
      <trkpt lat="43.00043" lon="2.56284">
        <ele>346</ele>
        <time>2018-05-21T09:29:08Z</time>
      </trkpt>
      <trkpt lat="43.00043" lon="2.56314">
        <ele>342</ele>
        <time>2018-05-21T09:50:55Z</time>
      </trkpt>
      <trkpt lat="43.00048" lon="2.56345">
        <ele>340</ele>
        <time>2018-05-21T09:57:55Z</time>
      </trkpt>
      <trkpt lat="43.00055" lon="2.56374">
        <ele>344</ele>
        <time>2018-05-21T09:58:11Z</time>
      </trkpt>
      <trkpt lat="43.0006" lon="2.56405">
        <ele>345</ele>
        <time>2018-05-21T09:58:26Z</time>
      </trkpt>
      <trkpt lat="43.00074" lon="2.56464">
        <ele>347</ele>
        <time>2018-05-21T09:58:59Z</time>
      </trkpt>
      <trkpt lat="43.00081" lon="2.56494">
        <ele>348</ele>
        <time>2018-05-21T09:59:15Z</time>
      </trkpt>
      <trkpt lat="43.00092" lon="2.56521">
        <ele>349</ele>
        <time>2018-05-21T09:59:32Z</time>
      </trkpt>
      <trkpt lat="43.00134" lon="2.56549">
        <ele>354</ele>
        <time>2018-05-21T10:00:07Z</time>
      </trkpt>
      <trkpt lat="43.00156" lon="2.56558">
        <ele>356</ele>
        <time>2018-05-21T10:00:22Z</time>
      </trkpt>
      <trkpt lat="43.00195" lon="2.56591">
        <ele>358</ele>
        <time>2018-05-21T10:00:48Z</time>
      </trkpt>
      <trkpt lat="43.00209" lon="2.56616">
        <ele>360</ele>
        <time>2018-05-21T10:01:04Z</time>
      </trkpt>
      <trkpt lat="43.00217" lon="2.56645">
        <ele>362</ele>
        <time>2018-05-21T10:01:19Z</time>
      </trkpt>
      <trkpt lat="43.00212" lon="2.56676">
        <ele>364</ele>
        <time>2018-05-21T10:01:36Z</time>
      </trkpt>
      <trkpt lat="43.00213" lon="2.56708">
        <ele>364</ele>
        <time>2018-05-21T10:01:52Z</time>
      </trkpt>
      <trkpt lat="43.00206" lon="2.56738">
        <ele>366</ele>
        <time>2018-05-21T10:02:05Z</time>
      </trkpt>
      <trkpt lat="43.0019" lon="2.56761">
        <ele>366</ele>
        <time>2018-05-21T10:02:20Z</time>
      </trkpt>
      <trkpt lat="43.00182" lon="2.56824">
        <ele>364</ele>
        <time>2018-05-21T10:02:50Z</time>
      </trkpt>
      <trkpt lat="43.00179" lon="2.56888">
        <ele>359</ele>
        <time>2018-05-21T10:03:20Z</time>
      </trkpt>
      <trkpt lat="43.0017" lon="2.56919">
        <ele>358</ele>
        <time>2018-05-21T10:03:35Z</time>
      </trkpt>
      <trkpt lat="43.00166" lon="2.5695">
        <ele>358</ele>
        <time>2018-05-21T10:03:50Z</time>
      </trkpt>
      <trkpt lat="43.00132" lon="2.57032">
        <ele>365</ele>
        <time>2018-05-21T10:04:31Z</time>
      </trkpt>
      <trkpt lat="43.00104" lon="2.57119">
        <ele>376</ele>
        <time>2018-05-21T10:05:13Z</time>
      </trkpt>
      <trkpt lat="43.00102" lon="2.57152">
        <ele>380</ele>
        <time>2018-05-21T10:05:27Z</time>
      </trkpt>
      <trkpt lat="43.00095" lon="2.57182">
        <ele>385</ele>
        <time>2018-05-21T10:05:41Z</time>
      </trkpt>
      <trkpt lat="43.00064" lon="2.57227">
        <ele>390</ele>
        <time>2018-05-21T10:06:09Z</time>
      </trkpt>
      <trkpt lat="43.00039" lon="2.57317">
        <ele>395</ele>
        <time>2018-05-21T10:06:50Z</time>
      </trkpt>
      <trkpt lat="43.00003" lon="2.57359">
        <ele>398</ele>
        <time>2018-05-21T10:07:16Z</time>
      </trkpt>
      <trkpt lat="42.99993" lon="2.57387">
        <ele>400</ele>
        <time>2018-05-21T10:07:29Z</time>
      </trkpt>
      <trkpt lat="42.99992" lon="2.57418">
        <ele>403</ele>
        <time>2018-05-21T10:07:43Z</time>
      </trkpt>
      <trkpt lat="42.99974" lon="2.57477">
        <ele>407</ele>
        <time>2018-05-21T10:08:14Z</time>
      </trkpt>
      <trkpt lat="42.99965" lon="2.57541">
        <ele>410</ele>
        <time>2018-05-21T10:08:43Z</time>
      </trkpt>
      <trkpt lat="42.99939" lon="2.57594">
        <ele>412</ele>
        <time>2018-05-21T10:09:11Z</time>
      </trkpt>
      <trkpt lat="42.99906" lon="2.57641">
        <ele>415</ele>
        <time>2018-05-21T10:09:39Z</time>
      </trkpt>
      <trkpt lat="42.99895" lon="2.57669">
        <ele>415</ele>
        <time>2018-05-21T10:09:55Z</time>
      </trkpt>
      <trkpt lat="42.9991" lon="2.57692">
        <ele>418</ele>
        <time>2018-05-21T10:10:13Z</time>
      </trkpt>
      <trkpt lat="42.99955" lon="2.5767">
        <ele>423</ele>
        <time>2018-05-21T10:10:39Z</time>
      </trkpt>
      <trkpt lat="42.99994" lon="2.5764">
        <ele>427</ele>
        <time>2018-05-21T10:11:07Z</time>
      </trkpt>
      <trkpt lat="43.00016" lon="2.57649">
        <ele>429</ele>
        <time>2018-05-21T10:11:21Z</time>
      </trkpt>
      <trkpt lat="43.00036" lon="2.57668">
        <ele>433</ele>
        <time>2018-05-21T10:11:39Z</time>
      </trkpt>
      <trkpt lat="43.00053" lon="2.57648">
        <ele>440</ele>
        <time>2018-05-21T10:11:58Z</time>
      </trkpt>
      <trkpt lat="43.00053" lon="2.57616">
        <ele>446</ele>
        <time>2018-05-21T10:12:11Z</time>
      </trkpt>
      <trkpt lat="43.00052" lon="2.57583">
        <ele>447</ele>
        <time>2018-05-21T10:12:26Z</time>
      </trkpt>
      <trkpt lat="43.00055" lon="2.57552">
        <ele>446</ele>
        <time>2018-05-21T10:12:41Z</time>
      </trkpt>
      <trkpt lat="43.00067" lon="2.57522">
        <ele>446</ele>
        <time>2018-05-21T10:12:55Z</time>
      </trkpt>
      <trkpt lat="43.00078" lon="2.57495">
        <ele>449</ele>
        <time>2018-05-21T10:13:06Z</time>
      </trkpt>
      <trkpt lat="43.00095" lon="2.57472">
        <ele>450</ele>
        <time>2018-05-21T10:13:17Z</time>
      </trkpt>
      <trkpt lat="43.00146" lon="2.57406">
        <ele>450</ele>
        <time>2018-05-21T10:13:52Z</time>
      </trkpt>
      <trkpt lat="43.00159" lon="2.57379">
        <ele>451</ele>
        <time>2018-05-21T10:14:05Z</time>
      </trkpt>
      <trkpt lat="43.00181" lon="2.57367">
        <ele>456</ele>
        <time>2018-05-21T10:17:04Z</time>
      </trkpt>
      <trkpt lat="43.00204" lon="2.57377">
        <ele>459</ele>
        <time>2018-05-21T10:17:22Z</time>
      </trkpt>
      <trkpt lat="43.00267" lon="2.57421">
        <ele>462</ele>
        <time>2018-05-21T10:18:03Z</time>
      </trkpt>
      <trkpt lat="43.0029" lon="2.5742">
        <ele>463</ele>
        <time>2018-05-21T10:18:15Z</time>
      </trkpt>
      <trkpt lat="43.00306" lon="2.57442">
        <ele>467</ele>
        <time>2018-05-21T10:18:30Z</time>
      </trkpt>
      <trkpt lat="43.00294" lon="2.57468">
        <ele>469</ele>
        <time>2018-05-21T10:18:45Z</time>
      </trkpt>
      <trkpt lat="43.00272" lon="2.57484">
        <ele>469</ele>
        <time>2018-05-21T10:18:57Z</time>
      </trkpt>
      <trkpt lat="43.00255" lon="2.57508">
        <ele>470</ele>
        <time>2018-05-21T10:19:11Z</time>
      </trkpt>
      <trkpt lat="43.00187" lon="2.57527">
        <ele>473</ele>
        <time>2018-05-21T10:19:45Z</time>
      </trkpt>
      <trkpt lat="43.0017" lon="2.57549">
        <ele>474</ele>
        <time>2018-05-21T10:19:52Z</time>
      </trkpt>
      <trkpt lat="43.00151" lon="2.57609">
        <ele>475</ele>
        <time>2018-05-21T10:20:03Z</time>
      </trkpt>
      <trkpt lat="43.00126" lon="2.57733">
        <ele>479</ele>
        <time>2018-05-21T10:20:33Z</time>
      </trkpt>
      <trkpt lat="43.00115" lon="2.57763">
        <ele>481</ele>
        <time>2018-05-21T10:20:42Z</time>
      </trkpt>
      <trkpt lat="43.0007" lon="2.57839">
        <ele>481</ele>
        <time>2018-05-21T10:21:06Z</time>
      </trkpt>
      <trkpt lat="43.00051" lon="2.57859">
        <ele>482</ele>
        <time>2018-05-21T10:21:15Z</time>
      </trkpt>
      <trkpt lat="43.00032" lon="2.57875">
        <ele>483</ele>
        <time>2018-05-21T10:21:25Z</time>
      </trkpt>
      <trkpt lat="42.99998" lon="2.57825">
        <ele>487</ele>
        <time>2018-05-21T10:21:42Z</time>
      </trkpt>
      <trkpt lat="42.99976" lon="2.57813">
        <ele>489</ele>
        <time>2018-05-21T10:21:52Z</time>
      </trkpt>
      <trkpt lat="42.99954" lon="2.57824">
        <ele>490</ele>
        <time>2018-05-21T10:22:01Z</time>
      </trkpt>
      <trkpt lat="42.99904" lon="2.57891">
        <ele>498</ele>
        <time>2018-05-21T10:22:27Z</time>
      </trkpt>
      <trkpt lat="42.99866" lon="2.57933">
        <ele>499</ele>
        <time>2018-05-21T10:22:46Z</time>
      </trkpt>
      <trkpt lat="42.99858" lon="2.57962">
        <ele>500</ele>
        <time>2018-05-21T10:22:54Z</time>
      </trkpt>
      <trkpt lat="42.99848" lon="2.5799">
        <ele>500</ele>
        <time>2018-05-21T10:23:03Z</time>
      </trkpt>
      <trkpt lat="42.99808" lon="2.5802">
        <ele>500</ele>
        <time>2018-05-21T10:23:20Z</time>
      </trkpt>
      <trkpt lat="42.9979" lon="2.58043">
        <ele>501</ele>
        <time>2018-05-21T10:23:30Z</time>
      </trkpt>
      <trkpt lat="42.99776" lon="2.58069">
        <ele>503</ele>
        <time>2018-05-21T10:23:39Z</time>
      </trkpt>
      <trkpt lat="42.99776" lon="2.58102">
        <ele>504</ele>
        <time>2018-05-21T10:23:48Z</time>
      </trkpt>
      <trkpt lat="42.99773" lon="2.58136">
        <ele>504</ele>
        <time>2018-05-21T10:23:58Z</time>
      </trkpt>
      <trkpt lat="42.99752" lon="2.5815">
        <ele>504</ele>
        <time>2018-05-21T10:24:10Z</time>
      </trkpt>
      <trkpt lat="42.99707" lon="2.58122">
        <ele>504</ele>
        <time>2018-05-21T10:24:29Z</time>
      </trkpt>
      <trkpt lat="42.99685" lon="2.58119">
        <ele>503</ele>
        <time>2018-05-21T10:24:39Z</time>
      </trkpt>
      <trkpt lat="42.99661" lon="2.58129">
        <ele>503</ele>
        <time>2018-05-21T10:24:50Z</time>
      </trkpt>
      <trkpt lat="42.99604" lon="2.58186">
        <ele>504</ele>
        <time>2018-05-21T10:25:24Z</time>
      </trkpt>
      <trkpt lat="42.99582" lon="2.58197">
        <ele>505</ele>
        <time>2018-05-21T10:25:35Z</time>
      </trkpt>
      <trkpt lat="42.99559" lon="2.58201">
        <ele>506</ele>
        <time>2018-05-21T10:25:46Z</time>
      </trkpt>
      <trkpt lat="42.99536" lon="2.58196">
        <ele>508</ele>
        <time>2018-05-21T10:25:56Z</time>
      </trkpt>
      <trkpt lat="42.99515" lon="2.58181">
        <ele>509</ele>
        <time>2018-05-21T10:26:07Z</time>
      </trkpt>
      <trkpt lat="42.9947" lon="2.58106">
        <ele>513</ele>
        <time>2018-05-21T10:26:43Z</time>
      </trkpt>
      <trkpt lat="42.99438" lon="2.58058">
        <ele>516</ele>
        <time>2018-05-21T10:27:01Z</time>
      </trkpt>
      <trkpt lat="42.99374" lon="2.58005">
        <ele>518</ele>
        <time>2018-05-21T10:27:15Z</time>
      </trkpt>
      <trkpt lat="42.99281" lon="2.57948">
        <ele>517</ele>
        <time>2018-05-21T10:27:27Z</time>
      </trkpt>
      <trkpt lat="42.99253" lon="2.57933">
        <ele>515</ele>
        <time>2018-05-21T10:27:31Z</time>
      </trkpt>
      <trkpt lat="42.99215" lon="2.57878">
        <ele>511</ele>
        <time>2018-05-21T10:27:37Z</time>
      </trkpt>
      <trkpt lat="42.99214" lon="2.57838">
        <ele>508</ele>
        <time>2018-05-21T10:27:41Z</time>
      </trkpt>
      <trkpt lat="42.99165" lon="2.57861">
        <ele>504</ele>
        <time>2018-05-21T10:27:48Z</time>
      </trkpt>
      <trkpt lat="42.99142" lon="2.57858">
        <ele>501</ele>
        <time>2018-05-21T10:27:51Z</time>
      </trkpt>
      <trkpt lat="42.99096" lon="2.57821">
        <ele>498</ele>
        <time>2018-05-21T10:27:57Z</time>
      </trkpt>
      <trkpt lat="42.99081" lon="2.57793">
        <ele>497</ele>
        <time>2018-05-21T10:28:00Z</time>
      </trkpt>
      <trkpt lat="42.99048" lon="2.5769">
        <ele>493</ele>
        <time>2018-05-21T10:28:09Z</time>
      </trkpt>
      <trkpt lat="42.99025" lon="2.57665">
        <ele>492</ele>
        <time>2018-05-21T10:28:12Z</time>
      </trkpt>
      <trkpt lat="42.98944" lon="2.57639">
        <ele>488</ele>
        <time>2018-05-21T10:28:21Z</time>
      </trkpt>
      <trkpt lat="42.98902" lon="2.57598">
        <ele>486</ele>
        <time>2018-05-21T10:28:27Z</time>
      </trkpt>
      <trkpt lat="42.98793" lon="2.57573">
        <ele>477</ele>
        <time>2018-05-21T10:28:38Z</time>
      </trkpt>
      <trkpt lat="42.98741" lon="2.57528">
        <ele>474</ele>
        <time>2018-05-21T10:28:44Z</time>
      </trkpt>
      <trkpt lat="42.98703" lon="2.57466">
        <ele>471</ele>
        <time>2018-05-21T10:28:50Z</time>
      </trkpt>
      <trkpt lat="42.98651" lon="2.57423">
        <ele>466</ele>
        <time>2018-05-21T10:28:56Z</time>
      </trkpt>
      <trkpt lat="42.98623" lon="2.57431">
        <ele>465</ele>
        <time>2018-05-21T10:28:59Z</time>
      </trkpt>
      <trkpt lat="42.98595" lon="2.57485">
        <ele>461</ele>
        <time>2018-05-21T10:29:05Z</time>
      </trkpt>
      <trkpt lat="42.9858" lon="2.57508">
        <ele>459</ele>
        <time>2018-05-21T10:29:08Z</time>
      </trkpt>
      <trkpt lat="42.98554" lon="2.57525">
        <ele>458</ele>
        <time>2018-05-21T10:29:12Z</time>
      </trkpt>
      <trkpt lat="42.98503" lon="2.57511">
        <ele>458</ele>
        <time>2018-05-21T10:29:20Z</time>
      </trkpt>
      <trkpt lat="42.98469" lon="2.57454">
        <ele>455</ele>
        <time>2018-05-21T10:29:28Z</time>
      </trkpt>
      <trkpt lat="42.98428" lon="2.57412">
        <ele>453</ele>
        <time>2018-05-21T10:29:35Z</time>
      </trkpt>
      <trkpt lat="42.98403" lon="2.574">
        <ele>453</ele>
        <time>2018-05-21T10:29:39Z</time>
      </trkpt>
      <trkpt lat="42.98374" lon="2.57398">
        <ele>451</ele>
        <time>2018-05-21T10:29:43Z</time>
      </trkpt>
      <trkpt lat="42.98346" lon="2.57406">
        <ele>449</ele>
        <time>2018-05-21T10:29:47Z</time>
      </trkpt>
      <trkpt lat="42.98275" lon="2.57472">
        <ele>442</ele>
        <time>2018-05-21T10:29:59Z</time>
      </trkpt>
      <trkpt lat="42.98205" lon="2.57591">
        <ele>436</ele>
        <time>2018-05-21T10:30:14Z</time>
      </trkpt>
      <trkpt lat="42.98181" lon="2.57606">
        <ele>434</ele>
        <time>2018-05-21T10:30:18Z</time>
      </trkpt>
      <trkpt lat="42.98126" lon="2.57612">
        <ele>431</ele>
        <time>2018-05-21T10:30:25Z</time>
      </trkpt>
      <trkpt lat="42.98077" lon="2.57653">
        <ele>428</ele>
        <time>2018-05-21T10:30:32Z</time>
      </trkpt>
      <trkpt lat="42.97986" lon="2.57698">
        <ele>427</ele>
        <time>2018-05-21T10:31:07Z</time>
      </trkpt>
      <trkpt lat="42.97964" lon="2.57709">
        <ele>427</ele>
        <time>2018-05-21T10:31:18Z</time>
      </trkpt>
      <trkpt lat="42.97942" lon="2.57704">
        <ele>428</ele>
        <time>2018-05-21T10:31:27Z</time>
      </trkpt>
      <trkpt lat="42.97898" lon="2.57677">
        <ele>432</ele>
        <time>2018-05-21T10:31:48Z</time>
      </trkpt>
      <trkpt lat="42.97854" lon="2.57659">
        <ele>435</ele>
        <time>2018-05-21T10:32:09Z</time>
      </trkpt>
      <trkpt lat="42.97831" lon="2.57654">
        <ele>436</ele>
        <time>2018-05-21T10:32:21Z</time>
      </trkpt>
      <trkpt lat="42.97763" lon="2.57673">
        <ele>438</ele>
        <time>2018-05-21T10:32:54Z</time>
      </trkpt>
      <trkpt lat="42.97743" lon="2.57656">
        <ele>439</ele>
        <time>2018-05-21T10:33:04Z</time>
      </trkpt>
      <trkpt lat="42.97748" lon="2.57625">
        <ele>440</ele>
        <time>2018-05-21T10:33:16Z</time>
      </trkpt>
      <trkpt lat="42.97774" lon="2.57572">
        <ele>442</ele>
        <time>2018-05-21T10:33:36Z</time>
      </trkpt>
      <trkpt lat="42.97769" lon="2.57541">
        <ele>444</ele>
        <time>2018-05-21T10:33:46Z</time>
      </trkpt>
      <trkpt lat="42.97747" lon="2.57483">
        <ele>448</ele>
        <time>2018-05-21T10:34:06Z</time>
      </trkpt>
      <trkpt lat="42.9773" lon="2.57459">
        <ele>449</ele>
        <time>2018-05-21T10:34:17Z</time>
      </trkpt>
      <trkpt lat="42.97707" lon="2.57451">
        <ele>451</ele>
        <time>2018-05-21T10:34:27Z</time>
      </trkpt>
      <trkpt lat="42.97667" lon="2.57489">
        <ele>453</ele>
        <time>2018-05-21T10:34:46Z</time>
      </trkpt>
      <trkpt lat="42.97618" lon="2.57488">
        <ele>456</ele>
        <time>2018-05-21T10:35:04Z</time>
      </trkpt>
      <trkpt lat="42.97596" lon="2.575">
        <ele>457</ele>
        <time>2018-05-21T10:35:14Z</time>
      </trkpt>
      <trkpt lat="42.97587" lon="2.57528">
        <ele>457</ele>
        <time>2018-05-21T10:35:23Z</time>
      </trkpt>
      <trkpt lat="42.97555" lon="2.57574">
        <ele>453</ele>
        <time>2018-05-21T10:35:44Z</time>
      </trkpt>
      <trkpt lat="42.9749" lon="2.57622">
        <ele>453</ele>
        <time>2018-05-21T10:36:10Z</time>
      </trkpt>
      <trkpt lat="42.97468" lon="2.57629">
        <ele>454</ele>
        <time>2018-05-21T10:36:20Z</time>
      </trkpt>
      <trkpt lat="42.97444" lon="2.57635">
        <ele>456</ele>
        <time>2018-05-21T10:36:29Z</time>
      </trkpt>
      <trkpt lat="42.97404" lon="2.5767">
        <ele>458</ele>
        <time>2018-05-21T10:36:45Z</time>
      </trkpt>
      <trkpt lat="42.97389" lon="2.57693">
        <ele>460</ele>
        <time>2018-05-21T10:36:54Z</time>
      </trkpt>
      <trkpt lat="42.97386" lon="2.57726">
        <ele>461</ele>
        <time>2018-05-21T10:37:03Z</time>
      </trkpt>
      <trkpt lat="42.97353" lon="2.57849">
        <ele>469</ele>
        <time>2018-05-21T10:37:38Z</time>
      </trkpt>
      <trkpt lat="42.97342" lon="2.57912">
        <ele>470</ele>
        <time>2018-05-21T10:37:57Z</time>
      </trkpt>
      <trkpt lat="42.97344" lon="2.57942">
        <ele>471</ele>
        <time>2018-05-21T10:38:06Z</time>
      </trkpt>
      <trkpt lat="42.97371" lon="2.57992">
        <ele>471</ele>
        <time>2018-05-21T10:38:24Z</time>
      </trkpt>
      <trkpt lat="42.97385" lon="2.58018">
        <ele>472</ele>
        <time>2018-05-21T10:38:35Z</time>
      </trkpt>
      <trkpt lat="42.97381" lon="2.5805">
        <ele>473</ele>
        <time>2018-05-21T10:38:44Z</time>
      </trkpt>
      <trkpt lat="42.97364" lon="2.58072">
        <ele>475</ele>
        <time>2018-05-21T10:38:53Z</time>
      </trkpt>
      <trkpt lat="42.97375" lon="2.58101">
        <ele>486</ele>
        <time>2018-05-21T10:42:34Z</time>
      </trkpt>
      <trkpt lat="42.97391" lon="2.58125">
        <ele>487</ele>
        <time>2018-05-21T10:42:43Z</time>
      </trkpt>
      <trkpt lat="42.97413" lon="2.58143">
        <ele>488</ele>
        <time>2018-05-21T10:42:52Z</time>
      </trkpt>
      <trkpt lat="42.97526" lon="2.58154">
        <ele>484</ele>
        <time>2018-05-21T10:43:11Z</time>
      </trkpt>
      <trkpt lat="42.97569" lon="2.58197">
        <ele>482</ele>
        <time>2018-05-21T10:43:18Z</time>
      </trkpt>
      <trkpt lat="42.97744" lon="2.58479">
        <ele>472</ele>
        <time>2018-05-21T10:43:48Z</time>
      </trkpt>
      <trkpt lat="42.97983" lon="2.58749">
        <ele>459</ele>
        <time>2018-05-21T10:44:17Z</time>
      </trkpt>
      <trkpt lat="42.98017" lon="2.58821">
        <ele>456</ele>
        <time>2018-05-21T10:44:23Z</time>
      </trkpt>
      <trkpt lat="42.98019" lon="2.58905">
        <ele>452</ele>
        <time>2018-05-21T10:44:29Z</time>
      </trkpt>
      <trkpt lat="42.98029" lon="2.58942">
        <ele>451</ele>
        <time>2018-05-21T10:44:32Z</time>
      </trkpt>
      <trkpt lat="42.98052" lon="2.58969">
        <ele>449</ele>
        <time>2018-05-21T10:44:35Z</time>
      </trkpt>
      <trkpt lat="42.98112" lon="2.58991">
        <ele>445</ele>
        <time>2018-05-21T10:44:41Z</time>
      </trkpt>
      <trkpt lat="42.98134" lon="2.59023">
        <ele>443</ele>
        <time>2018-05-21T10:44:44Z</time>
      </trkpt>
      <trkpt lat="42.9814" lon="2.59103">
        <ele>440</ele>
        <time>2018-05-21T10:44:50Z</time>
      </trkpt>
      <trkpt lat="42.98126" lon="2.5933">
        <ele>432</ele>
        <time>2018-05-21T10:45:08Z</time>
      </trkpt>
      <trkpt lat="42.98145" lon="2.59424">
        <ele>429</ele>
        <time>2018-05-21T10:45:17Z</time>
      </trkpt>
      <trkpt lat="42.98249" lon="2.5963">
        <ele>418</ele>
        <time>2018-05-21T10:45:38Z</time>
      </trkpt>
      <trkpt lat="42.98273" lon="2.59733">
        <ele>414</ele>
        <time>2018-05-21T10:45:47Z</time>
      </trkpt>
      <trkpt lat="42.98263" lon="2.59883">
        <ele>409</ele>
        <time>2018-05-21T10:45:59Z</time>
      </trkpt>
      <trkpt lat="42.98275" lon="2.59947">
        <ele>407</ele>
        <time>2018-05-21T10:46:05Z</time>
      </trkpt>
      <trkpt lat="42.98333" lon="2.60068">
        <ele>402</ele>
        <time>2018-05-21T10:46:17Z</time>
      </trkpt>
      <trkpt lat="42.98351" lon="2.60139">
        <ele>399</ele>
        <time>2018-05-21T10:46:23Z</time>
      </trkpt>
      <trkpt lat="42.98344" lon="2.60175">
        <ele>398</ele>
        <time>2018-05-21T10:46:26Z</time>
      </trkpt>
      <trkpt lat="42.98285" lon="2.60341">
        <ele>393</ele>
        <time>2018-05-21T10:46:40Z</time>
      </trkpt>
      <trkpt lat="42.9829" lon="2.60461">
        <ele>389</ele>
        <time>2018-05-21T10:46:49Z</time>
      </trkpt>
      <trkpt lat="42.98282" lon="2.60499">
        <ele>389</ele>
        <time>2018-05-21T10:46:52Z</time>
      </trkpt>
      <trkpt lat="42.98231" lon="2.6059">
        <ele>386</ele>
        <time>2018-05-21T10:47:01Z</time>
      </trkpt>
      <trkpt lat="42.9823" lon="2.60668">
        <ele>383</ele>
        <time>2018-05-21T10:47:07Z</time>
      </trkpt>
      <trkpt lat="42.98241" lon="2.60742">
        <ele>379</ele>
        <time>2018-05-21T10:47:13Z</time>
      </trkpt>
      <trkpt lat="42.9825" lon="2.60777">
        <ele>377</ele>
        <time>2018-05-21T10:47:16Z</time>
      </trkpt>
      <trkpt lat="42.9827" lon="2.60803">
        <ele>375</ele>
        <time>2018-05-21T10:47:19Z</time>
      </trkpt>
      <trkpt lat="42.98294" lon="2.60818">
        <ele>373</ele>
        <time>2018-05-21T10:47:22Z</time>
      </trkpt>
      <trkpt lat="42.98323" lon="2.60821">
        <ele>370</ele>
        <time>2018-05-21T10:47:25Z</time>
      </trkpt>
      <trkpt lat="42.98351" lon="2.60835">
        <ele>368</ele>
        <time>2018-05-21T10:47:28Z</time>
      </trkpt>
      <trkpt lat="42.98387" lon="2.60894">
        <ele>365</ele>
        <time>2018-05-21T10:47:34Z</time>
      </trkpt>
      <trkpt lat="42.9841" lon="2.60919">
        <ele>363</ele>
        <time>2018-05-21T10:47:37Z</time>
      </trkpt>
      <trkpt lat="42.98528" lon="2.60928">
        <ele>356</ele>
        <time>2018-05-21T10:47:49Z</time>
      </trkpt>
      <trkpt lat="42.98575" lon="2.60965">
        <ele>353</ele>
        <time>2018-05-21T10:47:55Z</time>
      </trkpt>
      <trkpt lat="42.98609" lon="2.61017">
        <ele>350</ele>
        <time>2018-05-21T10:48:01Z</time>
      </trkpt>
      <trkpt lat="42.98728" lon="2.61278">
        <ele>339</ele>
        <time>2018-05-21T10:48:32Z</time>
      </trkpt>
      <trkpt lat="42.9878" lon="2.61389">
        <ele>337</ele>
        <time>2018-05-21T10:49:04Z</time>
      </trkpt>
      <trkpt lat="42.98819" lon="2.61431">
        <ele>334</ele>
        <time>2018-05-21T10:49:14Z</time>
      </trkpt>
      <trkpt lat="42.98838" lon="2.61448">
        <ele>333</ele>
        <time>2018-05-21T10:49:19Z</time>
      </trkpt>
      <trkpt lat="42.98854" lon="2.61426">
        <ele>332</ele>
        <time>2018-05-21T10:49:30Z</time>
      </trkpt>
      <trkpt lat="42.98843" lon="2.61453">
        <ele>331</ele>
        <time>2018-05-21T10:50:06Z</time>
      </trkpt>
      <trkpt lat="42.98862" lon="2.61477">
        <ele>331</ele>
        <time>2018-05-21T10:50:16Z</time>
      </trkpt>
      <trkpt lat="42.98899" lon="2.61518">
        <ele>329</ele>
        <time>2018-05-21T10:50:32Z</time>
      </trkpt>
      <trkpt lat="42.9888" lon="2.61538">
        <ele>327</ele>
        <time>2018-05-21T10:50:41Z</time>
      </trkpt>
      <trkpt lat="42.98861" lon="2.61557">
        <ele>325</ele>
        <time>2018-05-21T10:50:49Z</time>
      </trkpt>
      <trkpt lat="42.98848" lon="2.61586">
        <ele>322</ele>
        <time>2018-05-21T10:51:02Z</time>
      </trkpt>
      <trkpt lat="42.98878" lon="2.61672">
        <ele>320</ele>
        <time>2018-05-21T10:51:34Z</time>
      </trkpt>
      <trkpt lat="42.98874" lon="2.61704">
        <ele>322</ele>
        <time>2018-05-21T10:51:48Z</time>
      </trkpt>
      <trkpt lat="42.98873" lon="2.61704">
        <ele>327</ele>
        <time>2018-05-21T10:52:15Z</time>
      </trkpt>
      <trkpt lat="42.98855" lon="2.61576">
        <ele>330</ele>
        <time>2018-05-21T10:52:42Z</time>
      </trkpt>
      <trkpt lat="42.98877" lon="2.61569">
        <ele>330</ele>
        <time>2018-05-21T10:52:50Z</time>
      </trkpt>
      <trkpt lat="42.98903" lon="2.61553">
        <ele>329</ele>
        <time>2018-05-21T10:52:57Z</time>
      </trkpt>
      <trkpt lat="42.98886" lon="2.61575">
        <ele>328</ele>
        <time>2018-05-21T10:53:20Z</time>
      </trkpt>
      <trkpt lat="42.98863" lon="2.6158">
        <ele>328</ele>
        <time>2018-05-21T10:53:36Z</time>
      </trkpt>
      <trkpt lat="42.9887" lon="2.61548">
        <ele>327</ele>
        <time>2018-05-21T10:53:48Z</time>
      </trkpt>
      <trkpt lat="42.98883" lon="2.61523">
        <ele>325</ele>
        <time>2018-05-21T10:53:55Z</time>
      </trkpt>
      <trkpt lat="42.98906" lon="2.61521">
        <ele>333</ele>
        <time>2018-05-21T11:26:14Z</time>
      </trkpt>
      <trkpt lat="42.98923" lon="2.61541">
        <ele>332</ele>
        <time>2018-05-21T11:26:26Z</time>
      </trkpt>
      <trkpt lat="42.98944" lon="2.61558">
        <ele>332</ele>
        <time>2018-05-21T11:26:37Z</time>
      </trkpt>
      <trkpt lat="42.98992" lon="2.61539">
        <ele>332</ele>
        <time>2018-05-21T11:27:11Z</time>
      </trkpt>
      <trkpt lat="42.99013" lon="2.61523">
        <ele>332</ele>
        <time>2018-05-21T11:27:18Z</time>
      </trkpt>
      <trkpt lat="42.99038" lon="2.61517">
        <ele>332</ele>
        <time>2018-05-21T11:27:25Z</time>
      </trkpt>
      <trkpt lat="42.99057" lon="2.61536">
        <ele>332</ele>
        <time>2018-05-21T11:27:31Z</time>
      </trkpt>
      <trkpt lat="42.99067" lon="2.61566">
        <ele>332</ele>
        <time>2018-05-21T11:27:39Z</time>
      </trkpt>
      <trkpt lat="42.99079" lon="2.61593">
        <ele>333</ele>
        <time>2018-05-21T11:27:49Z</time>
      </trkpt>
      <trkpt lat="42.99112" lon="2.61678">
        <ele>336</ele>
        <time>2018-05-21T11:28:27Z</time>
      </trkpt>
      <trkpt lat="42.99124" lon="2.6174">
        <ele>339</ele>
        <time>2018-05-21T11:28:49Z</time>
      </trkpt>
      <trkpt lat="42.99129" lon="2.61834">
        <ele>340</ele>
        <time>2018-05-21T11:29:24Z</time>
      </trkpt>
      <trkpt lat="42.99129" lon="2.61867">
        <ele>340</ele>
        <time>2018-05-21T11:29:36Z</time>
      </trkpt>
      <trkpt lat="42.99147" lon="2.61958">
        <ele>342</ele>
        <time>2018-05-21T11:30:15Z</time>
      </trkpt>
      <trkpt lat="42.99152" lon="2.61988">
        <ele>343</ele>
        <time>2018-05-21T11:30:29Z</time>
      </trkpt>
      <trkpt lat="42.9916" lon="2.62052">
        <ele>341</ele>
        <time>2018-05-21T11:30:57Z</time>
      </trkpt>
      <trkpt lat="42.99171" lon="2.62081">
        <ele>342</ele>
        <time>2018-05-21T11:31:10Z</time>
      </trkpt>
      <trkpt lat="42.99186" lon="2.62106">
        <ele>343</ele>
        <time>2018-05-21T11:31:23Z</time>
      </trkpt>
      <trkpt lat="42.99206" lon="2.62126">
        <ele>346</ele>
        <time>2018-05-21T11:31:37Z</time>
      </trkpt>
      <trkpt lat="42.99227" lon="2.6214">
        <ele>347</ele>
        <time>2018-05-21T11:31:50Z</time>
      </trkpt>
      <trkpt lat="42.99295" lon="2.62163">
        <ele>349</ele>
        <time>2018-05-21T11:32:31Z</time>
      </trkpt>
      <trkpt lat="42.99366" lon="2.62179">
        <ele>352</ele>
        <time>2018-05-21T11:33:09Z</time>
      </trkpt>
      <trkpt lat="42.99411" lon="2.62194">
        <ele>355</ele>
        <time>2018-05-21T11:33:36Z</time>
      </trkpt>
      <trkpt lat="42.99457" lon="2.62202">
        <ele>357</ele>
        <time>2018-05-21T11:34:00Z</time>
      </trkpt>
      <trkpt lat="42.99526" lon="2.62194">
        <ele>357</ele>
        <time>2018-05-21T11:34:39Z</time>
      </trkpt>
      <trkpt lat="42.9955" lon="2.62201">
        <ele>359</ele>
        <time>2018-05-21T11:34:50Z</time>
      </trkpt>
      <trkpt lat="42.99567" lon="2.62222">
        <ele>360</ele>
        <time>2018-05-21T11:34:58Z</time>
      </trkpt>
      <trkpt lat="42.99604" lon="2.6231">
        <ele>362</ele>
        <time>2018-05-21T11:35:12Z</time>
      </trkpt>
      <trkpt lat="42.99804" lon="2.62505">
        <ele>360</ele>
        <time>2018-05-21T11:35:41Z</time>
      </trkpt>
      <trkpt lat="42.99831" lon="2.62513">
        <ele>358</ele>
        <time>2018-05-21T11:35:44Z</time>
      </trkpt>
      <trkpt lat="43.00079" lon="2.62448">
        <ele>344</ele>
        <time>2018-05-21T11:36:06Z</time>
      </trkpt>
      <trkpt lat="43.0011" lon="2.62456">
        <ele>342</ele>
        <time>2018-05-21T11:36:09Z</time>
      </trkpt>
      <trkpt lat="43.0013" lon="2.62492">
        <ele>340</ele>
        <time>2018-05-21T11:36:12Z</time>
      </trkpt>
      <trkpt lat="43.00138" lon="2.62532">
        <ele>338</ele>
        <time>2018-05-21T11:36:15Z</time>
      </trkpt>
      <trkpt lat="43.00157" lon="2.62558">
        <ele>337</ele>
        <time>2018-05-21T11:36:18Z</time>
      </trkpt>
      <trkpt lat="43.00184" lon="2.6256">
        <ele>336</ele>
        <time>2018-05-21T11:36:21Z</time>
      </trkpt>
      <trkpt lat="43.00228" lon="2.62587">
        <ele>333</ele>
        <time>2018-05-21T11:36:28Z</time>
      </trkpt>
      <trkpt lat="43.00252" lon="2.6259">
        <ele>331</ele>
        <time>2018-05-21T11:36:32Z</time>
      </trkpt>
      <trkpt lat="43.00375" lon="2.62534">
        <ele>328</ele>
        <time>2018-05-21T11:36:57Z</time>
      </trkpt>
      <trkpt lat="43.00423" lon="2.62548">
        <ele>327</ele>
        <time>2018-05-21T11:37:08Z</time>
      </trkpt>
      <trkpt lat="43.00492" lon="2.6264">
        <ele>326</ele>
        <time>2018-05-21T11:37:31Z</time>
      </trkpt>
      <trkpt lat="43.00517" lon="2.62692">
        <ele>327</ele>
        <time>2018-05-21T11:37:53Z</time>
      </trkpt>
      <trkpt lat="43.00559" lon="2.62719">
        <ele>331</ele>
        <time>2018-05-21T11:38:18Z</time>
      </trkpt>
      <trkpt lat="43.00569" lon="2.62751">
        <ele>330</ele>
        <time>2018-05-21T11:38:50Z</time>
      </trkpt>
      <trkpt lat="43.00569" lon="2.62749">
        <ele>328</ele>
        <time>2018-05-21T11:39:28Z</time>
      </trkpt>
      <trkpt lat="43.00617" lon="2.62759">
        <ele>324</ele>
        <time>2018-05-21T11:39:41Z</time>
      </trkpt>
      <trkpt lat="43.00639" lon="2.62744">
        <ele>322</ele>
        <time>2018-05-21T11:39:47Z</time>
      </trkpt>
      <trkpt lat="43.00649" lon="2.62713">
        <ele>320</ele>
        <time>2018-05-21T11:39:54Z</time>
      </trkpt>
      <trkpt lat="43.00653" lon="2.62683">
        <ele>316</ele>
        <time>2018-05-21T11:41:08Z</time>
      </trkpt>
      <trkpt lat="43.00663" lon="2.62712">
        <ele>313</ele>
        <time>2018-05-21T12:17:15Z</time>
      </trkpt>
      <trkpt lat="43.00688" lon="2.62715">
        <ele>314</ele>
        <time>2018-05-21T12:17:28Z</time>
      </trkpt>
      <trkpt lat="43.0071" lon="2.62704">
        <ele>314</ele>
        <time>2018-05-21T12:17:46Z</time>
      </trkpt>
      <trkpt lat="43.00718" lon="2.62675">
        <ele>315</ele>
        <time>2018-05-21T12:18:00Z</time>
      </trkpt>
      <trkpt lat="43.00739" lon="2.62664">
        <ele>316</ele>
        <time>2018-05-21T12:18:20Z</time>
      </trkpt>
      <trkpt lat="43.00742" lon="2.62696">
        <ele>316</ele>
        <time>2018-05-21T12:18:34Z</time>
      </trkpt>
      <trkpt lat="43.00723" lon="2.62789">
        <ele>318</ele>
        <time>2018-05-21T12:19:07Z</time>
      </trkpt>
      <trkpt lat="43.00711" lon="2.62815">
        <ele>318</ele>
        <time>2018-05-21T12:19:15Z</time>
      </trkpt>
      <trkpt lat="43.00715" lon="2.62916">
        <ele>318</ele>
        <time>2018-05-21T12:19:43Z</time>
      </trkpt>
      <trkpt lat="43.00711" lon="2.62947">
        <ele>319</ele>
        <time>2018-05-21T12:19:52Z</time>
      </trkpt>
      <trkpt lat="43.00694" lon="2.62971">
        <ele>320</ele>
        <time>2018-05-21T12:20:03Z</time>
      </trkpt>
      <trkpt lat="43.0067" lon="2.63025">
        <ele>319</ele>
        <time>2018-05-21T12:20:27Z</time>
      </trkpt>
      <trkpt lat="43.00673" lon="2.6306">
        <ele>319</ele>
        <time>2018-05-21T12:20:58Z</time>
      </trkpt>
      <trkpt lat="43.00688" lon="2.6312">
        <ele>321</ele>
        <time>2018-05-21T12:21:15Z</time>
      </trkpt>
      <trkpt lat="43.00693" lon="2.63182">
        <ele>322</ele>
        <time>2018-05-21T12:21:38Z</time>
      </trkpt>
      <trkpt lat="43.00698" lon="2.63246">
        <ele>324</ele>
        <time>2018-05-21T12:22:02Z</time>
      </trkpt>
      <trkpt lat="43.00726" lon="2.63337">
        <ele>327</ele>
        <time>2018-05-21T12:22:39Z</time>
      </trkpt>
      <trkpt lat="43.00752" lon="2.63426">
        <ele>330</ele>
        <time>2018-05-21T12:23:12Z</time>
      </trkpt>
      <trkpt lat="43.00769" lon="2.63484">
        <ele>332</ele>
        <time>2018-05-21T12:23:33Z</time>
      </trkpt>
      <trkpt lat="43.00818" lon="2.63555">
        <ele>336</ele>
        <time>2018-05-21T12:24:05Z</time>
      </trkpt>
      <trkpt lat="43.00827" lon="2.63584">
        <ele>337</ele>
        <time>2018-05-21T12:24:16Z</time>
      </trkpt>
      <trkpt lat="43.00836" lon="2.63613">
        <ele>341</ele>
        <time>2018-05-21T12:24:30Z</time>
      </trkpt>
      <trkpt lat="43.00828" lon="2.63641">
        <ele>351</ele>
        <time>2018-05-21T12:26:30Z</time>
      </trkpt>
      <trkpt lat="43.00812" lon="2.63703">
        <ele>350</ele>
        <time>2018-05-21T12:26:43Z</time>
      </trkpt>
      <trkpt lat="43.00771" lon="2.63785">
        <ele>349</ele>
        <time>2018-05-21T12:26:58Z</time>
      </trkpt>
      <trkpt lat="43.00736" lon="2.63981">
        <ele>345</ele>
        <time>2018-05-21T12:27:28Z</time>
      </trkpt>
      <trkpt lat="43.00734" lon="2.64012">
        <ele>345</ele>
        <time>2018-05-21T12:27:33Z</time>
      </trkpt>
      <trkpt lat="43.00758" lon="2.64108">
        <ele>345</ele>
        <time>2018-05-21T12:27:49Z</time>
      </trkpt>
      <trkpt lat="43.00755" lon="2.64139">
        <ele>344</ele>
        <time>2018-05-21T12:27:54Z</time>
      </trkpt>
      <trkpt lat="43.00733" lon="2.6415">
        <ele>345</ele>
        <time>2018-05-21T12:28:01Z</time>
      </trkpt>
      <trkpt lat="43.00716" lon="2.64169">
        <ele>346</ele>
        <time>2018-05-21T12:28:08Z</time>
      </trkpt>
      <trkpt lat="43.00714" lon="2.64332">
        <ele>350</ele>
        <time>2018-05-21T12:28:44Z</time>
      </trkpt>
      <trkpt lat="43.00707" lon="2.64461">
        <ele>354</ele>
        <time>2018-05-21T12:29:21Z</time>
      </trkpt>
      <trkpt lat="43.00717" lon="2.64585">
        <ele>356</ele>
        <time>2018-05-21T12:29:55Z</time>
      </trkpt>
      <trkpt lat="43.0073" lon="2.64713">
        <ele>358</ele>
        <time>2018-05-21T12:30:27Z</time>
      </trkpt>
      <trkpt lat="43.0073" lon="2.64746">
        <ele>360</ele>
        <time>2018-05-21T12:30:34Z</time>
      </trkpt>
      <trkpt lat="43.00709" lon="2.64803">
        <ele>362</ele>
        <time>2018-05-21T12:30:51Z</time>
      </trkpt>
      <trkpt lat="43.00634" lon="2.64931">
        <ele>361</ele>
        <time>2018-05-21T12:31:22Z</time>
      </trkpt>
      <trkpt lat="43.00618" lon="2.64954">
        <ele>361</ele>
        <time>2018-05-21T12:31:27Z</time>
      </trkpt>
      <trkpt lat="43.00595" lon="2.64965">
        <ele>361</ele>
        <time>2018-05-21T12:31:30Z</time>
      </trkpt>
      <trkpt lat="43.00576" lon="2.64986">
        <ele>361</ele>
        <time>2018-05-21T12:31:35Z</time>
      </trkpt>
      <trkpt lat="43.00573" lon="2.65021">
        <ele>360</ele>
        <time>2018-05-21T12:31:38Z</time>
      </trkpt>
      <trkpt lat="43.00553" lon="2.65054">
        <ele>359</ele>
        <time>2018-05-21T12:31:43Z</time>
      </trkpt>
      <trkpt lat="43.00526" lon="2.65041">
        <ele>358</ele>
        <time>2018-05-21T12:31:47Z</time>
      </trkpt>
      <trkpt lat="43.00504" lon="2.65054">
        <ele>357</ele>
        <time>2018-05-21T12:31:51Z</time>
      </trkpt>
      <trkpt lat="43.00489" lon="2.65079">
        <ele>356</ele>
        <time>2018-05-21T12:31:56Z</time>
      </trkpt>
      <trkpt lat="43.00487" lon="2.65114">
        <ele>355</ele>
        <time>2018-05-21T12:32:24Z</time>
      </trkpt>
      <trkpt lat="43.00511" lon="2.6513">
        <ele>354</ele>
        <time>2018-05-21T12:32:28Z</time>
      </trkpt>
      <trkpt lat="43.00533" lon="2.65152">
        <ele>354</ele>
        <time>2018-05-21T12:32:33Z</time>
      </trkpt>
      <trkpt lat="43.00546" lon="2.65179">
        <ele>353</ele>
        <time>2018-05-21T12:32:36Z</time>
      </trkpt>
      <trkpt lat="43.00545" lon="2.6529">
        <ele>349</ele>
        <time>2018-05-21T12:32:47Z</time>
      </trkpt>
      <trkpt lat="43.0051" lon="2.65577">
        <ele>338</ele>
        <time>2018-05-21T12:33:14Z</time>
      </trkpt>
      <trkpt lat="43.00499" lon="2.65605">
        <ele>336</ele>
        <time>2018-05-21T12:33:17Z</time>
      </trkpt>
      <trkpt lat="43.00469" lon="2.65603">
        <ele>334</ele>
        <time>2018-05-21T12:33:21Z</time>
      </trkpt>
      <trkpt lat="43.00445" lon="2.65577">
        <ele>332</ele>
        <time>2018-05-21T12:33:25Z</time>
      </trkpt>
      <trkpt lat="43.00423" lon="2.65566">
        <ele>331</ele>
        <time>2018-05-21T12:33:28Z</time>
      </trkpt>
      <trkpt lat="43.00402" lon="2.65578">
        <ele>330</ele>
        <time>2018-05-21T12:33:31Z</time>
      </trkpt>
      <trkpt lat="43.00403" lon="2.65615">
        <ele>329</ele>
        <time>2018-05-21T12:33:35Z</time>
      </trkpt>
      <trkpt lat="43.00415" lon="2.65651">
        <ele>329</ele>
        <time>2018-05-21T12:33:39Z</time>
      </trkpt>
      <trkpt lat="43.00454" lon="2.6569">
        <ele>328</ele>
        <time>2018-05-21T12:33:45Z</time>
      </trkpt>
      <trkpt lat="43.00474" lon="2.65714">
        <ele>327</ele>
        <time>2018-05-21T12:33:49Z</time>
      </trkpt>
      <trkpt lat="43.00494" lon="2.65735">
        <ele>327</ele>
        <time>2018-05-21T12:33:53Z</time>
      </trkpt>
      <trkpt lat="43.00523" lon="2.65788">
        <ele>325</ele>
        <time>2018-05-21T12:34:00Z</time>
      </trkpt>
      <trkpt lat="43.00536" lon="2.65854">
        <ele>322</ele>
        <time>2018-05-21T12:34:10Z</time>
      </trkpt>
      <trkpt lat="43.00545" lon="2.65927">
        <ele>321</ele>
        <time>2018-05-21T12:34:21Z</time>
      </trkpt>
      <trkpt lat="43.00529" lon="2.65949">
        <ele>320</ele>
        <time>2018-05-21T12:34:23Z</time>
      </trkpt>
      <trkpt lat="43.0051" lon="2.65978">
        <ele>319</ele>
        <time>2018-05-21T12:34:27Z</time>
      </trkpt>
      <trkpt lat="43.00516" lon="2.6601">
        <ele>319</ele>
        <time>2018-05-21T12:34:31Z</time>
      </trkpt>
      <trkpt lat="43.00536" lon="2.66033">
        <ele>319</ele>
        <time>2018-05-21T12:34:36Z</time>
      </trkpt>
      <trkpt lat="43.0055" lon="2.66066">
        <ele>319</ele>
        <time>2018-05-21T12:34:41Z</time>
      </trkpt>
      <trkpt lat="43.00557" lon="2.66133">
        <ele>318</ele>
        <time>2018-05-21T12:34:50Z</time>
      </trkpt>
      <trkpt lat="43.00549" lon="2.66167">
        <ele>318</ele>
        <time>2018-05-21T12:34:55Z</time>
      </trkpt>
      <trkpt lat="43.00562" lon="2.66196">
        <ele>317</ele>
        <time>2018-05-21T12:34:59Z</time>
      </trkpt>
      <trkpt lat="43.00563" lon="2.66234">
        <ele>317</ele>
        <time>2018-05-21T12:35:04Z</time>
      </trkpt>
      <trkpt lat="43.00567" lon="2.66267">
        <ele>315</ele>
        <time>2018-05-21T12:35:08Z</time>
      </trkpt>
      <trkpt lat="43.00602" lon="2.66315">
        <ele>314</ele>
        <time>2018-05-21T12:35:16Z</time>
      </trkpt>
      <trkpt lat="43.00618" lon="2.66514">
        <ele>311</ele>
        <time>2018-05-21T12:35:40Z</time>
      </trkpt>
      <trkpt lat="43.006" lon="2.66541">
        <ele>310</ele>
        <time>2018-05-21T12:35:45Z</time>
      </trkpt>
      <trkpt lat="43.00576" lon="2.66546">
        <ele>309</ele>
        <time>2018-05-21T12:35:48Z</time>
      </trkpt>
      <trkpt lat="43.00537" lon="2.66582">
        <ele>306</ele>
        <time>2018-05-21T12:35:54Z</time>
      </trkpt>
      <trkpt lat="43.00534" lon="2.66614">
        <ele>304</ele>
        <time>2018-05-21T12:35:57Z</time>
      </trkpt>
      <trkpt lat="43.00554" lon="2.66631">
        <ele>303</ele>
        <time>2018-05-21T12:36:00Z</time>
      </trkpt>
      <trkpt lat="43.00578" lon="2.66629">
        <ele>302</ele>
        <time>2018-05-21T12:36:04Z</time>
      </trkpt>
      <trkpt lat="43.00601" lon="2.66641">
        <ele>302</ele>
        <time>2018-05-21T12:36:10Z</time>
      </trkpt>
      <trkpt lat="43.00622" lon="2.66658">
        <ele>302</ele>
        <time>2018-05-21T12:36:17Z</time>
      </trkpt>
      <trkpt lat="43.00642" lon="2.66677">
        <ele>303</ele>
        <time>2018-05-21T12:36:27Z</time>
      </trkpt>
      <trkpt lat="43.00657" lon="2.66738">
        <ele>305</ele>
        <time>2018-05-21T12:36:49Z</time>
      </trkpt>
      <trkpt lat="43.00678" lon="2.66753">
        <ele>307</ele>
        <time>2018-05-21T12:36:56Z</time>
      </trkpt>
      <trkpt lat="43.0068" lon="2.66784">
        <ele>308</ele>
        <time>2018-05-21T12:37:07Z</time>
      </trkpt>
      <trkpt lat="43.00729" lon="2.66898">
        <ele>312</ele>
        <time>2018-05-21T12:37:44Z</time>
      </trkpt>
      <trkpt lat="43.00736" lon="2.6693">
        <ele>312</ele>
        <time>2018-05-21T12:37:53Z</time>
      </trkpt>
      <trkpt lat="43.00728" lon="2.66994">
        <ele>312</ele>
        <time>2018-05-21T12:38:09Z</time>
      </trkpt>
      <trkpt lat="43.0072" lon="2.67024">
        <ele>313</ele>
        <time>2018-05-21T12:38:18Z</time>
      </trkpt>
      <trkpt lat="43.00689" lon="2.67072">
        <ele>313</ele>
        <time>2018-05-21T12:38:37Z</time>
      </trkpt>
      <trkpt lat="43.00671" lon="2.67093">
        <ele>313</ele>
        <time>2018-05-21T12:38:46Z</time>
      </trkpt>
      <trkpt lat="43.00675" lon="2.67158">
        <ele>314</ele>
        <time>2018-05-21T12:39:02Z</time>
      </trkpt>
      <trkpt lat="43.0067" lon="2.67225">
        <ele>315</ele>
        <time>2018-05-21T12:39:15Z</time>
      </trkpt>
      <trkpt lat="43.0062" lon="2.67334">
        <ele>319</ele>
        <time>2018-05-21T12:39:49Z</time>
      </trkpt>
      <trkpt lat="43.00604" lon="2.67357">
        <ele>320</ele>
        <time>2018-05-21T12:39:58Z</time>
      </trkpt>
      <trkpt lat="43.00573" lon="2.67408">
        <ele>320</ele>
        <time>2018-05-21T12:40:18Z</time>
      </trkpt>
      <trkpt lat="43.00553" lon="2.67429">
        <ele>319</ele>
        <time>2018-05-21T12:40:26Z</time>
      </trkpt>
      <trkpt lat="43.0053" lon="2.67436">
        <ele>319</ele>
        <time>2018-05-21T12:40:33Z</time>
      </trkpt>
      <trkpt lat="43.00509" lon="2.67453">
        <ele>318</ele>
        <time>2018-05-21T12:40:41Z</time>
      </trkpt>
      <trkpt lat="43.00514" lon="2.67483">
        <ele>317</ele>
        <time>2018-05-21T12:40:51Z</time>
      </trkpt>
      <trkpt lat="43.00529" lon="2.67507">
        <ele>318</ele>
        <time>2018-05-21T12:41:01Z</time>
      </trkpt>
      <trkpt lat="43.00556" lon="2.67631">
        <ele>322</ele>
        <time>2018-05-21T12:41:39Z</time>
      </trkpt>
      <trkpt lat="43.00562" lon="2.67663">
        <ele>323</ele>
        <time>2018-05-21T12:41:47Z</time>
      </trkpt>
      <trkpt lat="43.00551" lon="2.67691">
        <ele>324</ele>
        <time>2018-05-21T12:41:57Z</time>
      </trkpt>
      <trkpt lat="43.00527" lon="2.67701">
        <ele>323</ele>
        <time>2018-05-21T12:42:03Z</time>
      </trkpt>
      <trkpt lat="43.00509" lon="2.67722">
        <ele>323</ele>
        <time>2018-05-21T12:42:11Z</time>
      </trkpt>
      <trkpt lat="43.00486" lon="2.67778">
        <ele>326</ele>
        <time>2018-05-21T12:42:28Z</time>
      </trkpt>
      <trkpt lat="43.00479" lon="2.6781">
        <ele>326</ele>
        <time>2018-05-21T12:42:37Z</time>
      </trkpt>
      <trkpt lat="43.00495" lon="2.67835">
        <ele>327</ele>
        <time>2018-05-21T12:42:46Z</time>
      </trkpt>
      <trkpt lat="43.00514" lon="2.67857">
        <ele>328</ele>
        <time>2018-05-21T12:42:54Z</time>
      </trkpt>
      <trkpt lat="43.00513" lon="2.67925">
        <ele>329</ele>
        <time>2018-05-21T12:43:12Z</time>
      </trkpt>
      <trkpt lat="43.00512" lon="2.67955">
        <ele>329</ele>
        <time>2018-05-21T12:43:20Z</time>
      </trkpt>
      <trkpt lat="43.00532" lon="2.68013">
        <ele>330</ele>
        <time>2018-05-21T12:43:36Z</time>
      </trkpt>
      <trkpt lat="43.00536" lon="2.68047">
        <ele>332</ele>
        <time>2018-05-21T12:43:44Z</time>
      </trkpt>
      <trkpt lat="43.00533" lon="2.68077">
        <ele>333</ele>
        <time>2018-05-21T12:43:52Z</time>
      </trkpt>
      <trkpt lat="43.00533" lon="2.6811">
        <ele>333</ele>
        <time>2018-05-21T12:44:01Z</time>
      </trkpt>
      <trkpt lat="43.00552" lon="2.68131">
        <ele>332</ele>
        <time>2018-05-21T12:44:09Z</time>
      </trkpt>
      <trkpt lat="43.00548" lon="2.68165">
        <ele>332</ele>
        <time>2018-05-21T12:44:16Z</time>
      </trkpt>
      <trkpt lat="43.00534" lon="2.68188">
        <ele>334</ele>
        <time>2018-05-21T12:44:23Z</time>
      </trkpt>
      <trkpt lat="43.00515" lon="2.68208">
        <ele>335</ele>
        <time>2018-05-21T12:44:27Z</time>
      </trkpt>
      <trkpt lat="43.00521" lon="2.68241">
        <ele>337</ele>
        <time>2018-05-21T12:44:32Z</time>
      </trkpt>
      <trkpt lat="43.00548" lon="2.68292">
        <ele>334</ele>
        <time>2018-05-21T12:44:41Z</time>
      </trkpt>
      <trkpt lat="43.00548" lon="2.68323">
        <ele>334</ele>
        <time>2018-05-21T12:44:45Z</time>
      </trkpt>
      <trkpt lat="43.00471" lon="2.68322">
        <ele>333</ele>
        <time>2018-05-21T12:45:01Z</time>
      </trkpt>
      <trkpt lat="43.00449" lon="2.68337">
        <ele>333</ele>
        <time>2018-05-21T12:45:08Z</time>
      </trkpt>
      <trkpt lat="43.00448" lon="2.68368">
        <ele>334</ele>
        <time>2018-05-21T12:45:15Z</time>
      </trkpt>
      <trkpt lat="43.00472" lon="2.68424">
        <ele>331</ele>
        <time>2018-05-21T12:45:31Z</time>
      </trkpt>
      <trkpt lat="43.0049" lon="2.68444">
        <ele>331</ele>
        <time>2018-05-21T12:45:38Z</time>
      </trkpt>
      <trkpt lat="43.0054" lon="2.68453">
        <ele>331</ele>
        <time>2018-05-21T12:45:49Z</time>
      </trkpt>
      <trkpt lat="43.00562" lon="2.68473">
        <ele>332</ele>
        <time>2018-05-21T12:45:55Z</time>
      </trkpt>
      <trkpt lat="43.00575" lon="2.68502">
        <ele>332</ele>
        <time>2018-05-21T12:46:02Z</time>
      </trkpt>
      <trkpt lat="43.00557" lon="2.68667">
        <ele>333</ele>
        <time>2018-05-21T12:46:33Z</time>
      </trkpt>
      <trkpt lat="43.00539" lon="2.68729">
        <ele>332</ele>
        <time>2018-05-21T12:46:48Z</time>
      </trkpt>
      <trkpt lat="43.00539" lon="2.68825">
        <ele>331</ele>
        <time>2018-05-21T12:47:09Z</time>
      </trkpt>
      <trkpt lat="43.00531" lon="2.68856">
        <ele>331</ele>
        <time>2018-05-21T12:47:16Z</time>
      </trkpt>
      <trkpt lat="43.00523" lon="2.68886">
        <ele>332</ele>
        <time>2018-05-21T12:47:24Z</time>
      </trkpt>
      <trkpt lat="43.00493" lon="2.68939">
        <ele>333</ele>
        <time>2018-05-21T12:47:42Z</time>
      </trkpt>
      <trkpt lat="43.00484" lon="2.69003">
        <ele>338</ele>
        <time>2018-05-21T12:48:04Z</time>
      </trkpt>
      <trkpt lat="43.00481" lon="2.69035">
        <ele>340</ele>
        <time>2018-05-21T12:48:14Z</time>
      </trkpt>
      <trkpt lat="43.00455" lon="2.69089">
        <ele>342</ele>
        <time>2018-05-21T12:48:32Z</time>
      </trkpt>
      <trkpt lat="43.00443" lon="2.69152">
        <ele>342</ele>
        <time>2018-05-21T12:48:51Z</time>
      </trkpt>
      <trkpt lat="43.00413" lon="2.69241">
        <ele>343</ele>
        <time>2018-05-21T12:49:21Z</time>
      </trkpt>
      <trkpt lat="43.00367" lon="2.69314">
        <ele>346</ele>
        <time>2018-05-21T12:49:50Z</time>
      </trkpt>
      <trkpt lat="43.00333" lon="2.69362">
        <ele>349</ele>
        <time>2018-05-21T12:50:09Z</time>
      </trkpt>
      <trkpt lat="43.00301" lon="2.69481">
        <ele>351</ele>
        <time>2018-05-21T12:50:48Z</time>
      </trkpt>
      <trkpt lat="43.00293" lon="2.69512">
        <ele>351</ele>
        <time>2018-05-21T12:51:00Z</time>
      </trkpt>
      <trkpt lat="43.00281" lon="2.69639">
        <ele>353</ele>
        <time>2018-05-21T12:51:40Z</time>
      </trkpt>
      <trkpt lat="43.00273" lon="2.69702">
        <ele>355</ele>
        <time>2018-05-21T12:52:00Z</time>
      </trkpt>
      <trkpt lat="43.00314" lon="2.69822">
        <ele>360</ele>
        <time>2018-05-21T12:52:33Z</time>
      </trkpt>
      <trkpt lat="43.00321" lon="2.69957">
        <ele>361</ele>
        <time>2018-05-21T12:53:05Z</time>
      </trkpt>
      <trkpt lat="43.00326" lon="2.70056">
        <ele>360</ele>
        <time>2018-05-21T12:53:23Z</time>
      </trkpt>
      <trkpt lat="43.00332" lon="2.70088">
        <ele>359</ele>
        <time>2018-05-21T12:53:28Z</time>
      </trkpt>
      <trkpt lat="43.00355" lon="2.70257">
        <ele>353</ele>
        <time>2018-05-21T12:53:49Z</time>
      </trkpt>
      <trkpt lat="43.00364" lon="2.70288">
        <ele>351</ele>
        <time>2018-05-21T12:53:53Z</time>
      </trkpt>
      <trkpt lat="43.00375" lon="2.70319">
        <ele>350</ele>
        <time>2018-05-21T12:53:57Z</time>
      </trkpt>
      <trkpt lat="43.00386" lon="2.70346">
        <ele>349</ele>
        <time>2018-05-21T12:54:01Z</time>
      </trkpt>
      <trkpt lat="43.00387" lon="2.70378">
        <ele>348</ele>
        <time>2018-05-21T12:54:07Z</time>
      </trkpt>
      <trkpt lat="43.00401" lon="2.70404">
        <ele>346</ele>
        <time>2018-05-21T12:56:46Z</time>
      </trkpt>
      <trkpt lat="43.00409" lon="2.7044">
        <ele>345</ele>
        <time>2018-05-21T12:56:51Z</time>
      </trkpt>
      <trkpt lat="43.00418" lon="2.70468">
        <ele>344</ele>
        <time>2018-05-21T12:56:55Z</time>
      </trkpt>
      <trkpt lat="43.00432" lon="2.70494">
        <ele>343</ele>
        <time>2018-05-21T12:56:59Z</time>
      </trkpt>
      <trkpt lat="43.00442" lon="2.70522">
        <ele>342</ele>
        <time>2018-05-21T12:57:03Z</time>
      </trkpt>
      <trkpt lat="43.00439" lon="2.70554">
        <ele>342</ele>
        <time>2018-05-21T12:57:07Z</time>
      </trkpt>
      <trkpt lat="43.00443" lon="2.70586">
        <ele>341</ele>
        <time>2018-05-21T12:57:11Z</time>
      </trkpt>
      <trkpt lat="43.00462" lon="2.70614">
        <ele>339</ele>
        <time>2018-05-21T12:57:15Z</time>
      </trkpt>
      <trkpt lat="43.00462" lon="2.70689">
        <ele>337</ele>
        <time>2018-05-21T12:57:22Z</time>
      </trkpt>
      <trkpt lat="43.00455" lon="2.7072">
        <ele>335</ele>
        <time>2018-05-21T12:57:25Z</time>
      </trkpt>
      <trkpt lat="43.00454" lon="2.70756">
        <ele>333</ele>
        <time>2018-05-21T12:57:28Z</time>
      </trkpt>
      <trkpt lat="43.00464" lon="2.70827">
        <ele>329</ele>
        <time>2018-05-21T12:57:34Z</time>
      </trkpt>
      <trkpt lat="43.00463" lon="2.70862">
        <ele>327</ele>
        <time>2018-05-21T12:57:37Z</time>
      </trkpt>
      <trkpt lat="43.00467" lon="2.70898">
        <ele>325</ele>
        <time>2018-05-21T12:57:40Z</time>
      </trkpt>
      <trkpt lat="43.00462" lon="2.71069">
        <ele>319</ele>
        <time>2018-05-21T12:57:55Z</time>
      </trkpt>
      <trkpt lat="43.00472" lon="2.71134">
        <ele>314</ele>
        <time>2018-05-21T12:58:01Z</time>
      </trkpt>
      <trkpt lat="43.00466" lon="2.71214">
        <ele>310</ele>
        <time>2018-05-21T12:58:09Z</time>
      </trkpt>
      <trkpt lat="43.00476" lon="2.71251">
        <ele>308</ele>
        <time>2018-05-21T12:58:13Z</time>
      </trkpt>
      <trkpt lat="43.00491" lon="2.71279">
        <ele>307</ele>
        <time>2018-05-21T12:58:17Z</time>
      </trkpt>
      <trkpt lat="43.00496" lon="2.71347">
        <ele>306</ele>
        <time>2018-05-21T12:58:25Z</time>
      </trkpt>
      <trkpt lat="43.00493" lon="2.71377">
        <ele>306</ele>
        <time>2018-05-21T12:58:28Z</time>
      </trkpt>
      <trkpt lat="43.005" lon="2.71451">
        <ele>304</ele>
        <time>2018-05-21T12:58:36Z</time>
      </trkpt>
      <trkpt lat="43.00529" lon="2.7155">
        <ele>302</ele>
        <time>2018-05-21T12:58:48Z</time>
      </trkpt>
      <trkpt lat="43.00543" lon="2.71581">
        <ele>301</ele>
        <time>2018-05-21T12:58:52Z</time>
      </trkpt>
      <trkpt lat="43.00556" lon="2.71616">
        <ele>300</ele>
        <time>2018-05-21T12:58:56Z</time>
      </trkpt>
      <trkpt lat="43.00559" lon="2.71687">
        <ele>298</ele>
        <time>2018-05-21T12:59:04Z</time>
      </trkpt>
      <trkpt lat="43.00564" lon="2.71719">
        <ele>297</ele>
        <time>2018-05-21T12:59:09Z</time>
      </trkpt>
      <trkpt lat="43.00577" lon="2.71745">
        <ele>294</ele>
        <time>2018-05-21T13:01:23Z</time>
      </trkpt>
      <trkpt lat="43.00605" lon="2.71807">
        <ele>292</ele>
        <time>2018-05-21T13:01:34Z</time>
      </trkpt>
      <trkpt lat="43.00615" lon="2.7184">
        <ele>292</ele>
        <time>2018-05-21T13:01:39Z</time>
      </trkpt>
      <trkpt lat="43.00614" lon="2.71911">
        <ele>292</ele>
        <time>2018-05-21T13:01:48Z</time>
      </trkpt>
      <trkpt lat="43.00647" lon="2.71965">
        <ele>292</ele>
        <time>2018-05-21T13:01:56Z</time>
      </trkpt>
      <trkpt lat="43.00653" lon="2.72002">
        <ele>292</ele>
        <time>2018-05-21T13:02:00Z</time>
      </trkpt>
      <trkpt lat="43.00658" lon="2.72041">
        <ele>290</ele>
        <time>2018-05-21T13:02:04Z</time>
      </trkpt>
      <trkpt lat="43.00688" lon="2.72099">
        <ele>286</ele>
        <time>2018-05-21T13:02:11Z</time>
      </trkpt>
      <trkpt lat="43.00698" lon="2.72138">
        <ele>285</ele>
        <time>2018-05-21T13:02:15Z</time>
      </trkpt>
      <trkpt lat="43.00692" lon="2.72168">
        <ele>284</ele>
        <time>2018-05-21T13:02:18Z</time>
      </trkpt>
      <trkpt lat="43.0069" lon="2.72208">
        <ele>283</ele>
        <time>2018-05-21T13:02:22Z</time>
      </trkpt>
      <trkpt lat="43.00703" lon="2.72236">
        <ele>282</ele>
        <time>2018-05-21T13:02:25Z</time>
      </trkpt>
      <trkpt lat="43.00714" lon="2.72264">
        <ele>281</ele>
        <time>2018-05-21T13:02:28Z</time>
      </trkpt>
      <trkpt lat="43.00715" lon="2.72296">
        <ele>279</ele>
        <time>2018-05-21T13:02:31Z</time>
      </trkpt>
      <trkpt lat="43.00748" lon="2.72388">
        <ele>273</ele>
        <time>2018-05-21T13:02:40Z</time>
      </trkpt>
      <trkpt lat="43.00748" lon="2.72457">
        <ele>270</ele>
        <time>2018-05-21T13:02:46Z</time>
      </trkpt>
      <trkpt lat="43.00752" lon="2.72525">
        <ele>268</ele>
        <time>2018-05-21T13:02:52Z</time>
      </trkpt>
      <trkpt lat="43.00712" lon="2.72699">
        <ele>268</ele>
        <time>2018-05-21T13:03:12Z</time>
      </trkpt>
      <trkpt lat="43.00717" lon="2.72927">
        <ele>262</ele>
        <time>2018-05-21T13:03:44Z</time>
      </trkpt>
      <trkpt lat="43.00719" lon="2.72995">
        <ele>260</ele>
        <time>2018-05-21T13:03:53Z</time>
      </trkpt>
      <trkpt lat="43.00715" lon="2.73026">
        <ele>259</ele>
        <time>2018-05-21T13:03:57Z</time>
      </trkpt>
      <trkpt lat="43.00624" lon="2.73126">
        <ele>254</ele>
        <time>2018-05-21T13:04:17Z</time>
      </trkpt>
      <trkpt lat="43.00605" lon="2.73153">
        <ele>253</ele>
        <time>2018-05-21T13:04:22Z</time>
      </trkpt>
      <trkpt lat="43.006" lon="2.73185">
        <ele>253</ele>
        <time>2018-05-21T13:04:27Z</time>
      </trkpt>
      <trkpt lat="43.00603" lon="2.73218">
        <ele>253</ele>
        <time>2018-05-21T13:04:32Z</time>
      </trkpt>
      <trkpt lat="43.0062" lon="2.73277">
        <ele>252</ele>
        <time>2018-05-21T13:04:42Z</time>
      </trkpt>
      <trkpt lat="43.00618" lon="2.73308">
        <ele>251</ele>
        <time>2018-05-21T13:04:47Z</time>
      </trkpt>
      <trkpt lat="43.00614" lon="2.73343">
        <ele>251</ele>
        <time>2018-05-21T13:04:53Z</time>
      </trkpt>
      <trkpt lat="43.00605" lon="2.73374">
        <ele>250</ele>
        <time>2018-05-21T13:05:02Z</time>
      </trkpt>
      <trkpt lat="43.00623" lon="2.73393">
        <ele>250</ele>
        <time>2018-05-21T13:05:14Z</time>
      </trkpt>
      <trkpt lat="43.00645" lon="2.73387">
        <ele>249</ele>
        <time>2018-05-21T13:05:25Z</time>
      </trkpt>
      <trkpt lat="43.00668" lon="2.73381">
        <ele>248</ele>
        <time>2018-05-21T13:05:39Z</time>
      </trkpt>
      <trkpt lat="43.00676" lon="2.7352">
        <ele>249</ele>
        <time>2018-05-21T13:06:14Z</time>
      </trkpt>
      <trkpt lat="43.00675" lon="2.73593">
        <ele>248</ele>
        <time>2018-05-21T13:06:24Z</time>
      </trkpt>
      <trkpt lat="43.00662" lon="2.73625">
        <ele>246</ele>
        <time>2018-05-21T13:06:29Z</time>
      </trkpt>
      <trkpt lat="43.00636" lon="2.73631">
        <ele>244</ele>
        <time>2018-05-21T13:06:33Z</time>
      </trkpt>
      <trkpt lat="43.00581" lon="2.73609">
        <ele>241</ele>
        <time>2018-05-21T13:06:41Z</time>
      </trkpt>
      <trkpt lat="43.00554" lon="2.73593">
        <ele>240</ele>
        <time>2018-05-21T13:06:45Z</time>
      </trkpt>
      <trkpt lat="43.00535" lon="2.73566">
        <ele>239</ele>
        <time>2018-05-21T13:06:49Z</time>
      </trkpt>
      <trkpt lat="43.00496" lon="2.73424">
        <ele>233</ele>
        <time>2018-05-21T13:07:04Z</time>
      </trkpt>
      <trkpt lat="43.00484" lon="2.73397">
        <ele>232</ele>
        <time>2018-05-21T13:07:07Z</time>
      </trkpt>
      <trkpt lat="43.00462" lon="2.73378">
        <ele>230</ele>
        <time>2018-05-21T13:07:11Z</time>
      </trkpt>
      <trkpt lat="43.00436" lon="2.73371">
        <ele>228</ele>
        <time>2018-05-21T13:07:15Z</time>
      </trkpt>
      <trkpt lat="43.00412" lon="2.73378">
        <ele>227</ele>
        <time>2018-05-21T13:07:19Z</time>
      </trkpt>
      <trkpt lat="43.0039" lon="2.73393">
        <ele>222</ele>
        <time>2018-05-21T13:08:52Z</time>
      </trkpt>
      <trkpt lat="43.00346" lon="2.73439">
        <ele>221</ele>
        <time>2018-05-21T13:09:03Z</time>
      </trkpt>
      <trkpt lat="43.00279" lon="2.73494">
        <ele>219</ele>
        <time>2018-05-21T13:09:15Z</time>
      </trkpt>
      <trkpt lat="43.00259" lon="2.73514">
        <ele>218</ele>
        <time>2018-05-21T13:09:20Z</time>
      </trkpt>
      <trkpt lat="43.00236" lon="2.73532">
        <ele>215</ele>
        <time>2018-05-21T13:10:34Z</time>
      </trkpt>
      <trkpt lat="43.00213" lon="2.7352">
        <ele>214</ele>
        <time>2018-05-21T13:10:39Z</time>
      </trkpt>
      <trkpt lat="43.00191" lon="2.73412">
        <ele>212</ele>
        <time>2018-05-21T13:10:51Z</time>
      </trkpt>
      <trkpt lat="43.00169" lon="2.73395">
        <ele>212</ele>
        <time>2018-05-21T13:10:54Z</time>
      </trkpt>
      <trkpt lat="43.00114" lon="2.73397">
        <ele>212</ele>
        <time>2018-05-21T13:11:02Z</time>
      </trkpt>
      <trkpt lat="43.00089" lon="2.73406">
        <ele>211</ele>
        <time>2018-05-21T13:11:07Z</time>
      </trkpt>
      <trkpt lat="43.00109" lon="2.73424">
        <ele>211</ele>
        <time>2018-05-21T13:11:18Z</time>
      </trkpt>
      <trkpt lat="43.00085" lon="2.73413">
        <ele>211</ele>
        <time>2018-05-21T13:11:54Z</time>
      </trkpt>
      <trkpt lat="43.00065" lon="2.73427">
        <ele>209</ele>
        <time>2018-05-21T13:12:02Z</time>
      </trkpt>
      <trkpt lat="43.00045" lon="2.73445">
        <ele>205</ele>
        <time>2018-05-21T13:13:13Z</time>
      </trkpt>
      <trkpt lat="43.00025" lon="2.73461">
        <ele>206</ele>
        <time>2018-05-21T13:13:22Z</time>
      </trkpt>
      <trkpt lat="43.00012" lon="2.73491">
        <ele>208</ele>
        <time>2018-05-21T13:13:30Z</time>
      </trkpt>
      <trkpt lat="43.0001" lon="2.73523">
        <ele>209</ele>
        <time>2018-05-21T13:13:34Z</time>
      </trkpt>
      <trkpt lat="42.99939" lon="2.73742">
        <ele>209</ele>
        <time>2018-05-21T13:14:08Z</time>
      </trkpt>
      <trkpt lat="42.99872" lon="2.73962">
        <ele>205</ele>
        <time>2018-05-21T13:14:39Z</time>
      </trkpt>
      <trkpt lat="42.99835" lon="2.7409">
        <ele>203</ele>
        <time>2018-05-21T13:14:57Z</time>
      </trkpt>
      <trkpt lat="42.99818" lon="2.74119">
        <ele>202</ele>
        <time>2018-05-21T13:15:02Z</time>
      </trkpt>
      <trkpt lat="42.9978" lon="2.74159">
        <ele>201</ele>
        <time>2018-05-21T13:15:11Z</time>
      </trkpt>
      <trkpt lat="42.99753" lon="2.74211">
        <ele>199</ele>
        <time>2018-05-21T13:15:20Z</time>
      </trkpt>
      <trkpt lat="42.99662" lon="2.74277">
        <ele>193</ele>
        <time>2018-05-21T13:15:40Z</time>
      </trkpt>
      <trkpt lat="42.99623" lon="2.7432">
        <ele>190</ele>
        <time>2018-05-21T13:15:50Z</time>
      </trkpt>
      <trkpt lat="42.99611" lon="2.74385">
        <ele>187</ele>
        <time>2018-05-21T13:15:59Z</time>
      </trkpt>
      <trkpt lat="42.99594" lon="2.74454">
        <ele>188</ele>
        <time>2018-05-21T13:16:09Z</time>
      </trkpt>
      <trkpt lat="42.99574" lon="2.74478">
        <ele>188</ele>
        <time>2018-05-21T13:16:14Z</time>
      </trkpt>
      <trkpt lat="42.99527" lon="2.74495">
        <ele>188</ele>
        <time>2018-05-21T13:16:47Z</time>
      </trkpt>
      <trkpt lat="42.99506" lon="2.74514">
        <ele>188</ele>
        <time>2018-05-21T13:16:55Z</time>
      </trkpt>
      <trkpt lat="42.99432" lon="2.74514">
        <ele>185</ele>
        <time>2018-05-21T13:17:11Z</time>
      </trkpt>
      <trkpt lat="42.99405" lon="2.74523">
        <ele>184</ele>
        <time>2018-05-21T13:17:16Z</time>
      </trkpt>
      <trkpt lat="42.99327" lon="2.74624">
        <ele>182</ele>
        <time>2018-05-21T13:17:32Z</time>
      </trkpt>
      <trkpt lat="42.99303" lon="2.74647">
        <ele>181</ele>
        <time>2018-05-21T13:17:36Z</time>
      </trkpt>
      <trkpt lat="42.99278" lon="2.74665">
        <ele>181</ele>
        <time>2018-05-21T13:17:40Z</time>
      </trkpt>
      <trkpt lat="42.99255" lon="2.74653">
        <ele>180</ele>
        <time>2018-05-21T13:17:44Z</time>
      </trkpt>
      <trkpt lat="42.99199" lon="2.74583">
        <ele>177</ele>
        <time>2018-05-21T13:17:56Z</time>
      </trkpt>
      <trkpt lat="42.99177" lon="2.74574">
        <ele>175</ele>
        <time>2018-05-21T13:18:10Z</time>
      </trkpt>
      <trkpt lat="42.99146" lon="2.74633">
        <ele>169</ele>
        <time>2018-05-21T13:18:21Z</time>
      </trkpt>
      <trkpt lat="42.99103" lon="2.74676">
        <ele>166</ele>
        <time>2018-05-21T13:18:29Z</time>
      </trkpt>
      <trkpt lat="42.99057" lon="2.74705">
        <ele>165</ele>
        <time>2018-05-21T13:18:37Z</time>
      </trkpt>
      <trkpt lat="42.99048" lon="2.74733">
        <ele>164</ele>
        <time>2018-05-21T13:18:41Z</time>
      </trkpt>
      <trkpt lat="42.9905" lon="2.74764">
        <ele>164</ele>
        <time>2018-05-21T13:18:45Z</time>
      </trkpt>
      <trkpt lat="42.99096" lon="2.74856">
        <ele>165</ele>
        <time>2018-05-21T13:18:57Z</time>
      </trkpt>
      <trkpt lat="42.99186" lon="2.7499">
        <ele>165</ele>
        <time>2018-05-21T13:19:18Z</time>
      </trkpt>
      <trkpt lat="42.99203" lon="2.75054">
        <ele>164</ele>
        <time>2018-05-21T13:19:27Z</time>
      </trkpt>
      <trkpt lat="42.99201" lon="2.75087">
        <ele>163</ele>
        <time>2018-05-21T13:19:31Z</time>
      </trkpt>
      <trkpt lat="42.99193" lon="2.75116">
        <ele>163</ele>
        <time>2018-05-21T13:19:36Z</time>
      </trkpt>
      <trkpt lat="42.99144" lon="2.75197">
        <ele>159</ele>
        <time>2018-05-21T13:19:50Z</time>
      </trkpt>
      <trkpt lat="42.99118" lon="2.75298">
        <ele>159</ele>
        <time>2018-05-21T13:20:04Z</time>
      </trkpt>
      <trkpt lat="42.99119" lon="2.75334">
        <ele>158</ele>
        <time>2018-05-21T13:20:09Z</time>
      </trkpt>
      <trkpt lat="42.9913" lon="2.75471">
        <ele>160</ele>
        <time>2018-05-21T13:20:29Z</time>
      </trkpt>
      <trkpt lat="42.99121" lon="2.75504">
        <ele>160</ele>
        <time>2018-05-21T13:20:35Z</time>
      </trkpt>
      <trkpt lat="42.99095" lon="2.75507">
        <ele>160</ele>
        <time>2018-05-21T13:20:42Z</time>
      </trkpt>
      <trkpt lat="42.99001" lon="2.75476">
        <ele>157</ele>
        <time>2018-05-21T13:21:01Z</time>
      </trkpt>
      <trkpt lat="42.98929" lon="2.75491">
        <ele>153</ele>
        <time>2018-05-21T13:21:13Z</time>
      </trkpt>
      <trkpt lat="42.98906" lon="2.75504">
        <ele>152</ele>
        <time>2018-05-21T13:21:17Z</time>
      </trkpt>
      <trkpt lat="42.98892" lon="2.75529">
        <ele>152</ele>
        <time>2018-05-21T13:21:21Z</time>
      </trkpt>
      <trkpt lat="42.98873" lon="2.75552">
        <ele>151</ele>
        <time>2018-05-21T13:21:25Z</time>
      </trkpt>
      <trkpt lat="42.98851" lon="2.75562">
        <ele>152</ele>
        <time>2018-05-21T13:21:29Z</time>
      </trkpt>
      <trkpt lat="42.98826" lon="2.75577">
        <ele>151</ele>
        <time>2018-05-21T13:21:34Z</time>
      </trkpt>
      <trkpt lat="42.98796" lon="2.75627">
        <ele>151</ele>
        <time>2018-05-21T13:21:50Z</time>
      </trkpt>
      <trkpt lat="42.98776" lon="2.75646">
        <ele>152</ele>
        <time>2018-05-21T13:22:24Z</time>
      </trkpt>
      <trkpt lat="42.98622" lon="2.75765">
        <ele>149</ele>
        <time>2018-05-21T13:22:59Z</time>
      </trkpt>
      <trkpt lat="42.98581" lon="2.75796">
        <ele>148</ele>
        <time>2018-05-21T13:23:08Z</time>
      </trkpt>
      <trkpt lat="42.98565" lon="2.75821">
        <ele>148</ele>
        <time>2018-05-21T13:23:16Z</time>
      </trkpt>
      <trkpt lat="42.9855" lon="2.75854">
        <ele>148</ele>
        <time>2018-05-21T13:23:23Z</time>
      </trkpt>
      <trkpt lat="42.98536" lon="2.75884">
        <ele>147</ele>
        <time>2018-05-21T13:23:27Z</time>
      </trkpt>
      <trkpt lat="42.98431" lon="2.76074">
        <ele>145</ele>
        <time>2018-05-21T13:23:59Z</time>
      </trkpt>
      <trkpt lat="42.98405" lon="2.76135">
        <ele>144</ele>
        <time>2018-05-21T13:24:08Z</time>
      </trkpt>
      <trkpt lat="42.98288" lon="2.76319">
        <ele>140</ele>
        <time>2018-05-21T13:24:40Z</time>
      </trkpt>
      <trkpt lat="42.98153" lon="2.76496">
        <ele>136</ele>
        <time>2018-05-21T13:25:15Z</time>
      </trkpt>
      <trkpt lat="42.98048" lon="2.76643">
        <ele>137</ele>
        <time>2018-05-21T13:25:45Z</time>
      </trkpt>
      <trkpt lat="42.98022" lon="2.767">
        <ele>137</ele>
        <time>2018-05-21T13:25:55Z</time>
      </trkpt>
      <trkpt lat="42.97962" lon="2.7688">
        <ele>134</ele>
        <time>2018-05-21T13:26:26Z</time>
      </trkpt>
      <trkpt lat="42.97947" lon="2.76909">
        <ele>133</ele>
        <time>2018-05-21T13:26:31Z</time>
      </trkpt>
      <trkpt lat="42.97925" lon="2.77003">
        <ele>132</ele>
        <time>2018-05-21T13:26:46Z</time>
      </trkpt>
      <trkpt lat="42.97907" lon="2.77211">
        <ele>130</ele>
        <time>2018-05-21T13:27:16Z</time>
      </trkpt>
      <trkpt lat="42.97902" lon="2.77346">
        <ele>128</ele>
        <time>2018-05-21T13:27:36Z</time>
      </trkpt>
      <trkpt lat="42.97892" lon="2.77408">
        <ele>128</ele>
        <time>2018-05-21T13:27:47Z</time>
      </trkpt>
      <trkpt lat="42.97824" lon="2.77553">
        <ele>128</ele>
        <time>2018-05-21T13:28:13Z</time>
      </trkpt>
      <trkpt lat="42.97743" lon="2.77675">
        <ele>128</ele>
        <time>2018-05-21T13:28:44Z</time>
      </trkpt>
      <trkpt lat="42.97698" lon="2.77694">
        <ele>130</ele>
        <time>2018-05-21T13:28:57Z</time>
      </trkpt>
      <trkpt lat="42.97686" lon="2.77598">
        <ele>130</ele>
        <time>2018-05-21T13:29:33Z</time>
      </trkpt>
      <trkpt lat="42.97676" lon="2.7757">
        <ele>130</ele>
        <time>2018-05-21T13:29:40Z</time>
      </trkpt>
      <trkpt lat="42.97688" lon="2.77633">
        <ele>128</ele>
        <time>2018-05-21T13:30:00Z</time>
      </trkpt>
      <trkpt lat="42.97691" lon="2.77669">
        <ele>128</ele>
        <time>2018-05-21T13:30:07Z</time>
      </trkpt>
      <trkpt lat="42.97696" lon="2.77735">
        <ele>126</ele>
        <time>2018-05-21T13:30:19Z</time>
      </trkpt>
      <trkpt lat="42.97698" lon="2.7777">
        <ele>126</ele>
        <time>2018-05-21T13:30:25Z</time>
      </trkpt>
      <trkpt lat="42.97722" lon="2.77864">
        <ele>131</ele>
        <time>2018-05-21T13:30:41Z</time>
      </trkpt>
      <trkpt lat="42.9775" lon="2.77917">
        <ele>132</ele>
        <time>2018-05-21T13:30:49Z</time>
      </trkpt>
      <trkpt lat="42.97778" lon="2.77967">
        <ele>130</ele>
        <time>2018-05-21T13:30:58Z</time>
      </trkpt>
      <trkpt lat="42.97867" lon="2.78035">
        <ele>127</ele>
        <time>2018-05-21T13:31:18Z</time>
      </trkpt>
      <trkpt lat="42.98036" lon="2.78131">
        <ele>121</ele>
        <time>2018-05-21T13:31:50Z</time>
      </trkpt>
      <trkpt lat="42.98059" lon="2.78137">
        <ele>121</ele>
        <time>2018-05-21T13:31:53Z</time>
      </trkpt>
      <trkpt lat="42.98141" lon="2.78215">
        <ele>118</ele>
        <time>2018-05-21T13:32:11Z</time>
      </trkpt>
      <trkpt lat="42.98165" lon="2.78223">
        <ele>117</ele>
        <time>2018-05-21T13:32:15Z</time>
      </trkpt>
      <trkpt lat="42.98215" lon="2.78234">
        <ele>118</ele>
        <time>2018-05-21T13:32:24Z</time>
      </trkpt>
      <trkpt lat="42.98237" lon="2.78245">
        <ele>119</ele>
        <time>2018-05-21T13:32:28Z</time>
      </trkpt>
      <trkpt lat="42.98256" lon="2.78267">
        <ele>119</ele>
        <time>2018-05-21T13:32:33Z</time>
      </trkpt>
      <trkpt lat="42.98269" lon="2.783">
        <ele>120</ele>
        <time>2018-05-21T13:32:38Z</time>
      </trkpt>
      <trkpt lat="42.98282" lon="2.78397">
        <ele>121</ele>
        <time>2018-05-21T13:32:53Z</time>
      </trkpt>
      <trkpt lat="42.98308" lon="2.78459">
        <ele>121</ele>
        <time>2018-05-21T13:33:03Z</time>
      </trkpt>
      <trkpt lat="42.98321" lon="2.78531">
        <ele>122</ele>
        <time>2018-05-21T13:33:13Z</time>
      </trkpt>
      <trkpt lat="42.98322" lon="2.7867">
        <ele>121</ele>
        <time>2018-05-21T13:33:33Z</time>
      </trkpt>
      <trkpt lat="42.98331" lon="2.78703">
        <ele>121</ele>
        <time>2018-05-21T13:33:38Z</time>
      </trkpt>
      <trkpt lat="42.98344" lon="2.7873">
        <ele>121</ele>
        <time>2018-05-21T13:33:42Z</time>
      </trkpt>
      <trkpt lat="42.9843" lon="2.7881">
        <ele>119</ele>
        <time>2018-05-21T13:34:00Z</time>
      </trkpt>
      <trkpt lat="42.98461" lon="2.78865">
        <ele>118</ele>
        <time>2018-05-21T13:34:08Z</time>
      </trkpt>
      <trkpt lat="42.98485" lon="2.78883">
        <ele>118</ele>
        <time>2018-05-21T13:34:13Z</time>
      </trkpt>
      <trkpt lat="42.98615" lon="2.78887">
        <ele>119</ele>
        <time>2018-05-21T13:34:35Z</time>
      </trkpt>
      <trkpt lat="42.98665" lon="2.78873">
        <ele>120</ele>
        <time>2018-05-21T13:34:44Z</time>
      </trkpt>
      <trkpt lat="42.98698" lon="2.78822">
        <ele>122</ele>
        <time>2018-05-21T13:34:53Z</time>
      </trkpt>
      <trkpt lat="42.98743" lon="2.78804">
        <ele>120</ele>
        <time>2018-05-21T13:35:01Z</time>
      </trkpt>
      <trkpt lat="42.98794" lon="2.78815">
        <ele>118</ele>
        <time>2018-05-21T13:35:11Z</time>
      </trkpt>
      <trkpt lat="42.98819" lon="2.78827">
        <ele>118</ele>
        <time>2018-05-21T13:35:16Z</time>
      </trkpt>
      <trkpt lat="42.98885" lon="2.78938">
        <ele>119</ele>
        <time>2018-05-21T13:35:35Z</time>
      </trkpt>
      <trkpt lat="42.98926" lon="2.78976">
        <ele>118</ele>
        <time>2018-05-21T13:35:43Z</time>
      </trkpt>
      <trkpt lat="42.98945" lon="2.79002">
        <ele>116</ele>
        <time>2018-05-21T13:35:48Z</time>
      </trkpt>
      <trkpt lat="42.98967" lon="2.79016">
        <ele>114</ele>
        <time>2018-05-21T13:35:52Z</time>
      </trkpt>
      <trkpt lat="42.99015" lon="2.7901">
        <ele>111</ele>
        <time>2018-05-21T13:36:00Z</time>
      </trkpt>
      <trkpt lat="42.99049" lon="2.78955">
        <ele>110</ele>
        <time>2018-05-21T13:36:08Z</time>
      </trkpt>
      <trkpt lat="42.99072" lon="2.78937">
        <ele>110</ele>
        <time>2018-05-21T13:36:13Z</time>
      </trkpt>
      <trkpt lat="42.99118" lon="2.78926">
        <ele>109</ele>
        <time>2018-05-21T13:36:21Z</time>
      </trkpt>
      <trkpt lat="42.99191" lon="2.78944">
        <ele>107</ele>
        <time>2018-05-21T13:36:34Z</time>
      </trkpt>
      <trkpt lat="42.99234" lon="2.78974">
        <ele>105</ele>
        <time>2018-05-21T13:36:42Z</time>
      </trkpt>
      <trkpt lat="42.99243" lon="2.79011">
        <ele>105</ele>
        <time>2018-05-21T13:36:46Z</time>
      </trkpt>
      <trkpt lat="42.99246" lon="2.79049">
        <ele>104</ele>
        <time>2018-05-21T13:36:50Z</time>
      </trkpt>
      <trkpt lat="42.99217" lon="2.79214">
        <ele>106</ele>
        <time>2018-05-21T13:37:09Z</time>
      </trkpt>
      <trkpt lat="42.99225" lon="2.79415">
        <ele>103</ele>
        <time>2018-05-21T13:37:39Z</time>
      </trkpt>
      <trkpt lat="42.99217" lon="2.7951">
        <ele>102</ele>
        <time>2018-05-21T13:37:51Z</time>
      </trkpt>
      <trkpt lat="42.99204" lon="2.79572">
        <ele>102</ele>
        <time>2018-05-21T13:38:00Z</time>
      </trkpt>
      <trkpt lat="42.99212" lon="2.79709">
        <ele>99</ele>
        <time>2018-05-21T13:38:19Z</time>
      </trkpt>
      <trkpt lat="42.99252" lon="2.79874">
        <ele>100</ele>
        <time>2018-05-21T13:38:44Z</time>
      </trkpt>
      <trkpt lat="42.99219" lon="2.80097">
        <ele>97</ele>
        <time>2018-05-21T13:39:15Z</time>
      </trkpt>
      <trkpt lat="42.99212" lon="2.8013">
        <ele>96</ele>
        <time>2018-05-21T13:39:20Z</time>
      </trkpt>
      <trkpt lat="42.99197" lon="2.80265">
        <ele>97</ele>
        <time>2018-05-21T13:39:38Z</time>
      </trkpt>
      <trkpt lat="42.9921" lon="2.8044">
        <ele>96</ele>
        <time>2018-05-21T13:40:03Z</time>
      </trkpt>
      <trkpt lat="42.9921" lon="2.80675">
        <ele>97</ele>
        <time>2018-05-21T13:40:37Z</time>
      </trkpt>
      <trkpt lat="42.99213" lon="2.80706">
        <ele>97</ele>
        <time>2018-05-21T13:40:42Z</time>
      </trkpt>
      <trkpt lat="42.99242" lon="2.80899">
        <ele>95</ele>
        <time>2018-05-21T13:41:13Z</time>
      </trkpt>
      <trkpt lat="42.99249" lon="2.80933">
        <ele>95</ele>
        <time>2018-05-21T13:41:18Z</time>
      </trkpt>
      <trkpt lat="42.99258" lon="2.80964">
        <ele>95</ele>
        <time>2018-05-21T13:41:23Z</time>
      </trkpt>
      <trkpt lat="42.99287" lon="2.81099">
        <ele>93</ele>
        <time>2018-05-21T13:41:44Z</time>
      </trkpt>
      <trkpt lat="42.99375" lon="2.81299">
        <ele>90</ele>
        <time>2018-05-21T13:42:15Z</time>
      </trkpt>
      <trkpt lat="42.9947" lon="2.81453">
        <ele>87</ele>
        <time>2018-05-21T13:42:46Z</time>
      </trkpt>
      <trkpt lat="42.99557" lon="2.8158">
        <ele>85</ele>
        <time>2018-05-21T13:43:20Z</time>
      </trkpt>
      <trkpt lat="42.99662" lon="2.81721">
        <ele>80</ele>
        <time>2018-05-21T13:43:55Z</time>
      </trkpt>
      <trkpt lat="42.99703" lon="2.81841">
        <ele>81</ele>
        <time>2018-05-21T13:44:21Z</time>
      </trkpt>
      <trkpt lat="42.99752" lon="2.8196">
        <ele>87</ele>
        <time>2018-05-21T13:44:55Z</time>
      </trkpt>
      <trkpt lat="42.99733" lon="2.81946">
        <ele>66</ele>
        <time>2018-05-21T13:55:48Z</time>
      </trkpt>
      <trkpt lat="42.99748" lon="2.81942">
        <ele>76</ele>
        <time>2018-05-21T13:57:21Z</time>
      </trkpt>
      <trkpt lat="42.99762" lon="2.81966">
        <ele>117</ele>
        <time>2018-05-21T14:00:53Z</time>
      </trkpt>
      <trkpt lat="42.99766" lon="2.81999">
        <ele>89</ele>
        <time>2018-05-21T14:09:44Z</time>
      </trkpt>
      <trkpt lat="42.99828" lon="2.82178">
        <ele>84</ele>
        <time>2018-05-21T14:10:17Z</time>
      </trkpt>
      <trkpt lat="42.99896" lon="2.82367">
        <ele>79</ele>
        <time>2018-05-21T14:10:47Z</time>
      </trkpt>
      <trkpt lat="42.99902" lon="2.82401">
        <ele>78</ele>
        <time>2018-05-21T14:10:53Z</time>
      </trkpt>
      <trkpt lat="42.99903" lon="2.82438">
        <ele>79</ele>
        <time>2018-05-21T14:10:58Z</time>
      </trkpt>
      <trkpt lat="42.99899" lon="2.82469">
        <ele>79</ele>
        <time>2018-05-21T14:11:02Z</time>
      </trkpt>
      <trkpt lat="42.99896" lon="2.82501">
        <ele>77</ele>
        <time>2018-05-21T14:11:07Z</time>
      </trkpt>
      <trkpt lat="42.99901" lon="2.82537">
        <ele>77</ele>
        <time>2018-05-21T14:11:12Z</time>
      </trkpt>
      <trkpt lat="42.99974" lon="2.8258">
        <ele>78</ele>
        <time>2018-05-21T14:11:29Z</time>
      </trkpt>
      <trkpt lat="43.0014" lon="2.82652">
        <ele>86</ele>
        <time>2018-05-21T14:12:03Z</time>
      </trkpt>
      <trkpt lat="43.00287" lon="2.82725">
        <ele>80</ele>
        <time>2018-05-21T14:12:34Z</time>
      </trkpt>
      <trkpt lat="43.00456" lon="2.82711">
        <ele>76</ele>
        <time>2018-05-21T14:13:03Z</time>
      </trkpt>
      <trkpt lat="43.00483" lon="2.82699">
        <ele>76</ele>
        <time>2018-05-21T14:13:08Z</time>
      </trkpt>
      <trkpt lat="43.00644" lon="2.82526">
        <ele>73</ele>
        <time>2018-05-21T14:13:40Z</time>
      </trkpt>
      <trkpt lat="43.00684" lon="2.82489">
        <ele>72</ele>
        <time>2018-05-21T14:13:47Z</time>
      </trkpt>
      <trkpt lat="43.00707" lon="2.82485">
        <ele>73</ele>
        <time>2018-05-21T14:13:51Z</time>
      </trkpt>
      <trkpt lat="43.00753" lon="2.82501">
        <ele>73</ele>
        <time>2018-05-21T14:13:59Z</time>
      </trkpt>
      <trkpt lat="43.00889" lon="2.82659">
        <ele>77</ele>
        <time>2018-05-21T14:14:31Z</time>
      </trkpt>
      <trkpt lat="43.00974" lon="2.82794">
        <ele>77</ele>
        <time>2018-05-21T14:14:54Z</time>
      </trkpt>
      <trkpt lat="43.00987" lon="2.82829">
        <ele>76</ele>
        <time>2018-05-21T14:14:59Z</time>
      </trkpt>
      <trkpt lat="43.01006" lon="2.83079">
        <ele>76</ele>
        <time>2018-05-21T14:15:31Z</time>
      </trkpt>
      <trkpt lat="43.01024" lon="2.83142">
        <ele>76</ele>
        <time>2018-05-21T14:15:40Z</time>
      </trkpt>
      <trkpt lat="43.0107" lon="2.83226">
        <ele>76</ele>
        <time>2018-05-21T14:15:55Z</time>
      </trkpt>
      <trkpt lat="43.01208" lon="2.83372">
        <ele>78</ele>
        <time>2018-05-21T14:16:27Z</time>
      </trkpt>
      <trkpt lat="43.01269" lon="2.8344">
        <ele>80</ele>
        <time>2018-05-21T14:16:40Z</time>
      </trkpt>
      <trkpt lat="43.01313" lon="2.83473">
        <ele>82</ele>
        <time>2018-05-21T14:16:48Z</time>
      </trkpt>
      <trkpt lat="43.01336" lon="2.83477">
        <ele>82</ele>
        <time>2018-05-21T14:16:52Z</time>
      </trkpt>
      <trkpt lat="43.01523" lon="2.83402">
        <ele>75</ele>
        <time>2018-05-21T14:17:24Z</time>
      </trkpt>
      <trkpt lat="43.01694" lon="2.8337">
        <ele>73</ele>
        <time>2018-05-21T14:17:56Z</time>
      </trkpt>
      <trkpt lat="43.01694" lon="2.83371">
        <ele>85.9</ele>
      </trkpt>
      <trkpt lat="43.01704" lon="2.83369">
        <ele>87.3</ele>
      </trkpt>
      <trkpt lat="43.01747" lon="2.8335">
        <ele>86.9</ele>
      </trkpt>
      <trkpt lat="43.0176" lon="2.83335">
        <ele>89.7</ele>
      </trkpt>
      <trkpt lat="43.0177" lon="2.83318">
        <ele>87.5</ele>
      </trkpt>
      <trkpt lat="43.01779" lon="2.83294">
        <ele>87.5</ele>
      </trkpt>
      <trkpt lat="43.01785" lon="2.83274">
        <ele>86.8</ele>
      </trkpt>
      <trkpt lat="43.01793" lon="2.83256">
        <ele>86.9</ele>
      </trkpt>
      <trkpt lat="43.01806" lon="2.83241">
        <ele>83</ele>
      </trkpt>
      <trkpt lat="43.01848" lon="2.83183">
        <ele>86.1</ele>
      </trkpt>
      <trkpt lat="43.01868" lon="2.83161">
        <ele>81.9</ele>
      </trkpt>
      <trkpt lat="43.01894" lon="2.83141">
        <ele>83.3</ele>
      </trkpt>
      <trkpt lat="43.01906" lon="2.83135">
        <ele>83.4</ele>
      </trkpt>
      <trkpt lat="43.01947" lon="2.83122">
        <ele>84.4</ele>
      </trkpt>
      <trkpt lat="43.02003" lon="2.83096">
        <ele>81.2</ele>
      </trkpt>
      <trkpt lat="43.02029" lon="2.83088">
        <ele>82.7</ele>
      </trkpt>
      <trkpt lat="43.02041" lon="2.8309">
        <ele>83.2</ele>
      </trkpt>
      <trkpt lat="43.02101" lon="2.83114">
        <ele>85.3</ele>
      </trkpt>
      <trkpt lat="43.02123" lon="2.83116">
        <ele>85.7</ele>
      </trkpt>
      <trkpt lat="43.02141" lon="2.83115">
        <ele>85.6</ele>
      </trkpt>
      <trkpt lat="43.02152" lon="2.83112">
        <ele>85.1</ele>
      </trkpt>
      <trkpt lat="43.02159" lon="2.83107">
        <ele>84.4</ele>
      </trkpt>
      <trkpt lat="43.02181" lon="2.83089">
        <ele>84.9</ele>
      </trkpt>
      <trkpt lat="43.022" lon="2.83075">
        <ele>81.5</ele>
      </trkpt>
      <trkpt lat="43.02226" lon="2.83058">
        <ele>82.5</ele>
      </trkpt>
      <trkpt lat="43.02237" lon="2.83051">
        <ele>82.5</ele>
      </trkpt>
      <trkpt lat="43.02249" lon="2.83038">
        <ele>81.7</ele>
      </trkpt>
      <trkpt lat="43.02266" lon="2.83012">
        <ele>86.7</ele>
      </trkpt>
      <trkpt lat="43.02279" lon="2.82997">
        <ele>81.4</ele>
      </trkpt>
      <trkpt lat="43.02308" lon="2.82975">
        <ele>83.1</ele>
      </trkpt>
      <trkpt lat="43.02327" lon="2.82963">
        <ele>82.7</ele>
      </trkpt>
      <trkpt lat="43.0234" lon="2.82961">
        <ele>83.6</ele>
      </trkpt>
      <trkpt lat="43.02364" lon="2.82964">
        <ele>83.4</ele>
      </trkpt>
      <trkpt lat="43.02498" lon="2.82993">
        <ele>81.2</ele>
      </trkpt>
      <trkpt lat="43.02522" lon="2.83003">
        <ele>83.6</ele>
      </trkpt>
      <trkpt lat="43.02559" lon="2.83029">
        <ele>83.4</ele>
      </trkpt>
      <trkpt lat="43.02568" lon="2.83034">
        <ele>83.5</ele>
      </trkpt>
      <trkpt lat="43.02582" lon="2.83037">
        <ele>83.3</ele>
      </trkpt>
      <trkpt lat="43.02624" lon="2.83028">
        <ele>83</ele>
      </trkpt>
      <trkpt lat="43.02651" lon="2.83017">
        <ele>82.3</ele>
      </trkpt>
      <trkpt lat="43.02664" lon="2.83006">
        <ele>80.3</ele>
      </trkpt>
      <trkpt lat="43.02674" lon="2.8299">
        <ele>78.6</ele>
      </trkpt>
      <trkpt lat="43.02684" lon="2.82964">
        <ele>77.7</ele>
      </trkpt>
      <trkpt lat="43.02689" lon="2.82957">
        <ele>77.5</ele>
      </trkpt>
      <trkpt lat="43.02707" lon="2.82947">
        <ele>77.4</ele>
      </trkpt>
      <trkpt lat="43.02717" lon="2.82946">
        <ele>77.6</ele>
      </trkpt>
      <trkpt lat="43.02731" lon="2.8295">
        <ele>77.9</ele>
      </trkpt>
      <trkpt lat="43.0277" lon="2.82969">
        <ele>79.7</ele>
      </trkpt>
      <trkpt lat="43.02834" lon="2.83021">
        <ele>82</ele>
      </trkpt>
      <trkpt lat="43.0286" lon="2.83035">
        <ele>84.2</ele>
      </trkpt>
      <trkpt lat="43.02893" lon="2.83049">
        <ele>83.9</ele>
      </trkpt>
      <trkpt lat="43.02954" lon="2.83053">
        <ele>81.9</ele>
      </trkpt>
      <trkpt lat="43.02968" lon="2.8305">
        <ele>82</ele>
      </trkpt>
      <trkpt lat="43.0298" lon="2.83042">
        <ele>81.7</ele>
      </trkpt>
      <trkpt lat="43.03014" lon="2.83008">
        <ele>84</ele>
      </trkpt>
      <trkpt lat="43.03059" lon="2.82965">
        <ele>80.7</ele>
      </trkpt>
      <trkpt lat="43.03078" lon="2.8295">
        <ele>79.4</ele>
      </trkpt>
      <trkpt lat="43.03097" lon="2.82942">
        <ele>78.9</ele>
      </trkpt>
      <trkpt lat="43.03126" lon="2.82939">
        <ele>78.6</ele>
      </trkpt>
      <trkpt lat="43.03154" lon="2.82946">
        <ele>78.1</ele>
      </trkpt>
      <trkpt lat="43.03166" lon="2.82954">
        <ele>78.7</ele>
      </trkpt>
      <trkpt lat="43.03175" lon="2.82966">
        <ele>78</ele>
      </trkpt>
      <trkpt lat="43.03191" lon="2.8301">
        <ele>80.4</ele>
      </trkpt>
      <trkpt lat="43.03204" lon="2.83073">
        <ele>79.7</ele>
      </trkpt>
      <trkpt lat="43.03206" lon="2.83098">
        <ele>79.4</ele>
      </trkpt>
      <trkpt lat="43.032" lon="2.83198">
        <ele>78.3</ele>
      </trkpt>
      <trkpt lat="43.03199" lon="2.8323">
        <ele>77.8</ele>
      </trkpt>
      <trkpt lat="43.03198" lon="2.83271">
        <ele>75.8</ele>
      </trkpt>
      <trkpt lat="43.03198" lon="2.83311">
        <ele>75.1</ele>
      </trkpt>
      <trkpt lat="43.03205" lon="2.83334">
        <ele>77</ele>
      </trkpt>
      <trkpt lat="43.03209" lon="2.83341">
        <ele>76.9</ele>
      </trkpt>
      <trkpt lat="43.03213" lon="2.83345">
        <ele>76.8</ele>
      </trkpt>
      <trkpt lat="43.03219" lon="2.83351">
        <ele>76.6</ele>
      </trkpt>
      <trkpt lat="43.03236" lon="2.8336">
        <ele>76.3</ele>
      </trkpt>
      <trkpt lat="43.03265" lon="2.83368">
        <ele>75.3</ele>
      </trkpt>
      <trkpt lat="43.0332" lon="2.83382">
        <ele>76.9</ele>
      </trkpt>
      <trkpt lat="43.03341" lon="2.83383">
        <ele>79.1</ele>
      </trkpt>
      <trkpt lat="43.03412" lon="2.83366">
        <ele>78.6</ele>
      </trkpt>
      <trkpt lat="43.03425" lon="2.83358">
        <ele>85.8</ele>
      </trkpt>
      <trkpt lat="43.03436" lon="2.83345">
        <ele>84.8</ele>
      </trkpt>
      <trkpt lat="43.03442" lon="2.83336">
        <ele>85.6</ele>
      </trkpt>
      <trkpt lat="43.03452" lon="2.83297">
        <ele>78.9</ele>
      </trkpt>
      <trkpt lat="43.03459" lon="2.83281">
        <ele>78.8</ele>
      </trkpt>
      <trkpt lat="43.03471" lon="2.83267">
        <ele>78.8</ele>
      </trkpt>
      <trkpt lat="43.03548" lon="2.83225">
        <ele>82.2</ele>
      </trkpt>
      <trkpt lat="43.03563" lon="2.83221">
        <ele>82.6</ele>
      </trkpt>
      <trkpt lat="43.03583" lon="2.83219">
        <ele>82.8</ele>
      </trkpt>
      <trkpt lat="43.03601" lon="2.83222">
        <ele>83.1</ele>
      </trkpt>
      <trkpt lat="43.03794" lon="2.83315">
        <ele>79.4</ele>
      </trkpt>
      <trkpt lat="43.03813" lon="2.83327">
        <ele>77</ele>
      </trkpt>
      <trkpt lat="43.0383" lon="2.83344">
        <ele>77.2</ele>
      </trkpt>
      <trkpt lat="43.03844" lon="2.83364">
        <ele>75.6</ele>
      </trkpt>
      <trkpt lat="43.0385" lon="2.83383">
        <ele>76.5</ele>
      </trkpt>
      <trkpt lat="43.03852" lon="2.83402">
        <ele>77.3</ele>
      </trkpt>
      <trkpt lat="43.03845" lon="2.83451">
        <ele>75</ele>
      </trkpt>
      <trkpt lat="43.03845" lon="2.83462">
        <ele>74.2</ele>
      </trkpt>
      <trkpt lat="43.03857" lon="2.83529">
        <ele>71.5</ele>
      </trkpt>
      <trkpt lat="43.03862" lon="2.83552">
        <ele>71.5</ele>
      </trkpt>
      <trkpt lat="43.03873" lon="2.83567">
        <ele>71.8</ele>
      </trkpt>
      <trkpt lat="43.03886" lon="2.83577">
        <ele>72.3</ele>
      </trkpt>
      <trkpt lat="43.03896" lon="2.83582">
        <ele>72.8</ele>
      </trkpt>
      <trkpt lat="43.03914" lon="2.83579">
        <ele>73.6</ele>
      </trkpt>
      <trkpt lat="43.03929" lon="2.83571">
        <ele>71.4</ele>
      </trkpt>
      <trkpt lat="43.03989" lon="2.8351">
        <ele>67.3</ele>
      </trkpt>
      <trkpt lat="43.04003" lon="2.83487">
        <ele>66.2</ele>
      </trkpt>
      <trkpt lat="43.0402" lon="2.83448">
        <ele>67.9</ele>
      </trkpt>
      <trkpt lat="43.04035" lon="2.83428">
        <ele>68.2</ele>
      </trkpt>
      <trkpt lat="43.04045" lon="2.83418">
        <ele>67.9</ele>
      </trkpt>
      <trkpt lat="43.04083" lon="2.83404">
        <ele>70.7</ele>
      </trkpt>
      <trkpt lat="43.04097" lon="2.83402">
        <ele>78.1</ele>
      </trkpt>
      <trkpt lat="43.04106" lon="2.83405">
        <ele>79.8</ele>
      </trkpt>
      <trkpt lat="43.04242" lon="2.83507">
        <ele>69.8</ele>
      </trkpt>
      <trkpt lat="43.04259" lon="2.83533">
        <ele>74.8</ele>
      </trkpt>
      <trkpt lat="43.04279" lon="2.83588">
        <ele>64.7</ele>
      </trkpt>
      <trkpt lat="43.04294" lon="2.83617">
        <ele>65.9</ele>
      </trkpt>
      <trkpt lat="43.04366" lon="2.83694">
        <ele>69.6</ele>
      </trkpt>
      <trkpt lat="43.04384" lon="2.83735">
        <ele>70</ele>
      </trkpt>
      <trkpt lat="43.04386" lon="2.8378">
        <ele>67.4</ele>
      </trkpt>
      <trkpt lat="43.04364" lon="2.83843">
        <ele>63.6</ele>
      </trkpt>
      <trkpt lat="43.04359" lon="2.83873">
        <ele>63.3</ele>
      </trkpt>
      <trkpt lat="43.04359" lon="2.83905">
        <ele>62.1</ele>
      </trkpt>
      <trkpt lat="43.04392" lon="2.83993">
        <ele>62.2</ele>
      </trkpt>
      <trkpt lat="43.04394" lon="2.84047">
        <ele>60.3</ele>
      </trkpt>
      <trkpt lat="43.04377" lon="2.84093">
        <ele>60.8</ele>
      </trkpt>
      <trkpt lat="43.04323" lon="2.8424">
        <ele>59.7</ele>
      </trkpt>
      <trkpt lat="43.04303" lon="2.8427">
        <ele>64.6</ele>
      </trkpt>
      <trkpt lat="43.04174" lon="2.84367">
        <ele>63.5</ele>
      </trkpt>
      <trkpt lat="43.04158" lon="2.84381">
        <ele>58.5</ele>
      </trkpt>
      <trkpt lat="43.04142" lon="2.84404">
        <ele>59.4</ele>
      </trkpt>
      <trkpt lat="43.04143" lon="2.84445">
        <ele>61.4</ele>
      </trkpt>
      <trkpt lat="43.04204" lon="2.84618">
        <ele>68.6</ele>
      </trkpt>
      <trkpt lat="43.04221" lon="2.8472">
        <ele>69.9</ele>
      </trkpt>
      <trkpt lat="43.04229" lon="2.85009">
        <ele>60.4</ele>
      </trkpt>
      <trkpt lat="43.04226" lon="2.85062">
        <ele>61</ele>
      </trkpt>
      <trkpt lat="43.04193" lon="2.85153">
        <ele>59.8</ele>
      </trkpt>
      <trkpt lat="43.0417" lon="2.85256">
        <ele>57</ele>
      </trkpt>
      <trkpt lat="43.04166" lon="2.85357">
        <ele>54.3</ele>
      </trkpt>
      <trkpt lat="43.04176" lon="2.85469">
        <ele>61.1</ele>
      </trkpt>
      <trkpt lat="43.04178" lon="2.85483">
        <ele>60.2</ele>
      </trkpt>
      <trkpt lat="43.04187" lon="2.85702">
        <ele>56.6</ele>
      </trkpt>
      <trkpt lat="43.0419" lon="2.85737">
        <ele>55.7</ele>
      </trkpt>
      <trkpt lat="43.04196" lon="2.85757">
        <ele>53.4</ele>
      </trkpt>
      <trkpt lat="43.04203" lon="2.85771">
        <ele>53.8</ele>
      </trkpt>
      <trkpt lat="43.04211" lon="2.85782">
        <ele>54</ele>
      </trkpt>
      <trkpt lat="43.0422" lon="2.85789">
        <ele>54.1</ele>
      </trkpt>
      <trkpt lat="43.04344" lon="2.85842">
        <ele>55.2</ele>
      </trkpt>
      <trkpt lat="43.04432" lon="2.85871">
        <ele>56.7</ele>
      </trkpt>
      <trkpt lat="43.04481" lon="2.85889">
        <ele>56</ele>
      </trkpt>
      <trkpt lat="43.04512" lon="2.85904">
        <ele>57.6</ele>
      </trkpt>
      <trkpt lat="43.04561" lon="2.85941">
        <ele>52.4</ele>
      </trkpt>
      <trkpt lat="43.04594" lon="2.85954">
        <ele>53.8</ele>
      </trkpt>
      <trkpt lat="43.04632" lon="2.85963">
        <ele>53.4</ele>
      </trkpt>
      <trkpt lat="43.0468" lon="2.85971">
        <ele>53</ele>
      </trkpt>
      <trkpt lat="43.04746" lon="2.85978">
        <ele>51.8</ele>
      </trkpt>
      <trkpt lat="43.04801" lon="2.85983">
        <ele>54.1</ele>
      </trkpt>
      <trkpt lat="43.04823" lon="2.85991">
        <ele>53.4</ele>
      </trkpt>
      <trkpt lat="43.04848" lon="2.8601">
        <ele>55.8</ele>
      </trkpt>
      <trkpt lat="43.04877" lon="2.86051">
        <ele>59.2</ele>
      </trkpt>
      <trkpt lat="43.04888" lon="2.86088">
        <ele>58.8</ele>
      </trkpt>
      <trkpt lat="43.04882" lon="2.86189">
        <ele>55.9</ele>
      </trkpt>
      <trkpt lat="43.04906" lon="2.86315">
        <ele>56.2</ele>
      </trkpt>
      <trkpt lat="43.04902" lon="2.86374">
        <ele>54.6</ele>
      </trkpt>
      <trkpt lat="43.0487" lon="2.86467">
        <ele>54</ele>
      </trkpt>
      <trkpt lat="43.04814" lon="2.86577">
        <ele>49.2</ele>
      </trkpt>
      <trkpt lat="43.0479" lon="2.86644">
        <ele>47.1</ele>
      </trkpt>
      <trkpt lat="43.0478" lon="2.86713">
        <ele>45.9</ele>
      </trkpt>
      <trkpt lat="43.04792" lon="2.8679">
        <ele>44.8</ele>
      </trkpt>
      <trkpt lat="43.05008" lon="2.87084">
        <ele>42.2</ele>
      </trkpt>
      <trkpt lat="43.05038" lon="2.87138">
        <ele>42.1</ele>
      </trkpt>
      <trkpt lat="43.0506" lon="2.87213">
        <ele>40</ele>
      </trkpt>
      <trkpt lat="43.05142" lon="2.8765">
        <ele>42.8</ele>
      </trkpt>
      <trkpt lat="43.05144" lon="2.87719">
        <ele>41.2</ele>
      </trkpt>
      <trkpt lat="43.05142" lon="2.87775">
        <ele>41.2</ele>
      </trkpt>
      <trkpt lat="43.05133" lon="2.87826">
        <ele>41.6</ele>
      </trkpt>
      <trkpt lat="43.05107" lon="2.87878">
        <ele>45.8</ele>
      </trkpt>
      <trkpt lat="43.05076" lon="2.87908">
        <ele>44.8</ele>
      </trkpt>
      <trkpt lat="43.04996" lon="2.87913">
        <ele>42.9</ele>
      </trkpt>
      <trkpt lat="43.04978" lon="2.87917">
        <ele>42.4</ele>
      </trkpt>
      <trkpt lat="43.04964" lon="2.87925">
        <ele>41.5</ele>
      </trkpt>
      <trkpt lat="43.04951" lon="2.8794">
        <ele>40.9</ele>
      </trkpt>
      <trkpt lat="43.04941" lon="2.87957">
        <ele>40.9</ele>
      </trkpt>
      <trkpt lat="43.04933" lon="2.87978">
        <ele>40.7</ele>
      </trkpt>
      <trkpt lat="43.04928" lon="2.88001">
        <ele>40.5</ele>
      </trkpt>
      <trkpt lat="43.04929" lon="2.88026">
        <ele>41.4</ele>
      </trkpt>
      <trkpt lat="43.04933" lon="2.88051">
        <ele>41.6</ele>
      </trkpt>
      <trkpt lat="43.05037" lon="2.88316">
        <ele>41</ele>
      </trkpt>
      <trkpt lat="43.05058" lon="2.88372">
        <ele>41.1</ele>
      </trkpt>
      <trkpt lat="43.0517" lon="2.88657">
        <ele>38.4</ele>
      </trkpt>
      <trkpt lat="43.0521" lon="2.88761">
        <ele>35.4</ele>
      </trkpt>
      <trkpt lat="43.05219" lon="2.88784">
        <ele>35.3</ele>
      </trkpt>
      <trkpt lat="43.0524" lon="2.88836">
        <ele>34.4</ele>
      </trkpt>
      <trkpt lat="43.05277" lon="2.88933">
        <ele>36.2</ele>
      </trkpt>
      <trkpt lat="43.05375" lon="2.89183">
        <ele>37.9</ele>
      </trkpt>
      <trkpt lat="43.054" lon="2.89267">
        <ele>41.6</ele>
      </trkpt>
      <trkpt lat="43.05582" lon="2.89863">
        <ele>51</ele>
      </trkpt>
      <trkpt lat="43.05589" lon="2.89881">
        <ele>52.2</ele>
      </trkpt>
      <trkpt lat="43.05677" lon="2.90108">
        <ele>54.1</ele>
      </trkpt>
      <trkpt lat="43.05973" lon="2.9087">
        <ele>50.3</ele>
      </trkpt>
      <trkpt lat="43.05993" lon="2.9096">
        <ele>49.3</ele>
      </trkpt>
      <trkpt lat="43.05995" lon="2.90973">
        <ele>49.1</ele>
      </trkpt>
      <trkpt lat="43.05997" lon="2.91001">
        <ele>48.3</ele>
      </trkpt>
      <trkpt lat="43.05998" lon="2.91462">
        <ele>45.5</ele>
      </trkpt>
      <trkpt lat="43.05991" lon="2.91529">
        <ele>44</ele>
      </trkpt>
      <trkpt lat="43.05985" lon="2.91586">
        <ele>43.6</ele>
      </trkpt>
      <trkpt lat="43.05976" lon="2.91646">
        <ele>42.4</ele>
      </trkpt>
      <trkpt lat="43.05964" lon="2.91728">
        <ele>40</ele>
      </trkpt>
      <trkpt lat="43.05964" lon="2.91728">
        <ele>40</ele>
      </trkpt>
      <trkpt lat="43.05961" lon="2.9175">
        <ele>39.3</ele>
      </trkpt>
      <trkpt lat="43.05962" lon="2.91773">
        <ele>38.1</ele>
      </trkpt>
      <trkpt lat="43.05972" lon="2.91801">
        <ele>37.9</ele>
      </trkpt>
      <trkpt lat="43.06025" lon="2.91868">
        <ele>39.5</ele>
      </trkpt>
      <trkpt lat="43.06082" lon="2.91941">
        <ele>38.4</ele>
      </trkpt>
      <trkpt lat="43.06105" lon="2.91974">
        <ele>39</ele>
      </trkpt>
      <trkpt lat="43.06119" lon="2.91991">
        <ele>38.9</ele>
      </trkpt>
      <trkpt lat="43.06159" lon="2.92044">
        <ele>39.9</ele>
      </trkpt>
      <trkpt lat="43.06168" lon="2.92056">
        <ele>41.6</ele>
      </trkpt>
      <trkpt lat="43.06173" lon="2.92049">
        <ele>41.5</ele>
      </trkpt>
      <trkpt lat="43.0618" lon="2.92039">
        <ele>41.3</ele>
      </trkpt>
      <trkpt lat="43.06188" lon="2.92033">
        <ele>41.3</ele>
      </trkpt>
      <trkpt lat="43.06205" lon="2.92023">
        <ele>41.4</ele>
      </trkpt>
      <trkpt lat="43.06239" lon="2.92009">
        <ele>41.9</ele>
      </trkpt>
      <trkpt lat="43.06268" lon="2.91995">
        <ele>43.2</ele>
      </trkpt>
      <trkpt lat="43.06284" lon="2.9198">
        <ele>43.9</ele>
      </trkpt>
      <trkpt lat="43.0633" lon="2.91914">
        <ele>44.8</ele>
      </trkpt>
      <trkpt lat="43.06375" lon="2.91866">
        <ele>47.7</ele>
      </trkpt>
      <trkpt lat="43.06379" lon="2.91862">
        <ele>47.8</ele>
      </trkpt>
      <trkpt lat="43.06425" lon="2.91808">
        <ele>49.9</ele>
      </trkpt>
      <trkpt lat="43.06444" lon="2.9179">
        <ele>50.2</ele>
      </trkpt>
      <trkpt lat="43.0645" lon="2.91785">
        <ele>50.3</ele>
      </trkpt>
      <trkpt lat="43.06476" lon="2.91771">
        <ele>50.4</ele>
      </trkpt>
      <trkpt lat="43.06529" lon="2.91765">
        <ele>51.8</ele>
      </trkpt>
      <trkpt lat="43.06557" lon="2.91765">
        <ele>52.2</ele>
      </trkpt>
      <trkpt lat="43.06573" lon="2.91769">
        <ele>52.3</ele>
      </trkpt>
      <trkpt lat="43.0661" lon="2.91787">
        <ele>51.9</ele>
      </trkpt>
      <trkpt lat="43.06613" lon="2.91789">
        <ele>51.9</ele>
      </trkpt>
      <trkpt lat="43.06653" lon="2.91803">
        <ele>51.1</ele>
      </trkpt>
      <trkpt lat="43.06704" lon="2.91815">
        <ele>51</ele>
      </trkpt>
      <trkpt lat="43.06723" lon="2.91825">
        <ele>51.2</ele>
      </trkpt>
      <trkpt lat="43.06765" lon="2.91861">
        <ele>50.6</ele>
      </trkpt>
      <trkpt lat="43.06775" lon="2.91861">
        <ele>50.6</ele>
      </trkpt>
      <trkpt lat="43.06803" lon="2.91833">
        <ele>52.5</ele>
      </trkpt>
      <trkpt lat="43.06811" lon="2.91829">
        <ele>52.5</ele>
      </trkpt>
      <trkpt lat="43.06814" lon="2.91833">
        <ele>52.4</ele>
      </trkpt>
      <trkpt lat="43.06818" lon="2.91837">
        <ele>51.3</ele>
      </trkpt>
      <trkpt lat="43.0683" lon="2.91865">
        <ele>50.9</ele>
      </trkpt>
      <trkpt lat="43.06848" lon="2.91894">
        <ele>51.8</ele>
      </trkpt>
      <trkpt lat="43.06866" lon="2.91913">
        <ele>52</ele>
      </trkpt>
      <trkpt lat="43.06922" lon="2.91958">
        <ele>52.2</ele>
      </trkpt>
      <trkpt lat="43.06922" lon="2.91958">
        <ele>52.2</ele>
      </trkpt>
      <trkpt lat="43.06942" lon="2.91975">
        <ele>52</ele>
      </trkpt>
      <trkpt lat="43.0698" lon="2.92009">
        <ele>51.7</ele>
      </trkpt>
      <trkpt lat="43.06986" lon="2.92016">
        <ele>51.7</ele>
      </trkpt>
      <trkpt lat="43.07039" lon="2.92078">
        <ele>53.9</ele>
      </trkpt>
      <trkpt lat="43.07057" lon="2.92098">
        <ele>54.4</ele>
      </trkpt>
      <trkpt lat="43.0712" lon="2.92178">
        <ele>55.9</ele>
      </trkpt>
      <trkpt lat="43.07176" lon="2.92246">
        <ele>57.1</ele>
      </trkpt>
      <trkpt lat="43.07301" lon="2.92389">
        <ele>58.4</ele>
      </trkpt>
      <trkpt lat="43.0734" lon="2.92431">
        <ele>57.1</ele>
      </trkpt>
      <trkpt lat="43.07352" lon="2.92448">
        <ele>57.1</ele>
      </trkpt>
      <trkpt lat="43.0737" lon="2.92485">
        <ele>56.8</ele>
      </trkpt>
      <trkpt lat="43.07375" lon="2.92518">
        <ele>55.4</ele>
      </trkpt>
      <trkpt lat="43.07382" lon="2.92544">
        <ele>55.3</ele>
      </trkpt>
      <trkpt lat="43.07389" lon="2.92556">
        <ele>55.2</ele>
      </trkpt>
      <trkpt lat="43.07436" lon="2.92606">
        <ele>55.6</ele>
      </trkpt>
      <trkpt lat="43.07446" lon="2.92621">
        <ele>55.7</ele>
      </trkpt>
      <trkpt lat="43.07472" lon="2.92675">
        <ele>55.1</ele>
      </trkpt>
      <trkpt lat="43.07491" lon="2.92727">
        <ele>54.5</ele>
      </trkpt>
      <trkpt lat="43.0752" lon="2.92825">
        <ele>51.1</ele>
      </trkpt>
      <trkpt lat="43.07523" lon="2.92833">
        <ele>50.9</ele>
      </trkpt>
      <trkpt lat="43.07531" lon="2.92868">
        <ele>49</ele>
      </trkpt>
      <trkpt lat="43.07533" lon="2.92939">
        <ele>45.6</ele>
      </trkpt>
      <trkpt lat="43.07545" lon="2.92999">
        <ele>43.4</ele>
      </trkpt>
      <trkpt lat="43.0756" lon="2.93009">
        <ele>39.1</ele>
      </trkpt>
      <trkpt lat="43.0761" lon="2.93026">
        <ele>40.6</ele>
      </trkpt>
      <trkpt lat="43.07615" lon="2.93033">
        <ele>40.7</ele>
      </trkpt>
      <trkpt lat="43.07636" lon="2.93081">
        <ele>41</ele>
      </trkpt>
      <trkpt lat="43.07654" lon="2.9311">
        <ele>39.5</ele>
      </trkpt>
      <trkpt lat="43.07668" lon="2.93134">
        <ele>43.2</ele>
      </trkpt>
      <trkpt lat="43.0767" lon="2.93155">
        <ele>42.2</ele>
      </trkpt>
      <trkpt lat="43.07663" lon="2.93229">
        <ele>37.7</ele>
      </trkpt>
      <trkpt lat="43.07656" lon="2.93289">
        <ele>36.2</ele>
      </trkpt>
      <trkpt lat="43.07647" lon="2.93325">
        <ele>35.7</ele>
      </trkpt>
      <trkpt lat="43.07643" lon="2.93394">
        <ele>34.4</ele>
      </trkpt>
      <trkpt lat="43.0764" lon="2.93412">
        <ele>34.3</ele>
      </trkpt>
      <trkpt lat="43.07629" lon="2.93495">
        <ele>31.3</ele>
      </trkpt>
      <trkpt lat="43.07627" lon="2.93561">
        <ele>29.7</ele>
      </trkpt>
      <trkpt lat="43.07634" lon="2.93607">
        <ele>30.3</ele>
      </trkpt>
      <trkpt lat="43.07639" lon="2.93631">
        <ele>30.5</ele>
      </trkpt>
      <trkpt lat="43.07645" lon="2.93671">
        <ele>31.6</ele>
      </trkpt>
      <trkpt lat="43.07649" lon="2.93698">
        <ele>31.5</ele>
      </trkpt>
      <trkpt lat="43.0765" lon="2.93714">
        <ele>31.5</ele>
      </trkpt>
      <trkpt lat="43.07648" lon="2.9373">
        <ele>31.4</ele>
      </trkpt>
      <trkpt lat="43.0763" lon="2.9378">
        <ele>31.2</ele>
      </trkpt>
      <trkpt lat="43.07625" lon="2.93793">
        <ele>31.2</ele>
      </trkpt>
      <trkpt lat="43.07608" lon="2.93841">
        <ele>30.6</ele>
      </trkpt>
      <trkpt lat="43.07594" lon="2.9388">
        <ele>30</ele>
      </trkpt>
      <trkpt lat="43.07586" lon="2.93935">
        <ele>29.5</ele>
      </trkpt>
      <trkpt lat="43.07583" lon="2.93997">
        <ele>32.6</ele>
      </trkpt>
      <trkpt lat="43.07603" lon="2.94085">
        <ele>30.3</ele>
      </trkpt>
      <trkpt lat="43.07639" lon="2.94148">
        <ele>29.3</ele>
      </trkpt>
      <trkpt lat="43.07655" lon="2.94184">
        <ele>29.7</ele>
      </trkpt>
      <trkpt lat="43.07704" lon="2.94258">
        <ele>28.4</ele>
      </trkpt>
      <trkpt lat="43.07707" lon="2.94274">
        <ele>28.5</ele>
      </trkpt>
      <trkpt lat="43.07709" lon="2.94283">
        <ele>28.6</ele>
      </trkpt>
      <trkpt lat="43.07804" lon="2.94372">
        <ele>31</ele>
      </trkpt>
      <trkpt lat="43.08003" lon="2.94713">
        <ele>26</ele>
      </trkpt>
      <trkpt lat="43.08193" lon="2.94901">
        <ele>16.7</ele>
      </trkpt>
      <trkpt lat="43.08278" lon="2.95056">
        <ele>12.2</ele>
      </trkpt>
      <trkpt lat="43.08334" lon="2.95137">
        <ele>11.1</ele>
      </trkpt>
      <trkpt lat="43.08393" lon="2.95224">
        <ele>11.4</ele>
      </trkpt>
      <trkpt lat="43.08422" lon="2.95266">
        <ele>11.8</ele>
      </trkpt>
      <trkpt lat="43.08433" lon="2.95308">
        <ele>11.6</ele>
      </trkpt>
      <trkpt lat="43.08437" lon="2.95337">
        <ele>11.4</ele>
      </trkpt>
      <trkpt lat="43.0844" lon="2.95351">
        <ele>11.5</ele>
      </trkpt>
      <trkpt lat="43.08451" lon="2.95375">
        <ele>11.7</ele>
      </trkpt>
      <trkpt lat="43.08471" lon="2.95425">
        <ele>12.7</ele>
      </trkpt>
      <trkpt lat="43.08488" lon="2.95458">
        <ele>13</ele>
      </trkpt>
      <trkpt lat="43.08488" lon="2.95458">
        <ele>13</ele>
      </trkpt>
      <trkpt lat="43.08499" lon="2.95483">
        <ele>13.4</ele>
      </trkpt>
      <trkpt lat="43.08518" lon="2.95515">
        <ele>14.5</ele>
      </trkpt>
      <trkpt lat="43.08576" lon="2.95555">
        <ele>14.4</ele>
      </trkpt>
      <trkpt lat="43.08652" lon="2.95609">
        <ele>13.6</ele>
      </trkpt>
      <trkpt lat="43.08681" lon="2.95661">
        <ele>12.6</ele>
      </trkpt>
      <trkpt lat="43.08747" lon="2.95772">
        <ele>13.5</ele>
      </trkpt>
      <trkpt lat="43.08741" lon="2.95793">
        <ele>13.6</ele>
      </trkpt>
      <trkpt lat="43.08741" lon="2.95793">
        <ele>13.6</ele>
      </trkpt>
      <trkpt lat="43.0874" lon="2.95797">
        <ele>13.6</ele>
      </trkpt>
      <trkpt lat="43.08737" lon="2.95805">
        <ele>13.4</ele>
      </trkpt>
      <trkpt lat="43.08736" lon="2.95811">
        <ele>13.1</ele>
      </trkpt>
      <trkpt lat="43.08734" lon="2.95817">
        <ele>12.9</ele>
      </trkpt>
      <trkpt lat="43.08727" lon="2.95844">
        <ele>11.3</ele>
      </trkpt>
      <trkpt lat="43.08722" lon="2.95859">
        <ele>11.6</ele>
      </trkpt>
      <trkpt lat="43.08715" lon="2.95882">
        <ele>11.4</ele>
      </trkpt>
      <trkpt lat="43.08717" lon="2.95895">
        <ele>10.7</ele>
      </trkpt>
      <trkpt lat="43.08724" lon="2.95903">
        <ele>9.9</ele>
      </trkpt>
      <trkpt lat="43.08749" lon="2.9592">
        <ele>5.4</ele>
      </trkpt>
      <trkpt lat="43.0877" lon="2.95925">
        <ele>4.7</ele>
      </trkpt>
      <trkpt lat="43.08774" lon="2.95936">
        <ele>4.6</ele>
      </trkpt>
      <trkpt lat="43.08796" lon="2.95945">
        <ele>4.5</ele>
      </trkpt>
      <trkpt lat="43.08801" lon="2.95935">
        <ele>4.6</ele>
      </trkpt>
      <trkpt lat="43.0881" lon="2.95925">
        <ele>4.9</ele>
      </trkpt>
      <trkpt lat="43.0881" lon="2.95925">
        <ele>4.9</ele>
      </trkpt>
      <trkpt lat="43.08812" lon="2.95923">
        <ele>5</ele>
      </trkpt>
      <trkpt lat="43.0885" lon="2.95892">
        <ele>7.8</ele>
      </trkpt>
      <trkpt lat="43.08862" lon="2.95902">
        <ele>7.8</ele>
      </trkpt>
      <trkpt lat="43.08905" lon="2.95939">
        <ele>6.3</ele>
      </trkpt>
      <trkpt lat="43.08914" lon="2.95945">
        <ele>6.1</ele>
      </trkpt>
      <trkpt lat="43.08928" lon="2.9595">
        <ele>5.9</ele>
      </trkpt>
      <trkpt lat="43.08943" lon="2.95951">
        <ele>5.6</ele>
      </trkpt>
      <trkpt lat="43.08954" lon="2.95948">
        <ele>5.4</ele>
      </trkpt>
      <trkpt lat="43.08959" lon="2.95947">
        <ele>5.3</ele>
      </trkpt>
      <trkpt lat="43.08963" lon="2.95949">
        <ele>5.2</ele>
      </trkpt>
      <trkpt lat="43.08968" lon="2.95952">
        <ele>5.1</ele>
      </trkpt>
      <trkpt lat="43.09034" lon="2.96031">
        <ele>4.3</ele>
      </trkpt>
      <trkpt lat="43.0907" lon="2.96073">
        <ele>4.1</ele>
      </trkpt>
      <trkpt lat="43.09081" lon="2.96084">
        <ele>4</ele>
      </trkpt>
      <trkpt lat="43.09127" lon="2.96132">
        <ele>3.3</ele>
      </trkpt>
      <trkpt lat="43.09138" lon="2.9614">
        <ele>3.2</ele>
      </trkpt>
      <trkpt lat="43.09163" lon="2.96149">
        <ele>3.1</ele>
      </trkpt>
      <trkpt lat="43.09175" lon="2.96158">
        <ele>2.7</ele>
      </trkpt>
      <trkpt lat="43.09186" lon="2.96171">
        <ele>2.5</ele>
      </trkpt>
      <trkpt lat="43.09236" lon="2.96263">
        <ele>2.8</ele>
      </trkpt>
      <trkpt lat="43.09246" lon="2.96278">
        <ele>3.4</ele>
      </trkpt>
      <trkpt lat="43.09254" lon="2.96286">
        <ele>4.1</ele>
      </trkpt>
      <trkpt lat="43.09266" lon="2.96298">
        <ele>4.5</ele>
      </trkpt>
      <trkpt lat="43.09315" lon="2.96339">
        <ele>7.5</ele>
      </trkpt>
      <trkpt lat="43.09327" lon="2.9635">
        <ele>7.5</ele>
      </trkpt>
      <trkpt lat="43.09422" lon="2.9642">
        <ele>7.1</ele>
      </trkpt>
      <trkpt lat="43.09486" lon="2.96455">
        <ele>6.7</ele>
      </trkpt>
      <trkpt lat="43.09516" lon="2.96466">
        <ele>4.7</ele>
      </trkpt>
      <trkpt lat="43.09621" lon="2.96535">
        <ele>3.9</ele>
      </trkpt>
      <trkpt lat="43.09636" lon="2.96541">
        <ele>4</ele>
      </trkpt>
      <trkpt lat="43.09653" lon="2.96542">
        <ele>4</ele>
      </trkpt>
      <trkpt lat="43.09675" lon="2.96541">
        <ele>3.8</ele>
      </trkpt>
      <trkpt lat="43.09695" lon="2.96537">
        <ele>3.7</ele>
      </trkpt>
      <trkpt lat="43.09707" lon="2.96538">
        <ele>3.7</ele>
      </trkpt>
      <trkpt lat="43.09723" lon="2.96546">
        <ele>3.8</ele>
      </trkpt>
      <trkpt lat="43.09736" lon="2.96556">
        <ele>4</ele>
      </trkpt>
      <trkpt lat="43.09785" lon="2.9661">
        <ele>4.4</ele>
      </trkpt>
      <trkpt lat="43.09802" lon="2.96625">
        <ele>4.3</ele>
      </trkpt>
      <trkpt lat="43.09838" lon="2.96648">
        <ele>3.1</ele>
      </trkpt>
      <trkpt lat="43.09851" lon="2.96655">
        <ele>3.1</ele>
      </trkpt>
      <trkpt lat="43.09866" lon="2.96657">
        <ele>2.8</ele>
      </trkpt>
      <trkpt lat="43.09896" lon="2.96656">
        <ele>2.3</ele>
      </trkpt>
      <trkpt lat="43.09905" lon="2.96658">
        <ele>2.2</ele>
      </trkpt>
      <trkpt lat="43.09974" lon="2.96714">
        <ele>2.1</ele>
      </trkpt>
      <trkpt lat="43.10009" lon="2.96754">
        <ele>1.4</ele>
      </trkpt>
      <trkpt lat="43.1002" lon="2.96775">
        <ele>2</ele>
      </trkpt>
      <trkpt lat="43.10036" lon="2.96816">
        <ele>2.6</ele>
      </trkpt>
      <trkpt lat="43.10047" lon="2.96837">
        <ele>4.2</ele>
      </trkpt>
      <trkpt lat="43.10061" lon="2.96848">
        <ele>3.9</ele>
      </trkpt>
      <trkpt lat="43.10141" lon="2.96888">
        <ele>2.4</ele>
      </trkpt>
      <trkpt lat="43.1015" lon="2.96895">
        <ele>2.1</ele>
      </trkpt>
      <trkpt lat="43.10158" lon="2.96904">
        <ele>1.7</ele>
      </trkpt>
      <trkpt lat="43.10193" lon="2.96962">
        <ele>5.8</ele>
      </trkpt>
      <trkpt lat="43.10241" lon="2.97002">
        <ele>12.2</ele>
      </trkpt>
      <trkpt lat="43.10253" lon="2.97017">
        <ele>11</ele>
      </trkpt>
      <trkpt lat="43.10299" lon="2.97089">
        <ele>10.3</ele>
      </trkpt>
      <trkpt lat="43.10307" lon="2.97103">
        <ele>10.2</ele>
      </trkpt>
      <trkpt lat="43.10357" lon="2.97207">
      </trkpt>
      <trkpt lat="43.10415" lon="2.97324">
      </trkpt>
      <trkpt lat="43.10428" lon="2.97351">
      </trkpt>
      <trkpt lat="43.10455" lon="2.97408">
        <ele>1</ele>
      </trkpt>
      <trkpt lat="43.10473" lon="2.97446">
        <ele>1</ele>
      </trkpt>
      <trkpt lat="43.10476" lon="2.97453">
        <ele>1</ele>
      </trkpt>
      <trkpt lat="43.10514" lon="2.97527">
      </trkpt>
      <trkpt lat="43.10522" lon="2.97542">
        <ele>1.42</ele>
      </trkpt>
      <trkpt lat="43.10539" lon="2.97568">
        <ele>1</ele>
      </trkpt>
      <trkpt lat="43.10552" lon="2.97582">
        <ele>1</ele>
      </trkpt>
      <trkpt lat="43.10568" lon="2.97592">
        <ele>1.3</ele>
      </trkpt>
      <trkpt lat="43.10651" lon="2.9763">
        <ele>1.8</ele>
      </trkpt>
      <trkpt lat="43.10662" lon="2.97638">
        <ele>1.1</ele>
      </trkpt>
      <trkpt lat="43.10673" lon="2.97651">
        <ele>1</ele>
      </trkpt>
      <trkpt lat="43.10766" lon="2.97782">
        <ele>1</ele>
      </trkpt>
      <trkpt lat="43.10772" lon="2.9779">
        <ele>1</ele>
      </trkpt>
      <trkpt lat="43.10913" lon="2.97988">
      </trkpt>
      <trkpt lat="43.11067" lon="2.98201">
        <ele>3.3</ele>
      </trkpt>
      <trkpt lat="43.11075" lon="2.98213">
        <ele>3.3</ele>
      </trkpt>
      <trkpt lat="43.11082" lon="2.98221">
        <ele>3.3</ele>
      </trkpt>
      <trkpt lat="43.11091" lon="2.98232">
        <ele>7.9</ele>
      </trkpt>
      <trkpt lat="43.11116" lon="2.98256">
        <ele>5.2</ele>
      </trkpt>
      <trkpt lat="43.11196" lon="2.98329">
        <ele>4.8</ele>
      </trkpt>
      <trkpt lat="43.1124" lon="2.9837">
        <ele>4.5</ele>
      </trkpt>
      <trkpt lat="43.11264" lon="2.98388">
        <ele>6.2</ele>
      </trkpt>
      <trkpt lat="43.11275" lon="2.98393">
        <ele>6.3</ele>
      </trkpt>
      <trkpt lat="43.11342" lon="2.98418">
        <ele>7.1</ele>
      </trkpt>
      <trkpt lat="43.11352" lon="2.98423">
        <ele>7.1</ele>
      </trkpt>
      <trkpt lat="43.11362" lon="2.9843">
        <ele>7.1</ele>
      </trkpt>
      <trkpt lat="43.11402" lon="2.98469">
        <ele>6.6</ele>
      </trkpt>
      <trkpt lat="43.11402" lon="2.98469">
        <ele>6.6</ele>
      </trkpt>
      <trkpt lat="43.11443" lon="2.98507">
        <ele>5.6</ele>
      </trkpt>
      <trkpt lat="43.11464" lon="2.98526">
        <ele>5.8</ele>
      </trkpt>
      <trkpt lat="43.11493" lon="2.98553">
        <ele>4.8</ele>
      </trkpt>
      <trkpt lat="43.11599" lon="2.98636">
        <ele>15.5</ele>
      </trkpt>
      <trkpt lat="43.1168" lon="2.98705">
        <ele>14.7</ele>
      </trkpt>
      <trkpt lat="43.11711" lon="2.98728">
        <ele>16.6</ele>
      </trkpt>
      <trkpt lat="43.1178" lon="2.98768">
        <ele>11</ele>
      </trkpt>
      <trkpt lat="43.11818" lon="2.98795">
        <ele>11</ele>
      </trkpt>
      <trkpt lat="43.11842" lon="2.98825">
        <ele>6.8</ele>
      </trkpt>
      <trkpt lat="43.1186" lon="2.98864">
        <ele>4</ele>
      </trkpt>
      <trkpt lat="43.11869" lon="2.98879">
        <ele>4</ele>
      </trkpt>
      <trkpt lat="43.11881" lon="2.98887">
        <ele>4</ele>
      </trkpt>
      <trkpt lat="43.11896" lon="2.98894">
        <ele>4</ele>
      </trkpt>
      <trkpt lat="43.11913" lon="2.98899">
        <ele>4</ele>
      </trkpt>
      <trkpt lat="43.11942" lon="2.98903">
        <ele>4.8</ele>
      </trkpt>
      <trkpt lat="43.11955" lon="2.98906">
        <ele>4.8</ele>
      </trkpt>
      <trkpt lat="43.11967" lon="2.9891">
        <ele>4.7</ele>
      </trkpt>
      <trkpt lat="43.11976" lon="2.98917">
        <ele>3.3</ele>
      </trkpt>
      <trkpt lat="43.12053" lon="2.98985">
        <ele>4.2</ele>
      </trkpt>
      <trkpt lat="43.1207" lon="2.99">
        <ele>4.1</ele>
      </trkpt>
      <trkpt lat="43.12078" lon="2.99007">
        <ele>4.4</ele>
      </trkpt>
      <trkpt lat="43.12099" lon="2.99037">
        <ele>4.3</ele>
      </trkpt>
      <trkpt lat="43.12106" lon="2.99044">
        <ele>4.2</ele>
      </trkpt>
      <trkpt lat="43.12118" lon="2.99049">
        <ele>4.3</ele>
      </trkpt>
      <trkpt lat="43.12137" lon="2.99052">
        <ele>4.5</ele>
      </trkpt>
      <trkpt lat="43.12143" lon="2.99053">
        <ele>4.6</ele>
      </trkpt>
      <trkpt lat="43.12156" lon="2.99055">
        <ele>4.7</ele>
      </trkpt>
      <trkpt lat="43.12166" lon="2.99056">
        <ele>4.8</ele>
      </trkpt>
      <trkpt lat="43.12179" lon="2.99064">
        <ele>7.1</ele>
      </trkpt>
      <trkpt lat="43.1219" lon="2.99075">
        <ele>7.4</ele>
      </trkpt>
      <trkpt lat="43.12224" lon="2.99109">
        <ele>6.8</ele>
      </trkpt>
      <trkpt lat="43.12234" lon="2.9912">
        <ele>6.8</ele>
      </trkpt>
      <trkpt lat="43.12244" lon="2.99137">
        <ele>6.6</ele>
      </trkpt>
      <trkpt lat="43.12268" lon="2.99186">
        <ele>10.2</ele>
      </trkpt>
      <trkpt lat="43.12271" lon="2.99194">
        <ele>10.6</ele>
      </trkpt>
      <trkpt lat="43.12283" lon="2.99234">
        <ele>10.7</ele>
      </trkpt>
      <trkpt lat="43.12287" lon="2.99271">
        <ele>8.4</ele>
      </trkpt>
      <trkpt lat="43.12294" lon="2.99285">
        <ele>8.6</ele>
      </trkpt>
      <trkpt lat="43.12317" lon="2.99317">
        <ele>9.4</ele>
      </trkpt>
      <trkpt lat="43.12339" lon="2.99343">
        <ele>11.1</ele>
      </trkpt>
      <trkpt lat="43.12379" lon="2.99389">
        <ele>10.6</ele>
      </trkpt>
      <trkpt lat="43.12396" lon="2.99406">
        <ele>10.2</ele>
      </trkpt>
      <trkpt lat="43.12418" lon="2.99424">
        <ele>8</ele>
      </trkpt>
      <trkpt lat="43.12432" lon="2.99435">
        <ele>6.5</ele>
      </trkpt>
      <trkpt lat="43.12435" lon="2.99437">
        <ele>6.3</ele>
      </trkpt>
      <trkpt lat="43.12453" lon="2.99444">
        <ele>5.5</ele>
      </trkpt>
      <trkpt lat="43.12465" lon="2.99449">
        <ele>5.2</ele>
      </trkpt>
      <trkpt lat="43.12477" lon="2.9945">
        <ele>5.1</ele>
      </trkpt>
      <trkpt lat="43.12495" lon="2.99449">
        <ele>5.1</ele>
      </trkpt>
      <trkpt lat="43.12504" lon="2.99443">
        <ele>5</ele>
      </trkpt>
      <trkpt lat="43.12509" lon="2.99438">
        <ele>5</ele>
      </trkpt>
      <trkpt lat="43.12511" lon="2.99432">
        <ele>5</ele>
      </trkpt>
      <trkpt lat="43.12513" lon="2.99423">
        <ele>5</ele>
      </trkpt>
      <trkpt lat="43.12513" lon="2.99417">
        <ele>5</ele>
      </trkpt>
      <trkpt lat="43.1251" lon="2.99395">
        <ele>5</ele>
      </trkpt>
      <trkpt lat="43.12506" lon="2.99379">
        <ele>5</ele>
      </trkpt>
      <trkpt lat="43.12498" lon="2.99358">
        <ele>11.2</ele>
      </trkpt>
      <trkpt lat="43.12498" lon="2.99358">
        <ele>11.2</ele>
      </trkpt>
      <trkpt lat="43.12486" lon="2.99328">
        <ele>23.6</ele>
      </trkpt>
      <trkpt lat="43.12483" lon="2.99314">
        <ele>23.7</ele>
      </trkpt>
      <trkpt lat="43.12479" lon="2.9929">
        <ele>24</ele>
      </trkpt>
      <trkpt lat="43.12477" lon="2.99247">
        <ele>18.1</ele>
      </trkpt>
      <trkpt lat="43.12478" lon="2.99172">
        <ele>11.3</ele>
      </trkpt>
      <trkpt lat="43.1248" lon="2.99116">
        <ele>12.4</ele>
      </trkpt>
      <trkpt lat="43.12479" lon="2.99103">
        <ele>12.9</ele>
      </trkpt>
      <trkpt lat="43.12472" lon="2.99077">
        <ele>12</ele>
      </trkpt>
      <trkpt lat="43.1243" lon="2.9898">
        <ele>6.2</ele>
      </trkpt>
      <trkpt lat="43.12424" lon="2.98959">
        <ele>5.5</ele>
      </trkpt>
      <trkpt lat="43.12419" lon="2.98933">
        <ele>4.6</ele>
      </trkpt>
      <trkpt lat="43.12418" lon="2.9892">
        <ele>4.1</ele>
      </trkpt>
      <trkpt lat="43.12418" lon="2.98901">
        <ele>4</ele>
      </trkpt>
      <trkpt lat="43.12418" lon="2.98867">
        <ele>4</ele>
      </trkpt>
      <trkpt lat="43.12418" lon="2.98854">
        <ele>4</ele>
      </trkpt>
      <trkpt lat="43.12418" lon="2.98846">
        <ele>4</ele>
      </trkpt>
      <trkpt lat="43.12419" lon="2.98833">
        <ele>4</ele>
      </trkpt>
      <trkpt lat="43.12426" lon="2.98807">
        <ele>4.4</ele>
      </trkpt>
      <trkpt lat="43.12432" lon="2.98796">
        <ele>4.5</ele>
      </trkpt>
      <trkpt lat="43.12437" lon="2.98788">
        <ele>4.6</ele>
      </trkpt>
      <trkpt lat="43.12444" lon="2.9878">
        <ele>4.6</ele>
      </trkpt>
      <trkpt lat="43.12452" lon="2.98773">
        <ele>4.5</ele>
      </trkpt>
      <trkpt lat="43.12542" lon="2.98718">
        <ele>4.3</ele>
      </trkpt>
      <trkpt lat="43.12555" lon="2.98713">
        <ele>4.3</ele>
      </trkpt>
      <trkpt lat="43.12645" lon="2.98692">
        <ele>3.6</ele>
      </trkpt>
      <trkpt lat="43.1274" lon="2.98699">
        <ele>1.6</ele>
      </trkpt>
      <trkpt lat="43.12778" lon="2.98693">
        <ele>1.8</ele>
      </trkpt>
      <trkpt lat="43.12822" lon="2.98691">
        <ele>2.5</ele>
      </trkpt>
      <trkpt lat="43.12843" lon="2.98685">
        <ele>3</ele>
      </trkpt>
      <trkpt lat="43.12968" lon="2.98617">
        <ele>6.2</ele>
      </trkpt>
      <trkpt lat="43.13047" lon="2.98579">
        <ele>6.4</ele>
      </trkpt>
      <trkpt lat="43.13077" lon="2.98568">
        <ele>5.9</ele>
      </trkpt>
      <trkpt lat="43.13103" lon="2.98564">
        <ele>7.7</ele>
      </trkpt>
      <trkpt lat="43.13135" lon="2.98567">
        <ele>8.3</ele>
      </trkpt>
      <trkpt lat="43.13178" lon="2.98583">
        <ele>8</ele>
      </trkpt>
      <trkpt lat="43.13227" lon="2.98604">
        <ele>8.1</ele>
      </trkpt>
      <trkpt lat="43.1324" lon="2.98608">
        <ele>8.5</ele>
      </trkpt>
      <trkpt lat="43.13273" lon="2.98611">
        <ele>7.4</ele>
      </trkpt>
      <trkpt lat="43.133" lon="2.98609">
        <ele>6.2</ele>
      </trkpt>
      <trkpt lat="43.13316" lon="2.98606">
        <ele>5.9</ele>
      </trkpt>
      <trkpt lat="43.13328" lon="2.98601">
        <ele>5.8</ele>
      </trkpt>
      <trkpt lat="43.13334" lon="2.98596">
        <ele>4.8</ele>
      </trkpt>
      <trkpt lat="43.13355" lon="2.98571">
        <ele>5</ele>
      </trkpt>
      <trkpt lat="43.1337" lon="2.9855">
        <ele>4.6</ele>
      </trkpt>
      <trkpt lat="43.13381" lon="2.98536">
        <ele>4.3</ele>
      </trkpt>
      <trkpt lat="43.13394" lon="2.98522">
        <ele>3.9</ele>
      </trkpt>
      <trkpt lat="43.13456" lon="2.98467">
        <ele>2</ele>
      </trkpt>
      <trkpt lat="43.13484" lon="2.98435">
        <ele>2</ele>
      </trkpt>
      <trkpt lat="43.13493" lon="2.98421">
        <ele>2</ele>
      </trkpt>
      <trkpt lat="43.13511" lon="2.98393">
        <ele>1.9</ele>
      </trkpt>
      <trkpt lat="43.13531" lon="2.98365">
        <ele>2.1</ele>
      </trkpt>
      <trkpt lat="43.1355" lon="2.98343">
        <ele>2.3</ele>
      </trkpt>
      <trkpt lat="43.13599" lon="2.98293">
        <ele>2.5</ele>
      </trkpt>
      <trkpt lat="43.13608" lon="2.98279">
        <ele>2.4</ele>
      </trkpt>
      <trkpt lat="43.13623" lon="2.98253">
        <ele>2.3</ele>
      </trkpt>
      <trkpt lat="43.13633" lon="2.98236">
        <ele>2.2</ele>
      </trkpt>
      <trkpt lat="43.13649" lon="2.98212">
        <ele>2.3</ele>
      </trkpt>
      <trkpt lat="43.1369" lon="2.98152">
        <ele>3.6</ele>
      </trkpt>
      <trkpt lat="43.13697" lon="2.98144">
        <ele>3.8</ele>
      </trkpt>
      <trkpt lat="43.13719" lon="2.98128">
        <ele>4</ele>
      </trkpt>
      <trkpt lat="43.13758" lon="2.98108">
        <ele>3.8</ele>
      </trkpt>
      <trkpt lat="43.13774" lon="2.98093">
        <ele>3.8</ele>
      </trkpt>
      <trkpt lat="43.13781" lon="2.98084">
        <ele>3.7</ele>
      </trkpt>
      <trkpt lat="43.13794" lon="2.9806">
        <ele>4</ele>
      </trkpt>
      <trkpt lat="43.13813" lon="2.98008">
        <ele>3.6</ele>
      </trkpt>
      <trkpt lat="43.13825" lon="2.97985">
        <ele>3.8</ele>
      </trkpt>
      <trkpt lat="43.13832" lon="2.97978">
        <ele>3.9</ele>
      </trkpt>
      <trkpt lat="43.13848" lon="2.97965">
        <ele>3.3</ele>
      </trkpt>
      <trkpt lat="43.13869" lon="2.97955">
        <ele>3.3</ele>
      </trkpt>
      <trkpt lat="43.1389" lon="2.97953">
        <ele>3.2</ele>
      </trkpt>
      <trkpt lat="43.139" lon="2.97954">
        <ele>3.2</ele>
      </trkpt>
      <trkpt lat="43.13911" lon="2.97956">
        <ele>3.2</ele>
      </trkpt>
      <trkpt lat="43.1392" lon="2.9796">
        <ele>3.8</ele>
      </trkpt>
      <trkpt lat="43.13948" lon="2.97979">
        <ele>3.9</ele>
      </trkpt>
      <trkpt lat="43.14167" lon="2.98177">
        <ele>6.2</ele>
      </trkpt>
      <trkpt lat="43.14271" lon="2.98287">
        <ele>7.6</ele>
      </trkpt>
      <trkpt lat="43.14297" lon="2.98311">
        <ele>7.2</ele>
      </trkpt>
      <trkpt lat="43.1432" lon="2.98324">
        <ele>6.8</ele>
      </trkpt>
      <trkpt lat="43.14364" lon="2.98341">
        <ele>4.9</ele>
      </trkpt>
      <trkpt lat="43.14376" lon="2.98344">
        <ele>4.8</ele>
      </trkpt>
      <trkpt lat="43.14388" lon="2.98342">
        <ele>4.8</ele>
      </trkpt>
      <trkpt lat="43.14394" lon="2.98339">
        <ele>4.8</ele>
      </trkpt>
      <trkpt lat="43.14399" lon="2.98333">
        <ele>6.1</ele>
      </trkpt>
      <trkpt lat="43.14404" lon="2.98325">
        <ele>6.1</ele>
      </trkpt>
      <trkpt lat="43.1441" lon="2.98311">
        <ele>6.4</ele>
      </trkpt>
      <trkpt lat="43.14433" lon="2.98247">
        <ele>7.8</ele>
      </trkpt>
      <trkpt lat="43.14433" lon="2.98247">
        <ele>7.8</ele>
      </trkpt>
      <trkpt lat="43.1444" lon="2.98226">
        <ele>8.3</ele>
      </trkpt>
      <trkpt lat="43.14447" lon="2.98214">
        <ele>8.6</ele>
      </trkpt>
      <trkpt lat="43.1446" lon="2.98197">
        <ele>8.9</ele>
      </trkpt>
      <trkpt lat="43.14469" lon="2.98184">
        <ele>9.1</ele>
      </trkpt>
      <trkpt lat="43.14484" lon="2.98161">
        <ele>10.2</ele>
      </trkpt>
      <trkpt lat="43.14499" lon="2.98136">
        <ele>10.3</ele>
      </trkpt>
      <trkpt lat="43.14513" lon="2.98111">
        <ele>10</ele>
      </trkpt>
      <trkpt lat="43.14534" lon="2.98074">
        <ele>10.5</ele>
      </trkpt>
      <trkpt lat="43.14541" lon="2.98062">
        <ele>10.7</ele>
      </trkpt>
      <trkpt lat="43.14557" lon="2.98031">
        <ele>11.1</ele>
      </trkpt>
      <trkpt lat="43.14565" lon="2.98011">
        <ele>11.5</ele>
      </trkpt>
      <trkpt lat="43.14575" lon="2.97976">
        <ele>13.2</ele>
      </trkpt>
      <trkpt lat="43.14589" lon="2.97921">
        <ele>13.6</ele>
      </trkpt>
      <trkpt lat="43.14619" lon="2.97792">
        <ele>17.2</ele>
      </trkpt>
      <trkpt lat="43.1462" lon="2.97779">
        <ele>17.4</ele>
      </trkpt>
      <trkpt lat="43.14617" lon="2.97768">
        <ele>17.7</ele>
      </trkpt>
      <trkpt lat="43.14612" lon="2.97762">
        <ele>18.1</ele>
      </trkpt>
      <trkpt lat="43.14486" lon="2.97688">
        <ele>19.4</ele>
      </trkpt>
      <trkpt lat="43.14481" lon="2.97683">
        <ele>19.4</ele>
      </trkpt>
      <trkpt lat="43.14476" lon="2.97673">
        <ele>19.5</ele>
      </trkpt>
      <trkpt lat="43.14476" lon="2.97664">
        <ele>20.5</ele>
      </trkpt>
      <trkpt lat="43.14477" lon="2.97654">
        <ele>20.6</ele>
      </trkpt>
      <trkpt lat="43.14483" lon="2.97632">
        <ele>20.9</ele>
      </trkpt>
      <trkpt lat="43.14497" lon="2.97605">
        <ele>21.4</ele>
      </trkpt>
      <trkpt lat="43.14505" lon="2.9759">
        <ele>21.7</ele>
      </trkpt>
      <trkpt lat="43.14512" lon="2.97589">
        <ele>21.6</ele>
      </trkpt>
      <trkpt lat="43.14519" lon="2.97584">
        <ele>21.5</ele>
      </trkpt>
      <trkpt lat="43.14521" lon="2.97582">
        <ele>22.6</ele>
      </trkpt>
      <trkpt lat="43.14526" lon="2.97581">
        <ele>22.7</ele>
      </trkpt>
      <trkpt lat="43.14531" lon="2.97582">
        <ele>22.8</ele>
      </trkpt>
      <trkpt lat="43.14539" lon="2.97583">
        <ele>22.8</ele>
      </trkpt>
      <trkpt lat="43.14546" lon="2.97587">
        <ele>21.4</ele>
      </trkpt>
      <trkpt lat="43.14826" lon="2.97747">
        <ele>14.1</ele>
      </trkpt>
      <trkpt lat="43.14826" lon="2.97747">
        <ele>14.1</ele>
      </trkpt>
      <trkpt lat="43.14877" lon="2.97777">
        <ele>15.5</ele>
      </trkpt>
      <trkpt lat="43.14969" lon="2.97829">
        <ele>16.5</ele>
      </trkpt>
      <trkpt lat="43.15112" lon="2.97911">
        <ele>16.8</ele>
      </trkpt>
      <trkpt lat="43.15128" lon="2.9792">
        <ele>16.5</ele>
      </trkpt>
      <trkpt lat="43.15179" lon="2.97945">
        <ele>16.6</ele>
      </trkpt>
      <trkpt lat="43.15338" lon="2.98012">
        <ele>12.3</ele>
      </trkpt>
      <trkpt lat="43.15504" lon="2.9808">
        <ele>11</ele>
      </trkpt>
      <trkpt lat="43.15521" lon="2.98087">
        <ele>10.6</ele>
      </trkpt>
      <trkpt lat="43.1556" lon="2.98102">
        <ele>10.8</ele>
      </trkpt>
      <trkpt lat="43.15588" lon="2.98116">
        <ele>10.9</ele>
      </trkpt>
      <trkpt lat="43.15613" lon="2.98126">
        <ele>10.6</ele>
      </trkpt>
      <trkpt lat="43.15641" lon="2.9814">
        <ele>10</ele>
      </trkpt>
      <trkpt lat="43.1565" lon="2.98146">
        <ele>9.7</ele>
      </trkpt>
      <trkpt lat="43.1566" lon="2.98155">
        <ele>9.1</ele>
      </trkpt>
      <trkpt lat="43.15663" lon="2.98162">
        <ele>8.6</ele>
      </trkpt>
      <trkpt lat="43.15667" lon="2.98173">
        <ele>8.2</ele>
      </trkpt>
      <trkpt lat="43.15677" lon="2.98185">
        <ele>8.5</ele>
      </trkpt>
      <trkpt lat="43.15688" lon="2.98189">
        <ele>8.7</ele>
      </trkpt>
      <trkpt lat="43.15698" lon="2.98186">
        <ele>8.8</ele>
      </trkpt>
      <trkpt lat="43.15707" lon="2.98178">
        <ele>9</ele>
      </trkpt>
      <trkpt lat="43.15713" lon="2.98165">
        <ele>9.7</ele>
      </trkpt>
      <trkpt lat="43.15715" lon="2.98146">
        <ele>9.8</ele>
      </trkpt>
      <trkpt lat="43.15711" lon="2.98133">
        <ele>9.9</ele>
      </trkpt>
      <trkpt lat="43.15706" lon="2.98125">
        <ele>10</ele>
      </trkpt>
      <trkpt lat="43.15706" lon="2.98113">
        <ele>10.2</ele>
      </trkpt>
      <trkpt lat="43.15708" lon="2.98101">
        <ele>10.3</ele>
      </trkpt>
      <trkpt lat="43.15715" lon="2.98099">
        <ele>10.2</ele>
      </trkpt>
      <trkpt lat="43.15721" lon="2.98101">
        <ele>10.2</ele>
      </trkpt>
      <trkpt lat="43.15726" lon="2.9811">
        <ele>10.1</ele>
      </trkpt>
      <trkpt lat="43.15729" lon="2.98123">
        <ele>10</ele>
      </trkpt>
      <trkpt lat="43.15737" lon="2.98139">
        <ele>9.9</ele>
      </trkpt>
      <trkpt lat="43.15744" lon="2.9815">
        <ele>9.9</ele>
      </trkpt>
      <trkpt lat="43.15756" lon="2.98158">
        <ele>9.9</ele>
      </trkpt>
      <trkpt lat="43.15894" lon="2.98209">
        <ele>10.1</ele>
      </trkpt>
      <trkpt lat="43.15932" lon="2.9822">
        <ele>10.4</ele>
      </trkpt>
      <trkpt lat="43.15969" lon="2.98235">
        <ele>10</ele>
      </trkpt>
      <trkpt lat="43.15992" lon="2.98245">
        <ele>9.4</ele>
      </trkpt>
      <trkpt lat="43.16043" lon="2.98267">
        <ele>9.5</ele>
      </trkpt>
      <trkpt lat="43.16052" lon="2.98263">
        <ele>9.6</ele>
      </trkpt>
      <trkpt lat="43.1606" lon="2.98256">
        <ele>9.6</ele>
      </trkpt>
      <trkpt lat="43.16066" lon="2.98251">
        <ele>9.7</ele>
      </trkpt>
      <trkpt lat="43.1608" lon="2.98249">
        <ele>10.1</ele>
      </trkpt>
      <trkpt lat="43.16093" lon="2.98255">
        <ele>10.2</ele>
      </trkpt>
      <trkpt lat="43.16103" lon="2.98213">
        <ele>12</ele>
      </trkpt>
      <trkpt lat="43.16115" lon="2.98219">
        <ele>12</ele>
      </trkpt>
      <trkpt lat="43.16128" lon="2.9822">
        <ele>12.1</ele>
      </trkpt>
      <trkpt lat="43.1614" lon="2.98215">
        <ele>12.3</ele>
      </trkpt>
      <trkpt lat="43.16147" lon="2.98204">
        <ele>12.5</ele>
      </trkpt>
      <trkpt lat="43.16151" lon="2.98184">
        <ele>13</ele>
      </trkpt>
      <trkpt lat="43.16186" lon="2.98198">
        <ele>13.7</ele>
      </trkpt>
      <trkpt lat="43.16186" lon="2.98198">
        <ele>13.7</ele>
      </trkpt>
      <trkpt lat="43.16151" lon="2.98184">
        <ele>13</ele>
      </trkpt>
      <trkpt lat="43.16155" lon="2.98165">
        <ele>13.5</ele>
      </trkpt>
      <trkpt lat="43.16159" lon="2.98146">
        <ele>13.2</ele>
      </trkpt>
      <trkpt lat="43.16163" lon="2.98128">
        <ele>12.9</ele>
      </trkpt>
      <trkpt lat="43.16166" lon="2.9811">
        <ele>12.6</ele>
      </trkpt>
      <trkpt lat="43.16176" lon="2.98064">
        <ele>14.2</ele>
      </trkpt>
      <trkpt lat="43.16172" lon="2.98036">
        <ele>15</ele>
      </trkpt>
      <trkpt lat="43.16173" lon="2.9801">
        <ele>14.7</ele>
      </trkpt>
      <trkpt lat="43.16183" lon="2.97981">
        <ele>16.8</ele>
      </trkpt>
      <trkpt lat="43.16222" lon="2.97949">
        <ele>19.2</ele>
      </trkpt>
      <trkpt lat="43.16261" lon="2.97919">
        <ele>23.5</ele>
      </trkpt>
      <trkpt lat="43.16287" lon="2.979">
        <ele>26.5</ele>
      </trkpt>
      <trkpt lat="43.16306" lon="2.97892">
        <ele>27.4</ele>
      </trkpt>
      <trkpt lat="43.16307" lon="2.97896">
        <ele>27.4</ele>
      </trkpt>
      <trkpt lat="43.16309" lon="2.97899">
        <ele>27.5</ele>
      </trkpt>
      <trkpt lat="43.16313" lon="2.97901">
        <ele>27.6</ele>
      </trkpt>
      <trkpt lat="43.16317" lon="2.97901">
        <ele>27.8</ele>
      </trkpt>
      <trkpt lat="43.16321" lon="2.97897">
        <ele>27.9</ele>
      </trkpt>
      <trkpt lat="43.16322" lon="2.97895">
        <ele>27.9</ele>
      </trkpt>
      <trkpt lat="43.16331" lon="2.97902">
        <ele>28.2</ele>
      </trkpt>
      <trkpt lat="43.16358" lon="2.97943">
        <ele>29.6</ele>
      </trkpt>
      <trkpt lat="43.16369" lon="2.97961">
        <ele>29.5</ele>
      </trkpt>
      <trkpt lat="43.16435" lon="2.98045">
        <ele>28.9</ele>
      </trkpt>
      <trkpt lat="43.16435" lon="2.98045">
        <ele>28.9</ele>
      </trkpt>
      <trkpt lat="43.16435" lon="2.98045">
        <ele>28.9</ele>
      </trkpt>
      <trkpt lat="43.16469" lon="2.98082">
        <ele>28.9</ele>
      </trkpt>
      <trkpt lat="43.16509" lon="2.98113">
        <ele>27.9</ele>
      </trkpt>
      <trkpt lat="43.16515" lon="2.98117">
        <ele>27.7</ele>
      </trkpt>
      <trkpt lat="43.1655" lon="2.98137">
        <ele>27.1</ele>
      </trkpt>
      <trkpt lat="43.16581" lon="2.98155">
        <ele>25.4</ele>
      </trkpt>
      <trkpt lat="43.16604" lon="2.9817">
        <ele>23</ele>
      </trkpt>
      <trkpt lat="43.16623" lon="2.98182">
        <ele>22.2</ele>
      </trkpt>
      <trkpt lat="43.16645" lon="2.98203">
        <ele>21.6</ele>
      </trkpt>
      <trkpt lat="43.16648" lon="2.98206">
        <ele>21.6</ele>
      </trkpt>
      <trkpt lat="43.16671" lon="2.98235">
        <ele>18.9</ele>
      </trkpt>
      <trkpt lat="43.16688" lon="2.98244">
        <ele>18.7</ele>
      </trkpt>
      <trkpt lat="43.167" lon="2.98243">
        <ele>18.5</ele>
      </trkpt>
      <trkpt lat="43.16718" lon="2.98233">
        <ele>18.2</ele>
      </trkpt>
      <trkpt lat="43.16732" lon="2.98215">
        <ele>18.4</ele>
      </trkpt>
      <trkpt lat="43.16745" lon="2.98204">
        <ele>18.6</ele>
      </trkpt>
      <trkpt lat="43.16757" lon="2.98201">
        <ele>17.3</ele>
      </trkpt>
      <trkpt lat="43.16763" lon="2.98201">
        <ele>17.2</ele>
      </trkpt>
      <trkpt lat="43.16781" lon="2.98204">
        <ele>16.8</ele>
      </trkpt>
      <trkpt lat="43.1681" lon="2.98218">
        <ele>16</ele>
      </trkpt>
      <trkpt lat="43.16823" lon="2.98226">
        <ele>15.6</ele>
      </trkpt>
      <trkpt lat="43.16832" lon="2.98236">
        <ele>15</ele>
      </trkpt>
      <trkpt lat="43.16858" lon="2.98264">
        <ele>13.7</ele>
      </trkpt>
      <trkpt lat="43.16882" lon="2.9829">
        <ele>13.5</ele>
      </trkpt>
      <trkpt lat="43.16892" lon="2.98295">
        <ele>13.4</ele>
      </trkpt>
      <trkpt lat="43.16901" lon="2.98297">
        <ele>13.3</ele>
      </trkpt>
      <trkpt lat="43.16918" lon="2.98299">
        <ele>13.8</ele>
      </trkpt>
      <trkpt lat="43.16921" lon="2.98303">
        <ele>13.7</ele>
      </trkpt>
      <trkpt lat="43.16924" lon="2.98306">
        <ele>13.7</ele>
      </trkpt>
      <trkpt lat="43.16928" lon="2.98308">
        <ele>13.7</ele>
      </trkpt>
      <trkpt lat="43.16932" lon="2.98319">
        <ele>13.5</ele>
      </trkpt>
      <trkpt lat="43.16936" lon="2.98336">
        <ele>13.4</ele>
      </trkpt>
      <trkpt lat="43.16935" lon="2.98351">
        <ele>13.7</ele>
      </trkpt>
      <trkpt lat="43.16928" lon="2.9837">
        <ele>14.1</ele>
      </trkpt>
      <trkpt lat="43.16878" lon="2.98489">
        <ele>15</ele>
      </trkpt>
      <trkpt lat="43.1689" lon="2.98513">
        <ele>15.6</ele>
      </trkpt>
      <trkpt lat="43.16937" lon="2.9859">
        <ele>15.1</ele>
      </trkpt>
      <trkpt lat="43.16937" lon="2.9859">
        <ele>15.1</ele>
      </trkpt>
      <trkpt lat="43.16951" lon="2.98611">
        <ele>14.6</ele>
      </trkpt>
      <trkpt lat="43.16958" lon="2.98628">
        <ele>14.5</ele>
      </trkpt>
      <trkpt lat="43.16939" lon="2.98709">
        <ele>13.3</ele>
      </trkpt>
      <trkpt lat="43.16981" lon="2.98725">
        <ele>13.7</ele>
      </trkpt>
      <trkpt lat="43.1698" lon="2.98727">
        <ele>13.7</ele>
      </trkpt>
      <trkpt lat="43.16981" lon="2.98733">
        <ele>13.7</ele>
      </trkpt>
      <trkpt lat="43.16984" lon="2.9874">
        <ele>13.7</ele>
      </trkpt>
      <trkpt lat="43.16987" lon="2.98742">
        <ele>13.8</ele>
      </trkpt>
      <trkpt lat="43.16978" lon="2.9878">
        <ele>13</ele>
      </trkpt>
      <trkpt lat="43.16974" lon="2.98798">
        <ele>12.9</ele>
      </trkpt>
      <trkpt lat="43.16964" lon="2.98839">
        <ele>13</ele>
      </trkpt>
      <trkpt lat="43.16964" lon="2.98839">
        <ele>13</ele>
      </trkpt>
      <trkpt lat="43.16962" lon="2.98848">
        <ele>13.1</ele>
      </trkpt>
      <trkpt lat="43.16957" lon="2.98866">
        <ele>13.2</ele>
      </trkpt>
      <trkpt lat="43.16951" lon="2.98883">
        <ele>13.2</ele>
      </trkpt>
      <trkpt lat="43.16944" lon="2.98886">
        <ele>13.2</ele>
      </trkpt>
      <trkpt lat="43.16939" lon="2.98893">
        <ele>13.2</ele>
      </trkpt>
      <trkpt lat="43.16936" lon="2.98904">
        <ele>13.2</ele>
      </trkpt>
      <trkpt lat="43.16936" lon="2.98914">
        <ele>13.2</ele>
      </trkpt>
      <trkpt lat="43.16939" lon="2.98923">
        <ele>13.7</ele>
      </trkpt>
      <trkpt lat="43.16943" lon="2.98928">
        <ele>13.8</ele>
      </trkpt>
      <trkpt lat="43.16948" lon="2.98931">
        <ele>13.9</ele>
      </trkpt>
      <trkpt lat="43.16956" lon="2.98933">
        <ele>14</ele>
      </trkpt>
      <trkpt lat="43.16959" lon="2.98932">
        <ele>14</ele>
      </trkpt>
      <trkpt lat="43.16967" lon="2.98933">
        <ele>14.1</ele>
      </trkpt>
      <trkpt lat="43.16979" lon="2.98942">
        <ele>14.2</ele>
      </trkpt>
      <trkpt lat="43.1702" lon="2.98967">
        <ele>13.9</ele>
      </trkpt>
      <trkpt lat="43.17052" lon="2.98984">
        <ele>13.7</ele>
      </trkpt>
      <trkpt lat="43.1709" lon="2.98998">
        <ele>13.1</ele>
      </trkpt>
      <trkpt lat="43.17122" lon="2.99015">
        <ele>13</ele>
      </trkpt>
      <trkpt lat="43.1716" lon="2.99035">
        <ele>13.1</ele>
      </trkpt>
      <trkpt lat="43.17186" lon="2.99053">
        <ele>12.9</ele>
      </trkpt>
      <trkpt lat="43.17235" lon="2.99092">
        <ele>12.4</ele>
      </trkpt>
      <trkpt lat="43.17303" lon="2.99144">
        <ele>11.7</ele>
      </trkpt>
      <trkpt lat="43.17316" lon="2.99158">
        <ele>11.4</ele>
      </trkpt>
      <trkpt lat="43.17345" lon="2.99183">
        <ele>10.4</ele>
      </trkpt>
      <trkpt lat="43.17352" lon="2.99191">
        <ele>10.2</ele>
      </trkpt>
      <trkpt lat="43.17356" lon="2.99197">
        <ele>10.1</ele>
      </trkpt>
      <trkpt lat="43.17357" lon="2.99205">
        <ele>10</ele>
      </trkpt>
      <trkpt lat="43.17357" lon="2.99214">
        <ele>9.9</ele>
      </trkpt>
      <trkpt lat="43.17359" lon="2.99222">
        <ele>9.9</ele>
      </trkpt>
      <trkpt lat="43.17364" lon="2.99233">
        <ele>9.8</ele>
      </trkpt>
      <trkpt lat="43.17372" lon="2.99241">
        <ele>9.8</ele>
      </trkpt>
      <trkpt lat="43.17381" lon="2.99244">
        <ele>9.9</ele>
      </trkpt>
      <trkpt lat="43.17389" lon="2.99242">
        <ele>9.9</ele>
      </trkpt>
      <trkpt lat="43.17404" lon="2.99241">
        <ele>10</ele>
      </trkpt>
      <trkpt lat="43.17414" lon="2.99243">
        <ele>10</ele>
      </trkpt>
      <trkpt lat="43.17451" lon="2.99271">
        <ele>9.4</ele>
      </trkpt>
      <trkpt lat="43.17464" lon="2.9928">
        <ele>9.4</ele>
      </trkpt>
      <trkpt lat="43.17487" lon="2.99295">
        <ele>9.3</ele>
      </trkpt>
      <trkpt lat="43.17514" lon="2.99314">
        <ele>10.3</ele>
      </trkpt>
      <trkpt lat="43.17529" lon="2.99322">
        <ele>10.6</ele>
      </trkpt>
      <trkpt lat="43.17542" lon="2.99329">
        <ele>11</ele>
      </trkpt>
      <trkpt lat="43.17554" lon="2.99334">
        <ele>10.7</ele>
      </trkpt>
      <trkpt lat="43.17568" lon="2.99343">
        <ele>11.3</ele>
      </trkpt>
      <trkpt lat="43.1758" lon="2.99352">
        <ele>11.3</ele>
      </trkpt>
      <trkpt lat="43.17604" lon="2.99368">
        <ele>11.8</ele>
      </trkpt>
      <trkpt lat="43.17652" lon="2.994">
        <ele>11.4</ele>
      </trkpt>
      <trkpt lat="43.17663" lon="2.99407">
        <ele>11.3</ele>
      </trkpt>
      <trkpt lat="43.17716" lon="2.99442">
        <ele>11</ele>
      </trkpt>
      <trkpt lat="43.17734" lon="2.99454">
        <ele>11</ele>
      </trkpt>
      <trkpt lat="43.17756" lon="2.99469">
        <ele>11</ele>
      </trkpt>
      <trkpt lat="43.17773" lon="2.9948">
        <ele>11</ele>
      </trkpt>
      <trkpt lat="43.17789" lon="2.99491">
        <ele>11</ele>
      </trkpt>
      <trkpt lat="43.17798" lon="2.99496">
        <ele>11</ele>
      </trkpt>
      <trkpt lat="43.17823" lon="2.99513">
        <ele>11.5</ele>
      </trkpt>
      <trkpt lat="43.17861" lon="2.99538">
        <ele>13.4</ele>
      </trkpt>
      <trkpt lat="43.17879" lon="2.9955">
        <ele>13.9</ele>
      </trkpt>
      <trkpt lat="43.17889" lon="2.99557">
        <ele>14.2</ele>
      </trkpt>
      <trkpt lat="43.17896" lon="2.99561">
        <ele>14.4</ele>
      </trkpt>
      <trkpt lat="43.17916" lon="2.99574">
        <ele>15.3</ele>
      </trkpt>
      <trkpt lat="43.17926" lon="2.99581">
        <ele>15.6</ele>
      </trkpt>
      <trkpt lat="43.17932" lon="2.99585">
        <ele>15.2</ele>
      </trkpt>
      <trkpt lat="43.17976" lon="2.99614">
        <ele>14.2</ele>
      </trkpt>
      <trkpt lat="43.17999" lon="2.99629">
        <ele>13.9</ele>
      </trkpt>
      <trkpt lat="43.18022" lon="2.99645">
        <ele>12.8</ele>
      </trkpt>
      <trkpt lat="43.18047" lon="2.99661">
        <ele>12.6</ele>
      </trkpt>
      <trkpt lat="43.18068" lon="2.99675">
        <ele>12.5</ele>
      </trkpt>
      <trkpt lat="43.18068" lon="2.99675">
        <ele>12.5</ele>
      </trkpt>
      <trkpt lat="43.18082" lon="2.99685">
        <ele>12.6</ele>
      </trkpt>
      <trkpt lat="43.18153" lon="2.99732">
        <ele>14.1</ele>
      </trkpt>
      <trkpt lat="43.18176" lon="2.99751">
        <ele>15.5</ele>
      </trkpt>
      <trkpt lat="43.18225" lon="2.99791">
        <ele>16.6</ele>
      </trkpt>
      <trkpt lat="43.18239" lon="2.99803">
        <ele>16.9</ele>
      </trkpt>
      <trkpt lat="43.18252" lon="2.99808">
        <ele>17</ele>
      </trkpt>
      <trkpt lat="43.1826" lon="2.9978">
        <ele>16.5</ele>
      </trkpt>
      <trkpt lat="43.18262" lon="2.99759">
        <ele>16.2</ele>
      </trkpt>
      <trkpt lat="43.18262" lon="2.9976">
        <ele>16.2</ele>
      </trkpt>
      <trkpt lat="43.18259" lon="2.99761">
        <ele>16.2</ele>
      </trkpt>
      <trkpt lat="43.18252" lon="2.9976">
        <ele>16.2</ele>
      </trkpt>
      <trkpt lat="43.18249" lon="2.99759">
        <ele>16.2</ele>
      </trkpt>
      <trkpt lat="43.18247" lon="2.99757">
        <ele>16.1</ele>
      </trkpt>
      <trkpt lat="43.18244" lon="2.99753">
        <ele>16.1</ele>
      </trkpt>
      <trkpt lat="43.18242" lon="2.99748">
        <ele>15.6</ele>
      </trkpt>
      <trkpt lat="43.18239" lon="2.99737">
        <ele>15.3</ele>
      </trkpt>
      <trkpt lat="43.18236" lon="2.99671">
        <ele>14.2</ele>
      </trkpt>
      <trkpt lat="43.18235" lon="2.99656">
        <ele>14</ele>
      </trkpt>
      <trkpt lat="43.18234" lon="2.9964">
        <ele>14</ele>
      </trkpt>
      <trkpt lat="43.18233" lon="2.996">
        <ele>14</ele>
      </trkpt>
      <trkpt lat="43.18232" lon="2.99579">
        <ele>14.2</ele>
      </trkpt>
      <trkpt lat="43.1823" lon="2.99554">
        <ele>14.2</ele>
      </trkpt>
      <trkpt lat="43.1823" lon="2.99549">
        <ele>14.2</ele>
      </trkpt>
      <trkpt lat="43.18228" lon="2.99505">
        <ele>14.1</ele>
      </trkpt>
      <trkpt lat="43.18228" lon="2.99492">
        <ele>13.9</ele>
      </trkpt>
      <trkpt lat="43.1822" lon="2.99327">
        <ele>14</ele>
      </trkpt>
      <trkpt lat="43.18218" lon="2.99268">
        <ele>13.8</ele>
      </trkpt>
      <trkpt lat="43.1821" lon="2.99102">
        <ele>13.2</ele>
      </trkpt>
      <trkpt lat="43.18205" lon="2.98987">
        <ele>13.7</ele>
      </trkpt>
      <trkpt lat="43.182" lon="2.98898">
        <ele>14.5</ele>
      </trkpt>
      <trkpt lat="43.18199" lon="2.98865">
        <ele>14.7</ele>
      </trkpt>
      <trkpt lat="43.18198" lon="2.98846">
        <ele>14.8</ele>
      </trkpt>
      <trkpt lat="43.18195" lon="2.9878">
        <ele>14.6</ele>
      </trkpt>
      <trkpt lat="43.18225" lon="2.98774">
        <ele>14.2</ele>
      </trkpt>
      <trkpt lat="43.18256" lon="2.98769">
        <ele>13.2</ele>
      </trkpt>
      <trkpt lat="43.18257" lon="2.98768">
        <ele>13.2</ele>
      </trkpt>
      <trkpt lat="43.18257" lon="2.98768">
        <ele>13.2</ele>
      </trkpt>
      <trkpt lat="43.18344" lon="2.98756">
        <ele>13.2</ele>
      </trkpt>
      <trkpt lat="43.18356" lon="2.98755">
        <ele>13.3</ele>
      </trkpt>
      <trkpt lat="43.18439" lon="2.98742">
        <ele>13.5</ele>
      </trkpt>
      <trkpt lat="43.18466" lon="2.98738">
        <ele>13.3</ele>
      </trkpt>
      <trkpt lat="43.18511" lon="2.98731">
        <ele>13.2</ele>
      </trkpt>
      <trkpt lat="43.18557" lon="2.98724">
        <ele>13.4</ele>
      </trkpt>
      <trkpt lat="43.18558" lon="2.98687">
        <ele>13.2</ele>
      </trkpt>
      <trkpt lat="43.18558" lon="2.98687">
        <ele>13.2</ele>
      </trkpt>
      <trkpt lat="43.18558" lon="2.98673">
        <ele>13.2</ele>
      </trkpt>
      <trkpt lat="43.18559" lon="2.98658">
        <ele>13.4</ele>
      </trkpt>
      <trkpt lat="43.1856" lon="2.98598">
        <ele>13.9</ele>
      </trkpt>
      <trkpt lat="43.1856" lon="2.9857">
        <ele>14</ele>
      </trkpt>
      <trkpt lat="43.18558" lon="2.985">
        <ele>13.6</ele>
      </trkpt>
      <trkpt lat="43.18558" lon="2.98495">
        <ele>13.6</ele>
      </trkpt>
      <trkpt lat="43.18555" lon="2.98404">
        <ele>14.7</ele>
      </trkpt>
      <trkpt lat="43.1856" lon="2.98368">
        <ele>15.1</ele>
      </trkpt>
      <trkpt lat="43.18566" lon="2.9833">
        <ele>15.6</ele>
      </trkpt>
      <trkpt lat="43.18566" lon="2.98327">
        <ele>15.6</ele>
      </trkpt>
      <trkpt lat="43.18571" lon="2.98292">
        <ele>15.8</ele>
      </trkpt>
      <trkpt lat="43.18573" lon="2.98285">
        <ele>15.9</ele>
      </trkpt>
      <trkpt lat="43.18576" lon="2.98286">
        <ele>15.9</ele>
      </trkpt>
      <trkpt lat="43.1858" lon="2.98286">
        <ele>15.9</ele>
      </trkpt>
      <trkpt lat="43.18584" lon="2.98285">
        <ele>15.2</ele>
      </trkpt>
      <trkpt lat="43.18586" lon="2.98282">
        <ele>15.3</ele>
      </trkpt>
      <trkpt lat="43.18588" lon="2.98277">
        <ele>15.3</ele>
      </trkpt>
      <trkpt lat="43.18589" lon="2.98271">
        <ele>15.4</ele>
      </trkpt>
      <trkpt lat="43.18589" lon="2.98268">
        <ele>15.4</ele>
      </trkpt>
      <trkpt lat="43.18588" lon="2.98265">
        <ele>15.5</ele>
      </trkpt>
      <trkpt lat="43.18583" lon="2.98258">
        <ele>16</ele>
      </trkpt>
      <trkpt lat="43.1858" lon="2.98257">
        <ele>16</ele>
      </trkpt>
      <trkpt lat="43.18577" lon="2.98257">
        <ele>16</ele>
      </trkpt>
      <trkpt lat="43.18573" lon="2.98258">
        <ele>16</ele>
      </trkpt>
      <trkpt lat="43.18569" lon="2.98258">
        <ele>16</ele>
      </trkpt>
      <trkpt lat="43.18566" lon="2.98257">
        <ele>16</ele>
      </trkpt>
      <trkpt lat="43.18563" lon="2.98255">
        <ele>16</ele>
      </trkpt>
      <trkpt lat="43.18555" lon="2.98248">
        <ele>16</ele>
      </trkpt>
      <trkpt lat="43.18547" lon="2.98241">
        <ele>16</ele>
      </trkpt>
      <trkpt lat="43.18543" lon="2.98232">
        <ele>16</ele>
      </trkpt>
      <trkpt lat="43.18543" lon="2.98232">
        <ele>16</ele>
      </trkpt>
      <trkpt lat="43.18538" lon="2.98223">
        <ele>16</ele>
      </trkpt>
      <trkpt lat="43.18533" lon="2.98202">
        <ele>16</ele>
      </trkpt>
      <trkpt lat="43.18515" lon="2.98102">
        <ele>15.3</ele>
      </trkpt>
      <trkpt lat="43.18508" lon="2.98073">
        <ele>14.9</ele>
      </trkpt>
      <trkpt lat="43.18504" lon="2.98056">
        <ele>14.8</ele>
      </trkpt>
      <trkpt lat="43.18484" lon="2.97973">
        <ele>15.3</ele>
      </trkpt>
      <trkpt lat="43.18483" lon="2.97966">
        <ele>15.4</ele>
      </trkpt>
      <trkpt lat="43.18484" lon="2.9796">
        <ele>15.4</ele>
      </trkpt>
      <trkpt lat="43.18485" lon="2.97956">
        <ele>15.4</ele>
      </trkpt>
      <trkpt lat="43.18489" lon="2.9795">
        <ele>15.4</ele>
      </trkpt>
      <trkpt lat="43.18491" lon="2.97947">
        <ele>15.4</ele>
      </trkpt>
      <trkpt lat="43.18495" lon="2.9794">
        <ele>15.3</ele>
      </trkpt>
      <trkpt lat="43.18496" lon="2.97931">
        <ele>15.3</ele>
      </trkpt>
      <trkpt lat="43.18494" lon="2.97924">
        <ele>15.2</ele>
      </trkpt>
      <trkpt lat="43.18493" lon="2.97921">
        <ele>15.2</ele>
      </trkpt>
      <trkpt lat="43.1849" lon="2.97905">
        <ele>15.6</ele>
      </trkpt>
      <trkpt lat="43.18483" lon="2.97868">
        <ele>16.3</ele>
      </trkpt>
      <trkpt lat="43.18481" lon="2.97854">
        <ele>16.5</ele>
      </trkpt>
      <trkpt lat="43.18464" lon="2.97771">
        <ele>15.8</ele>
      </trkpt>
      <trkpt lat="43.18455" lon="2.9772">
        <ele>15.4</ele>
      </trkpt>
      <trkpt lat="43.18454" lon="2.97701">
        <ele>15.5</ele>
      </trkpt>
      <trkpt lat="43.18456" lon="2.97689">
        <ele>15.6</ele>
      </trkpt>
      <trkpt lat="43.1846" lon="2.97684">
        <ele>15.6</ele>
      </trkpt>
      <trkpt lat="43.18464" lon="2.9768">
        <ele>15.7</ele>
      </trkpt>
      <trkpt lat="43.18467" lon="2.97676">
        <ele>15.7</ele>
      </trkpt>
      <trkpt lat="43.18468" lon="2.97674">
        <ele>15.7</ele>
      </trkpt>
      <trkpt lat="43.18469" lon="2.97671">
        <ele>15.7</ele>
      </trkpt>
      <trkpt lat="43.18471" lon="2.9766">
        <ele>16.4</ele>
      </trkpt>
      <trkpt lat="43.1847" lon="2.97654">
        <ele>16.5</ele>
      </trkpt>
      <trkpt lat="43.18468" lon="2.97648">
        <ele>16.5</ele>
      </trkpt>
      <trkpt lat="43.18464" lon="2.97642">
        <ele>16.6</ele>
      </trkpt>
      <trkpt lat="43.18461" lon="2.97634">
        <ele>16.7</ele>
      </trkpt>
      <trkpt lat="43.18459" lon="2.97627">
        <ele>16.7</ele>
      </trkpt>
      <trkpt lat="43.18459" lon="2.97619">
        <ele>16.8</ele>
      </trkpt>
      <trkpt lat="43.18459" lon="2.97616">
        <ele>16.8</ele>
      </trkpt>
      <trkpt lat="43.18463" lon="2.97618">
        <ele>16.8</ele>
      </trkpt>
      <trkpt lat="43.1848" lon="2.97572">
        <ele>17.6</ele>
      </trkpt>
      <trkpt lat="43.1848" lon="2.97572">
        <ele>17.6</ele>
      </trkpt>
      <trkpt lat="43.18463" lon="2.97618">
        <ele>16.8</ele>
      </trkpt>
      <trkpt lat="43.18459" lon="2.97616">
        <ele>16.8</ele>
      </trkpt>
      <trkpt lat="43.1846" lon="2.97611">
        <ele>16.9</ele>
      </trkpt>
      <trkpt lat="43.18463" lon="2.97595">
        <ele>17</ele>
      </trkpt>
      <trkpt lat="43.18467" lon="2.97579">
        <ele>17.7</ele>
      </trkpt>
      <trkpt lat="43.18488" lon="2.9753">
        <ele>17.9</ele>
      </trkpt>
      <trkpt lat="43.18511" lon="2.97487">
        <ele>20.6</ele>
      </trkpt>
      <trkpt lat="43.18521" lon="2.97477">
        <ele>21.8</ele>
      </trkpt>
      <trkpt lat="43.18531" lon="2.97468">
        <ele>22.6</ele>
      </trkpt>
      <trkpt lat="43.18537" lon="2.97467">
        <ele>22.8</ele>
      </trkpt>
      <trkpt lat="43.18544" lon="2.97465">
        <ele>23.1</ele>
      </trkpt>
      <trkpt lat="43.18553" lon="2.97467">
        <ele>23.3</ele>
      </trkpt>
      <trkpt lat="43.18575" lon="2.97484">
        <ele>23.2</ele>
      </trkpt>
      <trkpt lat="43.18603" lon="2.97506">
        <ele>21.9</ele>
      </trkpt>
      <trkpt lat="43.18603" lon="2.97506">
        <ele>21.9</ele>
      </trkpt>
      <trkpt lat="43.18605" lon="2.97508">
        <ele>21.8</ele>
      </trkpt>
      <trkpt lat="43.18616" lon="2.97515">
        <ele>21.4</ele>
      </trkpt>
      <trkpt lat="43.1863" lon="2.97523">
        <ele>21.1</ele>
      </trkpt>
      <trkpt lat="43.18645" lon="2.9753">
        <ele>20.9</ele>
      </trkpt>
      <trkpt lat="43.18662" lon="2.97533">
        <ele>20.8</ele>
      </trkpt>
      <trkpt lat="43.18677" lon="2.97535">
        <ele>20.8</ele>
      </trkpt>
      <trkpt lat="43.18689" lon="2.97536">
        <ele>20.9</ele>
      </trkpt>
      <trkpt lat="43.18713" lon="2.97537">
        <ele>21.1</ele>
      </trkpt>
      <trkpt lat="43.18726" lon="2.97538">
        <ele>21.3</ele>
      </trkpt>
      <trkpt lat="43.18726" lon="2.97538">
        <ele>21.3</ele>
      </trkpt>
      <trkpt lat="43.18732" lon="2.97538">
        <ele>21.3</ele>
      </trkpt>
      <trkpt lat="43.18733" lon="2.97558">
        <ele>21.1</ele>
      </trkpt>
      <trkpt lat="43.18734" lon="2.97565">
        <ele>21</ele>
      </trkpt>
    </trkseg>
  </trk>
</gpx>